| time (UTC) | temp C | wind direction | speed KPH | gust KPH | rain 1hr cm | rain 24hr cm | rain mn cm | humidity % | barometer mb |
| 20260901201910 | 32 | 242 | 1.6 | 14.5 | 0.00 | 0.03 | 0.03 | 66 | 1010.9 |
| 20260901201809 | 32 | 246 | 1.6 | 14.5 | 0.00 | 0.03 | 0.03 | 66 | 1010.9 |
| 20260901201709 | 32 | 229 | 1.6 | 14.5 | 0.00 | 0.03 | 0.03 | 67 | 1010.9 |
| 20260901201610 | 32 | 250 | 1.6 | 6.4 | 0.00 | 0.03 | 0.03 | 68 | 1010.9 |
| 20260901201551 | 32 | 250 | 0.0 | 6.4 | 0.00 | 0.03 | 0.03 | 67 | 1010.9 |
| 20260901201508 | 32 | 250 | 1.6 | 6.4 | 0.00 | 0.03 | 0.03 | 67 | 1010.9 |
| 20260901201407 | 32 | 250 | 1.6 | 6.4 | 0.00 | 0.03 | 0.03 | 67 | 1011.0 |
| 20260901201353 | 32 | 290 | 3.2 | 9.7 | 0.00 | 0.03 | 0.03 | 68 | 1011.0 |
| 20260901201349 | 32 | 290 | 3.2 | 11.3 | 0.00 | 0.03 | 0.03 | 68 | 1011.0 |
| 20260901201344 | 31 | 296 | 3.2 | 11.3 | 0.00 | 0.03 | 0.03 | 68 | 1011.0 |
| 20260901201338 | 32 | 275 | 3.2 | 6.4 | 0.00 | 0.03 | 0.03 | 68 | 1011.0 |
| 20260901201114 | 32 | 290 | 3.2 | 11.3 | 0.00 | 0.03 | 0.03 | 68 | 1011.0 |
| 20260901201021 | 32 | 296 | 6.4 | 11.3 | 0.00 | 0.03 | 0.03 | 68 | 1010.9 |
| 20260901200930 | 31 | 284 | 3.2 | 11.3 | 0.00 | 0.03 | 0.03 | 68 | 1010.9 |
| 20260901200905 | 31 | 257 | 3.2 | 11.3 | 0.00 | 0.03 | 0.03 | 68 | 1011.0 |
| 20260901200833 | 31 | 284 | 3.2 | 11.3 | 0.00 | 0.03 | 0.03 | 68 | 1010.9 |
| 20260901200828 | 31 | 257 | 3.2 | 11.3 | 0.00 | 0.03 | 0.03 | 67 | 1011.0 |
| 20260901200819 | 31 | 247 | 3.2 | 11.3 | 0.00 | 0.03 | 0.03 | 68 | 1010.9 |
| 20260901200521 | 31 | 284 | 3.2 | 11.3 | 0.00 | 0.03 | 0.03 | 68 | 1010.8 |
| 20260901200503 | 31 | 284 | 3.2 | 11.3 | 0.00 | 0.03 | 0.03 | 68 | 1010.9 |
| 20260901200402 | 31 | 273 | 3.2 | 14.5 | 0.00 | 0.03 | 0.03 | 68 | 1010.9 |
| 20260901200303 | 31 | 280 | 3.2 | 14.5 | 0.00 | 0.03 | 0.03 | 67 | 1010.9 |
| 20260901200202 | 31 | 288 | 3.2 | 14.5 | 0.00 | 0.03 | 0.03 | 67 | 1010.9 |
| 20260901200107 | 31 | 255 | 3.2 | 14.5 | 0.00 | 0.05 | 0.03 | 67 | 1010.9 |
| 20260901200021 | 31 | 267 | 1.6 | 14.5 | 0.00 | 0.05 | 0.03 | 67 | 1010.9 |
| 20260901200001 | 31 | 267 | 3.2 | 14.5 | 0.00 | 0.05 | 0.03 | 67 | 1010.9 |
| 20260901195902 | 31 | 278 | 3.2 | 14.5 | 0.00 | 0.05 | 0.03 | 67 | 1010.9 |
| 20260901195802 | 31 | 278 | 3.2 | 14.5 | 0.00 | 0.05 | 0.03 | 67 | 1011.0 |
| 20260901195720 | 31 | 278 | 4.8 | 14.5 | 0.00 | 0.05 | 0.03 | 68 | 1011.0 |
| 20260901195715 | 31 | 278 | 4.8 | 14.5 | 0.00 | 0.05 | 0.03 | 67 | 1011.0 |
| 20260901195707 | 31 | 278 | 4.8 | 14.5 | 0.00 | 0.05 | 0.03 | 68 | 1011.0 |
| 20260901195521 | 31 | 278 | 3.2 | 14.5 | 0.00 | 0.05 | 0.03 | 67 | 1011.0 |
| 20260901195459 | 31 | 278 | 3.2 | 14.5 | 0.00 | 0.05 | 0.03 | 67 | 1011.0 |
| 20260901195359 | 31 | 259 | 3.2 | 14.5 | 0.00 | 0.05 | 0.03 | 67 | 1011.1 |
| 20260901195312 | 31 | 269 | 3.2 | 14.5 | 0.00 | 0.05 | 0.03 | 66 | 1011.1 |
| 20260901195307 | 31 | 265 | 3.2 | 14.5 | 0.00 | 0.05 | 0.03 | 67 | 1011.1 |
| 20260901195117 | 31 | 287 | 3.2 | 12.9 | 0.00 | 0.05 | 0.03 | 67 | 1011.2 |
| 20260901195112 | 31 | 268 | 3.2 | 14.5 | 0.00 | 0.05 | 0.03 | 66 | 1011.1 |
| 20260901195106 | 31 | 268 | 3.2 | 14.5 | 0.00 | 0.05 | 0.03 | 66 | 1011.1 |
| 20260901195036 | 31 | 275 | 3.2 | 12.9 | 0.00 | 0.05 | 0.03 | 67 | 1011.1 |
| 20260901194921 | 31 | 204 | 3.2 | 12.9 | 0.00 | 0.05 | 0.03 | 66 | 1011.2 |
| 20260901194917 | 31 | 202 | 1.6 | 12.9 | 0.00 | 0.05 | 0.03 | 67 | 1011.1 |
| 20260901194911 | 31 | 290 | 3.2 | 12.9 | 0.00 | 0.05 | 0.03 | 67 | 1011.1 |
| 20260901194606 | 31 | 271 | 1.6 | 12.9 | 0.00 | 0.05 | 0.03 | 66 | 1011.1 |
| 20260901194553 | 31 | 271 | 3.2 | 12.9 | 0.00 | 0.05 | 0.03 | 66 | 1011.0 |
| 20260901194521 | 32 | 271 | 1.6 | 12.9 | 0.00 | 0.05 | 0.03 | 66 | 1010.9 |
| 20260901194452 | 32 | 271 | 3.2 | 12.9 | 0.00 | 0.05 | 0.03 | 66 | 1011.0 |
| 20260901194349 | 32 | 271 | 3.2 | 12.9 | 0.00 | 0.05 | 0.03 | 65 | 1011.0 |
| 20260901194249 | 32 | 244 | 3.2 | 12.9 | 0.00 | 0.05 | 0.03 | 66 | 1011.1 |
| 20260901194149 | 32 | 319 | 3.2 | 9.7 | 0.00 | 0.05 | 0.03 | 66 | 1011.1 |
| 20260901194105 | 32 | 245 | 3.2 | 11.3 | 0.00 | 0.05 | 0.03 | 66 | 1011.0 |
| 20260901194048 | 32 | 245 | 3.2 | 11.3 | 0.00 | 0.05 | 0.03 | 66 | 1011.0 |
| 20260901194021 | 32 | 245 | 3.2 | 11.3 | 0.00 | 0.05 | 0.03 | 66 | 1010.9 |
| 20260901193947 | 32 | 245 | 3.2 | 11.3 | 0.00 | 0.05 | 0.03 | 66 | 1011.0 |
| 20260901193847 | 32 | 245 | 3.2 | 11.3 | 0.00 | 0.05 | 0.03 | 65 | 1011.1 |
| 20260901193747 | 32 | 247 | 3.2 | 11.3 | 0.00 | 0.05 | 0.03 | 65 | 1011.1 |
| 20260901193646 | 32 | 247 | 3.2 | 11.3 | 0.00 | 0.05 | 0.03 | 64 | 1011.1 |
| 20260901193605 | 32 | 240 | 3.2 | 11.3 | 0.00 | 0.05 | 0.03 | 64 | 1011.2 |
| 20260901193545 | 32 | 240 | 3.2 | 11.3 | 0.00 | 0.05 | 0.03 | 64 | 1011.2 |
| 20260901193536 | 32 | 332 | 1.6 | 11.3 | 0.00 | 0.05 | 0.03 | 64 | 1011.1 |
| 20260901193444 | 32 | 332 | 3.2 | 11.3 | 0.00 | 0.05 | 0.03 | 64 | 1011.2 |
| 20260901193344 | 32 | 252 | 3.2 | 11.3 | 0.00 | 0.05 | 0.03 | 64 | 1011.2 |
| 20260901193243 | 32 | 246 | 3.2 | 11.3 | 0.00 | 0.05 | 0.03 | 63 | 1011.3 |
| 20260901193142 | 32 | 255 | 4.8 | 11.3 | 0.00 | 0.05 | 0.03 | 64 | 1011.3 |
| 20260901193105 | 32 | 281 | 3.2 | 11.3 | 0.00 | 0.08 | 0.03 | 64 | 1011.3 |
| 20260901193042 | 32 | 281 | 3.2 | 11.3 | 0.00 | 0.08 | 0.03 | 64 | 1011.3 |
| 20260901193021 | 32 | 257 | 1.6 | 11.3 | 0.00 | 0.08 | 0.03 | 64 | 1011.2 |
| 20260901192940 | 32 | 263 | 3.2 | 11.3 | 0.00 | 0.08 | 0.03 | 64 | 1011.3 |
| 20260901192840 | 32 | 231 | 4.8 | 11.3 | 0.00 | 0.08 | 0.03 | 64 | 1011.3 |
| 20260901192741 | 32 | 231 | 4.8 | 11.3 | 0.00 | 0.08 | 0.03 | 63 | 1011.3 |
| 20260901192700 | 33 | 244 | 4.8 | 11.3 | 0.00 | 0.08 | 0.03 | 62 | 1011.2 |
| 20260901192655 | 33 | 225 | 4.8 | 11.3 | 0.00 | 0.08 | 0.03 | 63 | 1011.3 |
| 20260901192647 | 33 | 222 | 4.8 | 11.3 | 0.00 | 0.08 | 0.03 | 63 | 1011.3 |
| 20260901192522 | 33 | 244 | 3.2 | 11.3 | 0.00 | 0.08 | 0.03 | 62 | 1011.1 |
| 20260901192439 | 33 | 255 | 4.8 | 11.3 | 0.00 | 0.08 | 0.03 | 63 | 1011.2 |
| 20260901192339 | 33 | 166 | 4.8 | 11.3 | 0.00 | 0.08 | 0.03 | 63 | 1011.2 |
| 20260901192323 | 33 | 264 | 3.2 | 9.7 | 0.00 | 0.08 | 0.03 | 64 | 1011.2 |
| 20260901192239 | 33 | 107 | 4.8 | 11.3 | 0.00 | 0.08 | 0.03 | 62 | 1011.2 |
| 20260901192212 | 33 | 263 | 3.2 | 9.7 | 0.00 | 0.08 | 0.03 | 63 | 1011.2 |
| 20260901192039 | 33 | 250 | 3.2 | 9.7 | 0.00 | 0.08 | 0.03 | 64 | 1011.2 |
| 20260901192021 | 33 | 250 | 4.8 | 9.7 | 0.00 | 0.08 | 0.03 | 64 | 1011.2 |
| 20260901191937 | 33 | 272 | 3.2 | 9.7 | 0.00 | 0.08 | 0.03 | 63 | 1011.3 |
| 20260901191837 | 33 | 270 | 3.2 | 9.7 | 0.00 | 0.08 | 0.03 | 63 | 1011.2 |
| 20260901191736 | 33 | 315 | 3.2 | 9.7 | 0.00 | 0.08 | 0.03 | 64 | 1011.2 |
| 20260901191635 | 32 | 219 | 3.2 | 9.7 | 0.00 | 0.08 | 0.03 | 64 | 1011.2 |
| 20260901191604 | 32 | 217 | 1.6 | 9.7 | 0.00 | 0.08 | 0.03 | 64 | 1011.2 |
| 20260901191534 | 32 | 217 | 1.6 | 9.7 | 0.00 | 0.08 | 0.03 | 64 | 1011.2 |
| 20260901191521 | 32 | 221 | 4.8 | 9.7 | 0.00 | 0.08 | 0.03 | 65 | 1011.1 |
| 20260901191435 | 32 | 194 | 1.6 | 9.7 | 0.00 | 0.08 | 0.03 | 64 | 1011.2 |
| 20260901191334 | 32 | 263 | 1.6 | 8.0 | 0.00 | 0.08 | 0.03 | 64 | 1011.1 |
| 20260901191231 | 32 | 227 | 1.6 | 8.0 | 0.00 | 0.08 | 0.03 | 64 | 1011.2 |
| 20260901191130 | 32 | 242 | 1.6 | 8.0 | 0.00 | 0.08 | 0.03 | 64 | 1011.2 |
| 20260901191105 | 32 | 241 | 0.0 | 8.0 | 0.00 | 0.08 | 0.03 | 64 | 1011.2 |
| 20260901191036 | 32 | 241 | 1.6 | 8.0 | 0.00 | 0.08 | 0.03 | 64 | 1011.1 |
| 20260901191029 | 32 | 241 | 0.0 | 8.0 | 0.00 | 0.08 | 0.03 | 64 | 1011.2 |
| 20260901190929 | 32 | 242 | 0.0 | 8.0 | 0.00 | 0.08 | 0.03 | 64 | 1011.2 |
| 20260901190829 | 32 | 236 | 0.0 | 4.8 | 0.00 | 0.08 | 0.03 | 65 | 1011.2 |
| 20260901190727 | 32 | 254 | 0.0 | 3.2 | 0.00 | 0.08 | 0.03 | 65 | 1011.2 |
| 20260901190627 | 32 | 238 | 0.0 | 0.0 | 0.00 | 0.08 | 0.03 | 64 | 1011.2 |
| 20260901190604 | 32 | 236 | 0.0 | 0.0 | 0.00 | 0.08 | 0.03 | 64 | 1011.2 |
| 20260901190527 | 32 | 202 | 0.0 | 0.0 | 0.00 | 0.08 | 0.03 | 64 | 1011.2 |
| 20260901190521 | 32 | 202 | 0.0 | 0.0 | 0.00 | 0.08 | 0.03 | 63 | 1011.1 |
| 20260901190426 | 32 | 202 | 0.0 | 0.0 | 0.00 | 0.08 | 0.03 | 63 | 1011.2 |
| 20260901190340 | 32 | 278 | 0.0 | 0.0 | 0.00 | 0.08 | 0.03 | 65 | 1011.2 |
| 20260901190335 | 32 | 200 | 0.0 | 0.0 | 0.00 | 0.08 | 0.03 | 63 | 1011.3 |
| 20260901190145 | 32 | 277 | 0.0 | 0.0 | 0.00 | 0.08 | 0.03 | 65 | 1011.1 |
| 20260901190133 | 32 | 277 | 0.0 | 0.0 | 0.00 | 0.08 | 0.03 | 65 | 1011.1 |
| 20260901190021 | 32 | 277 | 0.0 | 0.0 | 0.00 | 0.08 | 0.03 | 64 | 1011.0 |
| 20260901185924 | 32 | 307 | 0.0 | 0.0 | 0.00 | 0.08 | 0.03 | 64 | 1011.1 |
| 20260901185823 | 32 | 309 | 0.0 | 0.0 | 0.00 | 0.08 | 0.03 | 64 | 1011.2 |
| 20260901185734 | 32 | 235 | 0.0 | 0.0 | 0.00 | 0.08 | 0.03 | 64 | 1011.1 |
| 20260901185729 | 32 | 309 | 0.0 | 0.0 | 0.00 | 0.08 | 0.03 | 64 | 1011.2 |
| 20260901185602 | 32 | 237 | 0.0 | 0.0 | 0.00 | 0.08 | 0.03 | 64 | 1011.2 |
| 20260901185522 | 32 | 243 | 0.0 | 0.0 | 0.00 | 0.08 | 0.03 | 65 | 1011.2 |
| 20260901185421 | 32 | 243 | 0.0 | 0.0 | 0.00 | 0.08 | 0.03 | 65 | 1011.3 |
| 20260901185329 | 32 | 286 | 0.0 | 0.0 | 0.00 | 0.08 | 0.03 | 64 | 1011.2 |
| 20260901185319 | 32 | 292 | 0.0 | 0.0 | 0.00 | 0.08 | 0.03 | 65 | 1011.3 |
| 20260901185219 | 32 | 269 | 0.0 | 0.0 | 0.00 | 0.08 | 0.03 | 65 | 1011.3 |
| 20260901185209 | 32 | 287 | 0.0 | 0.0 | 0.00 | 0.08 | 0.03 | 64 | 1011.2 |
| 20260901185021 | 32 | 263 | 0.0 | 0.0 | 0.00 | 0.08 | 0.03 | 65 | 1011.1 |
| 20260901185018 | 32 | 263 | 0.0 | 0.0 | 0.00 | 0.08 | 0.03 | 65 | 1011.2 |
| 20260901184919 | 32 | 267 | 0.0 | 0.0 | 0.00 | 0.08 | 0.03 | 65 | 1011.2 |
| 20260901184819 | 32 | 262 | 0.0 | 0.0 | 0.00 | 0.08 | 0.03 | 65 | 1011.3 |
| 20260901184717 | 32 | 262 | 0.0 | 0.0 | 0.00 | 0.08 | 0.03 | 65 | 1011.3 |
| 20260901184617 | 32 | 262 | 0.0 | 0.0 | 0.00 | 0.08 | 0.03 | 65 | 1011.3 |
| 20260901184601 | 32 | 262 | 0.0 | 0.0 | 0.00 | 0.08 | 0.03 | 65 | 1011.3 |
| 20260901184521 | 32 | 263 | 0.0 | 0.0 | 0.00 | 0.08 | 0.03 | 65 | 1011.3 |
| 20260901184515 | 32 | 263 | 0.0 | 0.0 | 0.00 | 0.08 | 0.03 | 65 | 1011.3 |
| 20260901184414 | 32 | 261 | 0.0 | 0.0 | 0.00 | 0.08 | 0.03 | 65 | 1011.4 |
| 20260901184321 | 32 | 278 | 0.0 | 0.0 | 0.00 | 0.08 | 0.03 | 64 | 1011.4 |
| 20260901184314 | 32 | 261 | 0.0 | 0.0 | 0.00 | 0.08 | 0.03 | 66 | 1011.4 |
| 20260901184216 | 32 | 263 | 0.0 | 0.0 | 0.00 | 0.08 | 0.03 | 65 | 1011.4 |
| 20260901184207 | 32 | 310 | 0.0 | 0.0 | 0.00 | 0.08 | 0.03 | 64 | 1011.4 |
| 20260901184021 | 32 | 280 | 0.0 | 0.0 | 0.00 | 0.08 | 0.03 | 65 | 1011.3 |
| 20260901184012 | 32 | 280 | 0.0 | 0.0 | 0.00 | 0.08 | 0.03 | 65 | 1011.4 |
| 20260901183912 | 32 | 178 | 0.0 | 0.0 | 0.00 | 0.08 | 0.03 | 65 | 1011.4 |
| 20260901183825 | 32 | 178 | 0.0 | 0.0 | 0.00 | 0.08 | 0.03 | 64 | 1011.4 |
| 20260901183820 | 32 | 178 | 0.0 | 0.0 | 0.00 | 0.08 | 0.03 | 65 | 1011.4 |
| 20260901183609 | 32 | 178 | 0.0 | 0.0 | 0.00 | 0.08 | 0.03 | 66 | 1011.4 |
| 20260901183600 | 32 | 178 | 0.0 | 0.0 | 0.00 | 0.08 | 0.03 | 66 | 1011.5 |
| 20260901183521 | 32 | 226 | 0.0 | 0.0 | 0.00 | 0.08 | 0.03 | 67 | 1011.4 |
| 20260901183508 | 32 | 226 | 0.0 | 0.0 | 0.00 | 0.08 | 0.03 | 67 | 1011.5 |
| 20260901183407 | 32 | 217 | 0.0 | 0.0 | 0.00 | 0.08 | 0.03 | 67 | 1011.5 |
| 20260901183306 | 32 | 170 | 0.0 | 0.0 | 0.00 | 0.08 | 0.03 | 68 | 1011.5 |
| 20260901183206 | 32 | 170 | 0.0 | 0.0 | 0.00 | 0.08 | 0.03 | 67 | 1011.6 |
| 20260901183106 | 32 | 170 | 0.0 | 0.0 | 0.00 | 0.08 | 0.03 | 67 | 1011.6 |
| 20260901183057 | 32 | 170 | 0.0 | 0.0 | 0.00 | 0.08 | 0.03 | 66 | 1011.6 |
| 20260901183021 | 32 | 170 | 0.0 | 0.0 | 0.00 | 0.08 | 0.03 | 65 | 1011.4 |
| 20260901183005 | 32 | 170 | 0.0 | 0.0 | 0.00 | 0.08 | 0.03 | 65 | 1011.5 |
| 20260901182920 | 32 | 249 | 0.0 | 0.0 | 0.00 | 0.08 | 0.03 | 66 | 1011.5 |
| 20260901182915 | 32 | 259 | 0.0 | 0.0 | 0.00 | 0.08 | 0.03 | 67 | 1011.5 |
| 20260901182705 | 32 | 249 | 0.0 | 0.0 | 0.00 | 0.08 | 0.03 | 65 | 1011.5 |
| 20260901182604 | 32 | 249 | 0.0 | 0.0 | 0.00 | 0.08 | 0.03 | 66 | 1011.6 |
| 20260901182557 | 32 | 248 | 0.0 | 0.0 | 0.00 | 0.08 | 0.03 | 65 | 1011.6 |
| 20260901182521 | 32 | 248 | 0.0 | 0.0 | 0.00 | 0.08 | 0.03 | 65 | 1011.5 |
| 20260901182503 | 32 | 248 | 0.0 | 0.0 | 0.00 | 0.08 | 0.03 | 65 | 1011.6 |
| 20260901182402 | 32 | 253 | 0.0 | 0.0 | 0.00 | 0.08 | 0.03 | 65 | 1011.6 |
| 20260901182305 | 32 | 259 | 0.0 | 0.0 | 0.00 | 0.08 | 0.03 | 66 | 1011.5 |
| 20260901182202 | 32 | 259 | 0.0 | 0.0 | 0.00 | 0.08 | 0.03 | 66 | 1011.6 |
| 20260901182056 | 32 | 259 | 0.0 | 0.0 | 0.00 | 0.08 | 0.03 | 66 | 1011.6 |
| 20260901182021 | 32 | 259 | 0.0 | 0.0 | 0.00 | 0.08 | 0.03 | 66 | 1011.4 |
| 20260901182015 | 32 | 259 | 0.0 | 0.0 | 0.00 | 0.08 | 0.03 | 65 | 1011.4 |
| 20260901182009 | 32 | 259 | 0.0 | 0.0 | 0.00 | 0.08 | 0.03 | 66 | 1011.5 |
| 20260901181814 | 31 | 234 | 0.0 | 4.8 | 0.00 | 0.08 | 0.03 | 67 | 1011.4 |
| 20260901181800 | 32 | 273 | 0.0 | 0.0 | 0.00 | 0.08 | 0.03 | 65 | 1011.4 |
| 20260901181710 | 32 | 275 | 0.0 | 3.2 | 0.00 | 0.08 | 0.03 | 67 | 1011.4 |
| 20260901181701 | 31 | 234 | 0.0 | 4.8 | 0.00 | 0.08 | 0.03 | 67 | 1011.4 |
| 20260901181521 | 31 | 277 | 0.0 | 4.8 | 0.00 | 0.08 | 0.03 | 68 | 1011.3 |
| 20260901181458 | 31 | 277 | 1.6 | 4.8 | 0.00 | 0.08 | 0.03 | 68 | 1011.4 |
| 20260901181412 | 31 | 275 | 1.6 | 14.5 | 0.00 | 0.08 | 0.03 | 68 | 1011.4 |
| 20260901181408 | 31 | 276 | 1.6 | 4.8 | 0.00 | 0.08 | 0.03 | 68 | 1011.4 |
| 20260901181158 | 31 | 275 | 3.2 | 14.5 | 0.00 | 0.08 | 0.03 | 67 | 1011.4 |
| 20260901181116 | 31 | 275 | 3.2 | 14.5 | 0.00 | 0.08 | 0.03 | 67 | 1011.4 |
| 20260901181108 | 31 | 275 | 3.2 | 14.5 | 0.00 | 0.08 | 0.03 | 68 | 1011.4 |
| 20260901181021 | 31 | 275 | 0.0 | 14.5 | 0.00 | 0.08 | 0.03 | 67 | 1011.4 |
| 20260901180856 | 31 | 244 | 3.2 | 14.5 | 0.00 | 0.08 | 0.03 | 68 | 1011.4 |
| 20260901180809 | 31 | 225 | 3.2 | 14.5 | 0.00 | 0.08 | 0.03 | 67 | 1011.4 |
| 20260901180805 | 31 | 229 | 3.2 | 14.5 | 0.00 | 0.08 | 0.03 | 67 | 1011.4 |
| 20260901180557 | 31 | 296 | 3.2 | 14.5 | 0.00 | 0.08 | 0.03 | 67 | 1011.4 |
| 20260901180521 | 31 | 300 | 0.0 | 14.5 | 0.00 | 0.08 | 0.03 | 66 | 1011.5 |
| 20260901180455 | 31 | 300 | 3.2 | 14.5 | 0.00 | 0.08 | 0.03 | 66 | 1011.5 |
| 20260901180354 | 31 | 299 | 3.2 | 14.5 | 0.00 | 0.08 | 0.03 | 65 | 1011.5 |
| 20260901180253 | 31 | 239 | 3.2 | 8.0 | 0.00 | 0.08 | 0.03 | 67 | 1011.5 |
| 20260901180153 | 31 | 232 | 3.2 | 8.0 | 0.00 | 0.08 | 0.03 | 68 | 1011.5 |
| 20260901180054 | 31 | 232 | 3.2 | 8.0 | 0.00 | 0.08 | 0.03 | 68 | 1011.5 |
| 20260901180021 | 31 | 236 | 3.2 | 8.0 | 0.00 | 0.08 | 0.03 | 68 | 1011.5 |
| 20260901175952 | 31 | 236 | 3.2 | 8.0 | 0.00 | 0.08 | 0.03 | 68 | 1011.5 |
| 20260901175850 | 31 | 236 | 3.2 | 8.0 | 0.00 | 0.08 | 0.03 | 68 | 1011.5 |
| 20260901175802 | 31 | 236 | 3.2 | 8.0 | 0.00 | 0.08 | 0.03 | 67 | 1011.5 |
| 20260901175758 | 31 | 236 | 3.2 | 8.0 | 0.00 | 0.08 | 0.03 | 68 | 1011.5 |
| 20260901175548 | 31 | 236 | 1.6 | 8.0 | 0.00 | 0.08 | 0.03 | 65 | 1011.5 |
| 20260901175521 | 31 | 236 | 3.2 | 8.0 | 0.00 | 0.08 | 0.03 | 66 | 1011.6 |
| 20260901175448 | 31 | 236 | 1.6 | 8.0 | 0.00 | 0.08 | 0.03 | 66 | 1011.6 |
| 20260901175347 | 31 | 251 | 1.6 | 6.4 | 0.00 | 0.08 | 0.03 | 67 | 1011.6 |
| 20260901175247 | 31 | 195 | 1.6 | 4.8 | 0.00 | 0.08 | 0.03 | 66 | 1011.6 |
| 20260901175145 | 31 | 198 | 1.6 | 4.8 | 0.00 | 0.08 | 0.03 | 67 | 1011.7 |
| 20260901175045 | 31 | 198 | 0.0 | 4.8 | 0.00 | 0.08 | 0.03 | 66 | 1011.6 |
| 20260901175021 | 31 | 190 | 3.2 | 4.8 | 0.00 | 0.08 | 0.03 | 67 | 1011.6 |
| 20260901174945 | 31 | 190 | 0.0 | 4.8 | 0.00 | 0.08 | 0.03 | 67 | 1011.6 |
| 20260901174844 | 31 | 187 | 0.0 | 4.8 | 0.00 | 0.08 | 0.03 | 67 | 1011.6 |
| 20260901174757 | 31 | 169 | 0.0 | 0.0 | 0.00 | 0.08 | 0.03 | 67 | 1011.4 |
| 20260901174752 | 31 | 169 | 0.0 | 0.0 | 0.00 | 0.08 | 0.03 | 68 | 1011.4 |
| 20260901174601 | 31 | 228 | 0.0 | 0.0 | 0.00 | 0.08 | 0.03 | 67 | 1011.5 |
| 20260901174557 | 31 | 167 | 0.0 | 0.0 | 0.00 | 0.08 | 0.03 | 66 | 1011.5 |
| 20260901174552 | 31 | 180 | 0.0 | 0.0 | 0.00 | 0.08 | 0.03 | 68 | 1011.5 |
| 20260901174521 | 31 | 218 | 0.0 | 0.0 | 0.00 | 0.08 | 0.03 | 68 | 1011.5 |
| 20260901174341 | 31 | 229 | 0.0 | 0.0 | 0.00 | 0.08 | 0.03 | 67 | 1011.5 |
| 20260901174241 | 31 | 228 | 0.0 | 0.0 | 0.00 | 0.08 | 0.03 | 67 | 1011.6 |
| 20260901174140 | 31 | 227 | 0.0 | 0.0 | 0.00 | 0.08 | 0.03 | 67 | 1011.6 |
| 20260901174047 | 31 | 223 | 0.0 | 0.0 | 0.00 | 0.08 | 0.03 | 68 | 1011.6 |
| 20260901174040 | 31 | 219 | 0.0 | 0.0 | 0.00 | 0.08 | 0.03 | 68 | 1011.6 |
| 20260901174021 | 31 | 219 | 0.0 | 0.0 | 0.00 | 0.08 | 0.03 | 68 | 1011.6 |
| 20260901173939 | 31 | 218 | 0.0 | 0.0 | 0.00 | 0.08 | 0.03 | 68 | 1011.6 |
| 20260901173852 | 31 | 160 | 0.0 | 0.0 | 0.00 | 0.08 | 0.03 | 68 | 1011.6 |
| 20260901173848 | 31 | 246 | 0.0 | 0.0 | 0.00 | 0.08 | 0.03 | 68 | 1011.6 |
| 20260901173638 | 31 | 162 | 0.0 | 0.0 | 0.00 | 0.08 | 0.03 | 68 | 1011.6 |
| 20260901173548 | 31 | 162 | 0.0 | 0.0 | 0.00 | 0.08 | 0.03 | 68 | 1011.6 |
| 20260901173537 | 31 | 155 | 0.0 | 0.0 | 0.00 | 0.08 | 0.03 | 68 | 1011.6 |
| 20260901173521 | 31 | 147 | 0.0 | 0.0 | 0.00 | 0.08 | 0.03 | 69 | 1011.6 |
| 20260901173437 | 31 | 146 | 0.0 | 0.0 | 0.00 | 0.08 | 0.03 | 67 | 1011.6 |
| 20260901173350 | 31 | 196 | 0.0 | 0.0 | 0.00 | 0.08 | 0.03 | 69 | 1011.6 |
| 20260901173345 | 31 | 175 | 0.0 | 0.0 | 0.00 | 0.08 | 0.03 | 69 | 1011.6 |
| 20260901173135 | 30 | 181 | 0.0 | 0.0 | 0.00 | 0.08 | 0.03 | 69 | 1011.6 |
| 20260901173057 | 30 | 219 | 0.0 | 0.0 | 0.00 | 0.08 | 0.03 | 68 | 1011.5 |
| 20260901173021 | 31 | 278 | 0.0 | 0.0 | 0.00 | 0.08 | 0.03 | 68 | 1011.6 |
| 20260901172943 | 30 | 185 | 0.0 | 0.0 | 0.00 | 0.08 | 0.03 | 68 | 1011.6 |
| 20260901172733 | 31 | 182 | 0.0 | 0.0 | 0.00 | 0.08 | 0.03 | 67 | 1011.6 |
| 20260901172632 | 31 | 180 | 0.0 | 0.0 | 0.00 | 0.08 | 0.03 | 68 | 1011.6 |
| 20260901172546 | 31 | 219 | 0.0 | 0.0 | 0.00 | 0.08 | 0.03 | 69 | 1011.6 |
| 20260901172532 | 31 | 219 | 0.0 | 0.0 | 0.00 | 0.08 | 0.03 | 69 | 1011.6 |
| 20260901172521 | 31 | 219 | 0.0 | 0.0 | 0.00 | 0.08 | 0.03 | 69 | 1011.6 |
| 20260901172444 | 30 | 261 | 0.0 | 0.0 | 0.00 | 0.08 | 0.03 | 70 | 1011.6 |
| 20260901172440 | 30 | 248 | 0.0 | 0.0 | 0.00 | 0.08 | 0.03 | 69 | 1011.6 |
| 20260901172231 | 30 | 230 | 0.0 | 0.0 | 0.00 | 0.08 | 0.03 | 69 | 1011.7 |
| 20260901172130 | 30 | 230 | 0.0 | 0.0 | 0.00 | 0.08 | 0.03 | 69 | 1011.7 |
| 20260901172046 | 30 | 240 | 0.0 | 0.0 | 0.00 | 0.08 | 0.03 | 70 | 1011.7 |
| 20260901172030 | 30 | 198 | 0.0 | 0.0 | 0.00 | 0.08 | 0.03 | 70 | 1011.7 |
| 20260901172021 | 30 | 198 | 0.0 | 0.0 | 0.00 | 0.08 | 0.03 | 69 | 1011.7 |
| 20260901171942 | 30 | 231 | 0.0 | 0.0 | 0.00 | 0.08 | 0.03 | 70 | 1011.8 |
| 20260901171938 | 30 | 180 | 0.0 | 0.0 | 0.00 | 0.08 | 0.03 | 69 | 1011.7 |
| 20260901171727 | 30 | 231 | 0.0 | 0.0 | 0.00 | 0.08 | 0.03 | 72 | 1011.9 |
| 20260901171645 | 30 | 210 | 0.0 | 0.0 | 0.00 | 0.08 | 0.03 | 70 | 1011.9 |
| 20260901171641 | 30 | 210 | 0.0 | 0.0 | 0.00 | 0.08 | 0.03 | 71 | 1011.9 |
| 20260901171632 | 30 | 212 | 0.0 | 0.0 | 0.00 | 0.08 | 0.03 | 70 | 1011.9 |
| 20260901171536 | 30 | 210 | 0.0 | 0.0 | 0.00 | 0.08 | 0.03 | 71 | 1011.9 |
| 20260901171426 | 30 | 211 | 0.0 | 0.0 | 0.00 | 0.08 | 0.03 | 71 | 1011.9 |
| 20260901171326 | 30 | 316 | 0.0 | 0.0 | 0.00 | 0.08 | 0.03 | 71 | 1012.0 |
| 20260901171224 | 30 | 208 | 0.0 | 0.0 | 0.00 | 0.08 | 0.03 | 73 | 1012.0 |
| 20260901171124 | 30 | 209 | 0.0 | 0.0 | 0.00 | 0.08 | 0.03 | 73 | 1012.0 |
| 20260901171045 | 30 | 262 | 0.0 | 0.0 | 0.00 | 0.08 | 0.03 | 73 | 1012.0 |
| 20260901171023 | 30 | 235 | 0.0 | 0.0 | 0.00 | 0.08 | 0.03 | 73 | 1012.0 |
| 20260901171021 | 30 | 235 | 0.0 | 0.0 | 0.00 | 0.08 | 0.03 | 73 | 1011.9 |
| 20260901170923 | 30 | 237 | 0.0 | 0.0 | 0.00 | 0.08 | 0.03 | 73 | 1012.0 |
| 20260901170823 | 30 | 221 | 0.0 | 0.0 | 0.00 | 0.08 | 0.03 | 73 | 1012.1 |
| 20260901170736 | 29 | 165 | 0.0 | 0.0 | 0.00 | 0.08 | 0.03 | 75 | 1012.1 |
| 20260901170732 | 29 | 220 | 0.0 | 0.0 | 0.00 | 0.08 | 0.03 | 76 | 1012.1 |
| 20260901170545 | 29 | 164 | 0.0 | 0.0 | 0.00 | 0.08 | 0.03 | 75 | 1012.0 |
| 20260901170522 | 29 | 164 | 0.0 | 0.0 | 0.00 | 0.08 | 0.03 | 76 | 1012.0 |
| 20260901170421 | 29 | 164 | 0.0 | 0.0 | 0.00 | 0.08 | 0.03 | 76 | 1012.1 |
| 20260901170404 | 29 | 158 | 0.0 | 0.0 | 0.00 | 0.08 | 0.03 | 76 | 1012.2 |
| 20260901170320 | 29 | 160 | 0.0 | 0.0 | 0.00 | 0.08 | 0.03 | 76 | 1012.1 |
| 20260901170256 | 29 | 159 | 0.0 | 0.0 | 0.00 | 0.08 | 0.03 | 75 | 1012.1 |
| 20260901170247 | 29 | 159 | 0.0 | 0.0 | 0.00 | 0.08 | 0.03 | 76 | 1012.2 |
| 20260901170028 | 29 | 190 | 0.0 | 0.0 | 0.00 | 0.08 | 0.03 | 76 | 1012.2 |
| 20260901170021 | 29 | 206 | 0.0 | 0.0 | 0.00 | 0.08 | 0.03 | 76 | 1012.1 |
| 20260901165818 | 28 | 128 | 0.0 | 0.0 | 0.00 | 0.08 | 0.03 | 77 | 1012.2 |
| 20260901165717 | 28 | 254 | 0.0 | 0.0 | 0.00 | 0.08 | 0.03 | 77 | 1012.1 |
| 20260901165617 | 28 | 257 | 0.0 | 0.0 | 0.00 | 0.08 | 0.03 | 79 | 1012.2 |
| 20260901165543 | 28 | 276 | 0.0 | 0.0 | 0.00 | 0.08 | 0.03 | 79 | 1012.2 |
| 20260901165521 | 28 | 196 | 0.0 | 0.0 | 0.00 | 0.08 | 0.03 | 79 | 1012.1 |
| 20260901165515 | 28 | 196 | 0.0 | 0.0 | 0.00 | 0.08 | 0.03 | 79 | 1012.2 |
| 20260901165416 | 28 | 196 | 0.0 | 0.0 | 0.00 | 0.08 | 0.03 | 79 | 1012.2 |
| 20260901165343 | 28 | 211 | 0.0 | 0.0 | 0.00 | 0.08 | 0.03 | 82 | 1012.1 |
| 20260901165313 | 28 | 192 | 0.0 | 0.0 | 0.00 | 0.08 | 0.03 | 80 | 1012.2 |
| 20260901165244 | 28 | 213 | 0.0 | 0.0 | 0.00 | 0.08 | 0.03 | 82 | 1012.1 |
| 20260901165239 | 28 | 211 | 0.0 | 0.0 | 0.00 | 0.08 | 0.03 | 81 | 1012.2 |
| 20260901165230 | 28 | 211 | 0.0 | 0.0 | 0.00 | 0.08 | 0.03 | 81 | 1012.1 |
| 20260901165021 | 28 | 213 | 0.0 | 0.0 | 0.00 | 0.08 | 0.03 | 82 | 1011.9 |
| 20260901165008 | 27 | 211 | 0.0 | 0.0 | 0.00 | 0.08 | 0.03 | 82 | 1011.8 |
| 20260901165002 | 28 | 212 | 0.0 | 0.0 | 0.00 | 0.08 | 0.03 | 82 | 1011.9 |
| 20260901164850 | 27 | 212 | 0.0 | 0.0 | 0.00 | 0.08 | 0.03 | 83 | 1011.8 |
| 20260901164844 | 28 | 211 | 0.0 | 0.0 | 0.00 | 0.08 | 0.03 | 82 | 1011.8 |
| 20260901164725 | 27 | 211 | 0.0 | 0.0 | 0.00 | 0.08 | 0.03 | 82 | 1011.7 |
| 20260901164521 | 27 | 213 | 0.0 | 0.0 | 0.00 | 0.08 | 0.03 | 83 | 1011.8 |
| 20260901164410 | 27 | 177 | 0.0 | 0.0 | 0.00 | 0.08 | 0.03 | 84 | 1011.8 |
| 20260901164309 | 27 | 157 | 0.0 | 0.0 | 0.00 | 0.08 | 0.03 | 85 | 1011.8 |
| 20260901164210 | 27 | 157 | 0.0 | 0.0 | 0.00 | 0.08 | 0.03 | 84 | 1011.8 |
| 20260901164109 | 27 | 157 | 0.0 | 0.0 | 0.00 | 0.08 | 0.03 | 85 | 1011.9 |
| 20260901164021 | 27 | 157 | 0.0 | 0.0 | 0.00 | 0.08 | 0.03 | 85 | 1011.9 |
| 20260901164009 | 27 | 157 | 0.0 | 0.0 | 0.00 | 0.08 | 0.03 | 85 | 1011.9 |
| 20260901163909 | 27 | 157 | 0.0 | 0.0 | 0.00 | 0.08 | 0.03 | 85 | 1011.9 |
| 20260901163807 | 26 | 160 | 0.0 | 0.0 | 0.00 | 0.08 | 0.03 | 85 | 1011.9 |
| 20260901163707 | 26 | 160 | 0.0 | 0.0 | 0.00 | 0.08 | 0.03 | 86 | 1011.9 |
| 20260901163607 | 26 | 159 | 0.0 | 0.0 | 0.00 | 0.08 | 0.03 | 86 | 1011.8 |
| 20260901163535 | 26 | 159 | 0.0 | 0.0 | 0.00 | 0.08 | 0.03 | 85 | 1011.7 |
| 20260901163521 | 26 | 159 | 0.0 | 0.0 | 0.00 | 0.08 | 0.03 | 85 | 1011.7 |
| 20260901163516 | 26 | 159 | 0.0 | 0.0 | 0.00 | 0.08 | 0.03 | 85 | 1011.7 |
| 20260901163306 | 26 | 157 | 0.0 | 0.0 | 0.00 | 0.08 | 0.03 | 86 | 1012.1 |
| 20260901163206 | 26 | 155 | 0.0 | 0.0 | 0.00 | 0.08 | 0.03 | 85 | 1012.2 |
| 20260901163105 | 26 | 155 | 0.0 | 0.0 | 0.00 | 0.08 | 0.03 | 86 | 1012.3 |
| 20260901163036 | 26 | 155 | 0.0 | 0.0 | 0.00 | 0.08 | 0.03 | 86 | 1012.4 |
| 20260901163034 | 26 | 155 | 0.0 | 0.0 | 0.00 | 0.08 | 0.03 | 86 | 1012.3 |
| 20260901163005 | 26 | 155 | 0.0 | 0.0 | 0.00 | 0.08 | 0.03 | 86 | 1012.4 |
| 20260901162905 | 26 | 159 | 0.0 | 0.0 | 0.00 | 0.08 | 0.03 | 85 | 1012.3 |
| 20260901162803 | 26 | 159 | 0.0 | 0.0 | 0.00 | 0.08 | 0.03 | 85 | 1012.5 |
| 20260901162717 | 26 | 159 | 0.0 | 0.0 | 0.00 | 0.08 | 0.03 | 84 | 1012.6 |
| 20260901162712 | 26 | 159 | 0.0 | 0.0 | 0.00 | 0.08 | 0.03 | 85 | 1012.5 |
| 20260901162533 | 26 | 159 | 0.0 | 0.0 | 0.00 | 0.08 | 0.03 | 84 | 1012.6 |
| 20260901162521 | 26 | 215 | 0.0 | 0.0 | 0.00 | 0.08 | 0.03 | 84 | 1012.7 |
| 20260901162502 | 26 | 215 | 0.0 | 0.0 | 0.00 | 0.08 | 0.03 | 84 | 1012.7 |
| 20260901162401 | 26 | 215 | 0.0 | 0.0 | 0.00 | 0.08 | 0.03 | 84 | 1012.7 |
| 20260901162301 | 26 | 225 | 0.0 | 0.0 | 0.00 | 0.08 | 0.03 | 84 | 1012.7 |
| 20260901162254 | 27 | 229 | 0.0 | 0.0 | 0.00 | 0.08 | 0.03 | 84 | 1012.8 |
| 20260901162159 | 27 | 229 | 0.0 | 0.0 | 0.00 | 0.08 | 0.03 | 84 | 1012.8 |
| 20260901162141 | 27 | 229 | 0.0 | 0.0 | 0.00 | 0.08 | 0.03 | 84 | 1012.8 |
| 20260901162021 | 27 | 229 | 0.0 | 0.0 | 0.00 | 0.08 | 0.03 | 84 | 1012.9 |
| 20260901161958 | 27 | 229 | 0.0 | 0.0 | 0.00 | 0.08 | 0.03 | 84 | 1012.9 |
| 20260901161911 | 27 | 229 | 0.0 | 0.0 | 0.00 | 0.08 | 0.03 | 84 | 1013.0 |
| 20260901161907 | 27 | 229 | 0.0 | 0.0 | 0.00 | 0.08 | 0.03 | 84 | 1013.0 |
| 20260901161656 | 27 | 229 | 0.0 | 0.0 | 0.00 | 0.08 | 0.03 | 84 | 1013.0 |
| 20260901161556 | 27 | 229 | 0.0 | 0.0 | 0.00 | 0.08 | 0.03 | 84 | 1013.1 |
| 20260901161534 | 27 | 229 | 0.0 | 0.0 | 0.00 | 0.08 | 0.03 | 84 | 1013.1 |
| 20260901161521 | 27 | 229 | 0.0 | 0.0 | 0.00 | 0.08 | 0.03 | 84 | 1013.1 |
| 20260901161507 | 27 | 229 | 0.0 | 0.0 | 0.00 | 0.08 | 0.03 | 84 | 1013.1 |
| 20260901161503 | 27 | 229 | 0.0 | 0.0 | 0.00 | 0.08 | 0.03 | 84 | 1013.1 |
| 20260901161253 | 27 | 229 | 0.0 | 0.0 | 0.00 | 0.08 | 0.03 | 84 | 1013.1 |
| 20260901161153 | 27 | 229 | 0.0 | 0.0 | 0.00 | 0.08 | 0.03 | 84 | 1013.1 |
| 20260901161051 | 27 | 229 | 0.0 | 0.0 | 0.00 | 0.08 | 0.03 | 84 | 1013.1 |
| 20260901161033 | 27 | 229 | 0.0 | 0.0 | 0.00 | 0.08 | 0.03 | 84 | 1013.1 |
| 20260901160952 | 27 | 229 | 0.0 | 0.0 | 0.00 | 0.08 | 0.03 | 84 | 1013.1 |
| 20260901160852 | 27 | 229 | 0.0 | 0.0 | 0.00 | 0.08 | 0.03 | 84 | 1013.1 |
| 20260901160757 | 27 | 229 | 0.0 | 0.0 | 0.00 | 0.08 | 0.03 | 83 | 1013.1 |
| 20260901160752 | 27 | 229 | 0.0 | 0.0 | 0.00 | 0.08 | 0.03 | 84 | 1013.1 |
| 20260901160652 | 27 | 229 | 0.0 | 0.0 | 0.00 | 0.08 | 0.03 | 84 | 1013.1 |
| 20260901160640 | 27 | 229 | 0.0 | 0.0 | 0.00 | 0.08 | 0.03 | 83 | 1013.1 |
| 20260901160522 | 27 | 229 | 0.0 | 0.0 | 0.00 | 0.08 | 0.03 | 83 | 1013.1 |
| 20260901160451 | 27 | 229 | 0.0 | 0.0 | 0.00 | 0.08 | 0.03 | 83 | 1013.1 |
| 20260901160351 | 27 | 229 | 0.0 | 0.0 | 0.00 | 0.08 | 0.03 | 83 | 1013.0 |
| 20260901160250 | 27 | 229 | 0.0 | 0.0 | 0.00 | 0.08 | 0.03 | 82 | 1012.9 |
| 20260901160149 | 27 | 229 | 0.0 | 0.0 | 0.00 | 0.08 | 0.03 | 82 | 1012.9 |
| 20260901160030 | 27 | 229 | 0.0 | 0.0 | 0.00 | 0.08 | 0.03 | 82 | 1012.9 |
| 20260901160021 | 27 | 229 | 0.0 | 0.0 | 0.00 | 0.08 | 0.03 | 82 | 1013.0 |
| 20260901155948 | 27 | 229 | 0.0 | 0.0 | 0.00 | 0.08 | 0.03 | 83 | 1013.0 |
| 20260901155847 | 27 | 229 | 0.0 | 0.0 | 0.00 | 0.08 | 0.03 | 83 | 1012.9 |
| 20260901155746 | 27 | 229 | 0.0 | 0.0 | 0.00 | 0.08 | 0.03 | 83 | 1012.8 |
| 20260901155646 | 27 | 229 | 0.0 | 0.0 | 0.00 | 0.08 | 0.03 | 83 | 1012.8 |
| 20260901155545 | 27 | 229 | 0.0 | 0.0 | 0.00 | 0.08 | 0.03 | 84 | 1012.7 |
| 20260901155528 | 27 | 229 | 0.0 | 0.0 | 0.00 | 0.08 | 0.03 | 83 | 1012.7 |
| 20260901155522 | 27 | 229 | 0.0 | 0.0 | 0.00 | 0.08 | 0.03 | 83 | 1012.6 |
| 20260901155458 | 27 | 229 | 0.0 | 0.0 | 0.00 | 0.08 | 0.03 | 83 | 1012.3 |
| 20260901155454 | 27 | 229 | 0.0 | 0.0 | 0.00 | 0.08 | 0.03 | 83 | 1012.6 |
| 20260901155243 | 27 | 229 | 0.0 | 0.0 | 0.00 | 0.08 | 0.03 | 82 | 1012.5 |
| 20260901155144 | 27 | 229 | 0.0 | 0.0 | 0.00 | 0.08 | 0.03 | 83 | 1012.5 |
| 20260901155043 | 27 | 229 | 0.0 | 0.0 | 0.00 | 0.08 | 0.03 | 83 | 1012.4 |
| 20260901155030 | 27 | 229 | 0.0 | 0.0 | 0.00 | 0.08 | 0.03 | 84 | 1012.4 |
| 20260901155021 | 27 | 231 | 0.0 | 0.0 | 0.00 | 0.08 | 0.03 | 84 | 1012.5 |
| 20260901154943 | 27 | 231 | 0.0 | 0.0 | 0.00 | 0.08 | 0.03 | 84 | 1012.5 |
| 20260901154842 | 27 | 231 | 0.0 | 0.0 | 0.00 | 0.08 | 0.03 | 83 | 1012.4 |
| 20260901154741 | 26 | 231 | 0.0 | 0.0 | 0.00 | 0.08 | 0.03 | 83 | 1012.7 |
| 20260901154640 | 26 | 231 | 0.0 | 0.0 | 0.00 | 0.08 | 0.03 | 84 | 1012.8 |
| 20260901154527 | 26 | 231 | 0.0 | 0.0 | 0.00 | 0.08 | 0.03 | 84 | 1012.8 |
| 20260901154521 | 26 | 231 | 0.0 | 0.0 | 0.00 | 0.08 | 0.03 | 84 | 1012.8 |
| 20260901154440 | 26 | 231 | 0.0 | 0.0 | 0.00 | 0.08 | 0.03 | 84 | 1012.8 |
| 20260901154339 | 26 | 231 | 0.0 | 0.0 | 0.00 | 0.08 | 0.03 | 84 | 1012.9 |
| 20260901154251 | 26 | 231 | 0.0 | 0.0 | 0.00 | 0.08 | 0.03 | 84 | 1013.0 |
| 20260901154239 | 26 | 231 | 0.0 | 0.0 | 0.00 | 0.08 | 0.03 | 84 | 1012.9 |
| 20260901154143 | 26 | 231 | 0.0 | 0.0 | 0.00 | 0.08 | 0.03 | 84 | 1012.9 |
| 20260901154134 | 26 | 231 | 0.0 | 0.0 | 0.00 | 0.08 | 0.03 | 84 | 1013.0 |
| 20260901154021 | 26 | 231 | 0.0 | 0.0 | 0.00 | 0.08 | 0.03 | 84 | 1013.0 |
| 20260901154008 | 26 | 231 | 0.0 | 0.0 | 0.00 | 0.08 | 0.03 | 83 | 1013.0 |
| 20260901154004 | 26 | 231 | 0.0 | 0.0 | 0.00 | 0.08 | 0.03 | 84 | 1013.0 |
| 20260901154000 | 26 | 231 | 0.0 | 0.0 | 0.00 | 0.08 | 0.03 | 84 | 1013.0 |
| 20260901153955 | 26 | 231 | 0.0 | 0.0 | 0.00 | 0.08 | 0.03 | 84 | 1013.0 |
| 20260901153642 | 26 | 231 | 0.0 | 0.0 | 0.00 | 0.08 | 0.03 | 84 | 1012.9 |
| 20260901153633 | 26 | 231 | 0.0 | 0.0 | 0.00 | 0.08 | 0.03 | 84 | 1013.0 |
| 20260901153521 | 26 | 231 | 0.0 | 0.0 | 0.00 | 0.08 | 0.03 | 84 | 1013.0 |
| 20260901153436 | 26 | 231 | 0.0 | 0.0 | 0.00 | 0.08 | 0.03 | 84 | 1013.0 |
| 20260901153334 | 26 | 231 | 0.0 | 0.0 | 0.00 | 0.08 | 0.03 | 84 | 1013.0 |
| 20260901153247 | 26 | 231 | 0.0 | 0.0 | 0.00 | 0.08 | 0.03 | 84 | 1013.0 |
| 20260901153243 | 26 | 231 | 0.0 | 0.0 | 0.00 | 0.08 | 0.03 | 84 | 1013.0 |
| 20260901153051 | 26 | 227 | 0.0 | 0.0 | 0.00 | 0.08 | 0.03 | 85 | 1013.1 |
| 20260901153039 | 26 | 227 | 0.0 | 0.0 | 0.00 | 0.08 | 0.03 | 84 | 1013.0 |
| 20260901153021 | 26 | 227 | 0.0 | 0.0 | 0.00 | 0.08 | 0.03 | 84 | 1013.1 |
| 20260901152843 | 26 | 227 | 0.0 | 0.0 | 0.00 | 0.08 | 0.03 | 84 | 1013.1 |
| 20260901152838 | 26 | 227 | 0.0 | 0.0 | 0.00 | 0.08 | 0.03 | 85 | 1013.1 |
| 20260901152629 | 26 | 227 | 0.0 | 0.0 | 0.00 | 0.08 | 0.03 | 84 | 1013.1 |
| 20260901152600 | 26 | 209 | 0.0 | 0.0 | 0.00 | 0.08 | 0.03 | 85 | 1013.1 |
| 20260901152556 | 26 | 209 | 0.0 | 0.0 | 0.00 | 0.08 | 0.03 | 85 | 1013.0 |
| 20260901152544 | 26 | 227 | 0.0 | 0.0 | 0.00 | 0.08 | 0.03 | 85 | 1013.1 |
| 20260901152521 | 26 | 211 | 0.0 | 0.0 | 0.00 | 0.08 | 0.03 | 85 | 1013.1 |
| 20260901152227 | 26 | 209 | 0.0 | 0.0 | 0.00 | 0.08 | 0.03 | 85 | 1013.0 |
| 20260901152127 | 26 | 209 | 0.0 | 0.0 | 0.00 | 0.08 | 0.03 | 84 | 1013.1 |
| 20260901152022 | 26 | 209 | 0.0 | 0.0 | 0.00 | 0.08 | 0.03 | 84 | 1013.1 |
| 20260901151926 | 26 | 209 | 0.0 | 0.0 | 0.00 | 0.08 | 0.03 | 84 | 1013.0 |
| 20260901151825 | 26 | 209 | 0.0 | 0.0 | 0.00 | 0.08 | 0.03 | 84 | 1013.1 |
| 20260901151725 | 26 | 209 | 0.0 | 0.0 | 0.00 | 0.08 | 0.03 | 84 | 1013.0 |
| 20260901151644 | 26 | 209 | 0.0 | 0.0 | 0.00 | 0.08 | 0.03 | 85 | 1013.1 |
| 20260901151638 | 26 | 209 | 0.0 | 0.0 | 0.00 | 0.08 | 0.03 | 85 | 1013.1 |
| 20260901151525 | 26 | 209 | 0.0 | 0.0 | 0.00 | 0.08 | 0.03 | 85 | 1013.1 |
| 20260901151521 | 26 | 209 | 0.0 | 0.0 | 0.00 | 0.08 | 0.03 | 85 | 1013.1 |
| 20260901151437 | 26 | 209 | 0.0 | 0.0 | 0.00 | 0.08 | 0.03 | 85 | 1013.1 |
| 20260901151433 | 26 | 209 | 0.0 | 0.0 | 0.00 | 0.08 | 0.03 | 85 | 1013.1 |
| 20260901151317 | 26 | 209 | 0.0 | 0.0 | 0.00 | 0.08 | 0.03 | 85 | 1013.0 |
| 20260901151311 | 26 | 209 | 0.0 | 0.0 | 0.00 | 0.08 | 0.03 | 85 | 1013.1 |
| 20260901151049 | 26 | 209 | 0.0 | 0.0 | 0.00 | 0.08 | 0.03 | 86 | 1013.0 |
| 20260901151044 | 26 | 209 | 0.0 | 0.0 | 0.00 | 0.08 | 0.03 | 85 | 1013.0 |
| 20260901151038 | 26 | 209 | 0.0 | 0.0 | 0.00 | 0.08 | 0.03 | 86 | 1013.0 |
| 20260901151021 | 26 | 209 | 0.0 | 0.0 | 0.00 | 0.08 | 0.03 | 86 | 1013.0 |
| 20260901150733 | 26 | 209 | 0.0 | 0.0 | 0.00 | 0.08 | 0.03 | 86 | 1013.0 |
| 20260901150728 | 26 | 209 | 0.0 | 0.0 | 0.00 | 0.08 | 0.03 | 86 | 1013.0 |
| 20260901150521 | 26 | 209 | 0.0 | 0.0 | 0.00 | 0.08 | 0.03 | 86 | 1013.1 |
| 20260901150519 | 26 | 209 | 0.0 | 0.0 | 0.00 | 0.08 | 0.03 | 86 | 1013.1 |
| 20260901150418 | 26 | 209 | 0.0 | 0.0 | 0.00 | 0.08 | 0.03 | 86 | 1013.1 |
| 20260901150318 | 26 | 209 | 0.0 | 0.0 | 0.00 | 0.08 | 0.03 | 85 | 1013.1 |
| 20260901150217 | 26 | 209 | 0.0 | 0.0 | 0.00 | 0.08 | 0.03 | 85 | 1013.1 |
| 20260901150145 | 26 | 209 | 0.0 | 0.0 | 0.00 | 0.08 | 0.03 | 85 | 1013.1 |
| 20260901150026 | 26 | 209 | 0.0 | 0.0 | 0.00 | 0.08 | 0.03 | 85 | 1013.1 |
| 20260901150022 | 26 | 209 | 0.0 | 0.0 | 0.00 | 0.08 | 0.03 | 85 | 1013.1 |
| 20260901145837 | 26 | 209 | 0.0 | 0.0 | 0.00 | 0.08 | 0.03 | 85 | 1013.1 |
| 20260901145723 | 26 | 209 | 0.0 | 0.0 | 0.00 | 0.08 | 0.03 | 85 | 1013.1 |
| 20260901145536 | 26 | 209 | 0.0 | 0.0 | 0.00 | 0.08 | 0.03 | 85 | 1013.1 |
| 20260901145514 | 26 | 209 | 0.0 | 0.0 | 0.00 | 0.08 | 0.03 | 85 | 1013.1 |
| 20260901145413 | 26 | 209 | 0.0 | 0.0 | 0.00 | 0.08 | 0.03 | 86 | 1013.1 |
| 20260901145313 | 26 | 209 | 0.0 | 0.0 | 0.00 | 0.08 | 0.03 | 86 | 1013.1 |
| 20260901145213 | 26 | 209 | 0.0 | 0.0 | 0.00 | 0.08 | 0.03 | 86 | 1013.1 |
| 20260901145112 | 26 | 209 | 0.0 | 0.0 | 0.00 | 0.08 | 0.03 | 86 | 1013.0 |
| 20260901145021 | 26 | 209 | 0.0 | 0.0 | 0.00 | 0.08 | 0.03 | 86 | 1013.0 |
| 20260901145017 | 26 | 209 | 0.0 | 0.0 | 0.00 | 0.08 | 0.03 | 86 | 1013.0 |
| 20260901145012 | 26 | 209 | 0.0 | 0.0 | 0.00 | 0.08 | 0.03 | 86 | 1013.0 |
| 20260901144924 | 26 | 209 | 0.0 | 0.0 | 0.00 | 0.08 | 0.03 | 87 | 1012.9 |
| 20260901144920 | 26 | 209 | 0.0 | 0.0 | 0.00 | 0.08 | 0.03 | 86 | 1013.0 |
| 20260901144710 | 26 | 211 | 0.0 | 0.0 | 0.00 | 0.08 | 0.03 | 87 | 1012.9 |
| 20260901144609 | 26 | 211 | 0.0 | 0.0 | 0.00 | 0.08 | 0.03 | 87 | 1012.8 |
| 20260901144521 | 26 | 211 | 0.0 | 0.0 | 0.00 | 0.08 | 0.03 | 87 | 1011.9 |
| 20260901144508 | 26 | 211 | 0.0 | 0.0 | 0.00 | 0.08 | 0.03 | 87 | 1012.6 |
| 20260901144408 | 26 | 211 | 0.0 | 0.0 | 0.00 | 0.08 | 0.03 | 87 | 1011.9 |
| 20260901144308 | 26 | 211 | 0.0 | 0.0 | 0.00 | 0.08 | 0.03 | 87 | 1011.8 |
| 20260901144220 | 25 | 213 | 0.0 | 0.0 | 0.00 | 0.08 | 0.03 | 88 | 1012.6 |
| 20260901144216 | 26 | 212 | 0.0 | 0.0 | 0.00 | 0.08 | 0.03 | 87 | 1012.2 |
| 20260901144021 | 26 | 212 | 0.0 | 0.0 | 0.00 | 0.08 | 0.03 | 88 | 1012.6 |
| 20260901144014 | 25 | 213 | 0.0 | 0.0 | 0.00 | 0.08 | 0.03 | 88 | 1012.6 |
| 20260901144006 | 25 | 212 | 0.0 | 0.0 | 0.00 | 0.08 | 0.03 | 88 | 1012.6 |
| 20260901143906 | 25 | 213 | 0.0 | 0.0 | 0.00 | 0.08 | 0.03 | 88 | 1012.6 |
| 20260901143805 | 25 | 212 | 0.0 | 0.0 | 0.00 | 0.08 | 0.03 | 88 | 1012.7 |
| 20260901143705 | 25 | 213 | 0.0 | 0.0 | 0.00 | 0.08 | 0.03 | 88 | 1012.8 |
| 20260901143605 | 25 | 213 | 0.0 | 0.0 | 0.00 | 0.08 | 0.03 | 88 | 1012.7 |
| 20260901143521 | 25 | 212 | 0.0 | 0.0 | 0.00 | 0.08 | 0.03 | 88 | 1012.4 |
| 20260901143512 | 25 | 213 | 0.0 | 0.0 | 0.00 | 0.08 | 0.03 | 88 | 1012.7 |
| 20260901143504 | 25 | 212 | 0.0 | 0.0 | 0.00 | 0.08 | 0.03 | 88 | 1012.4 |
| 20260901143408 | 25 | 212 | 0.0 | 0.0 | 0.00 | 0.08 | 0.03 | 88 | 1012.2 |
| 20260901143404 | 25 | 212 | 0.0 | 0.0 | 0.00 | 0.08 | 0.03 | 88 | 1012.4 |
| 20260901143357 | 25 | 222 | 0.0 | 0.0 | 0.00 | 0.08 | 0.03 | 88 | 1012.2 |
| 20260901143351 | 25 | 213 | 0.0 | 0.0 | 0.00 | 0.08 | 0.03 | 88 | 1012.1 |
| 20260901143051 | 25 | 227 | 0.0 | 0.0 | 0.00 | 0.08 | 0.03 | 88 | 1012.5 |
| 20260901143017 | 25 | 227 | 0.0 | 0.0 | 0.00 | 0.08 | 0.03 | 88 | 1012.2 |
| 20260901143011 | 25 | 227 | 0.0 | 0.0 | 0.00 | 0.08 | 0.03 | 88 | 1012.5 |
| 20260901142801 | 25 | 227 | 0.0 | 0.0 | 0.00 | 0.08 | 0.03 | 88 | 1012.6 |
| 20260901142700 | 25 | 227 | 0.0 | 0.0 | 0.00 | 0.08 | 0.03 | 89 | 1012.6 |
| 20260901142600 | 25 | 227 | 0.0 | 0.0 | 0.00 | 0.08 | 0.03 | 89 | 1012.6 |
| 20260901142521 | 25 | 227 | 0.0 | 0.0 | 0.00 | 0.08 | 0.03 | 89 | 1012.8 |
| 20260901142508 | 25 | 227 | 0.0 | 0.0 | 0.00 | 0.08 | 0.03 | 89 | 1012.6 |
| 20260901142500 | 25 | 227 | 0.0 | 0.0 | 0.00 | 0.08 | 0.03 | 89 | 1012.8 |
| 20260901142359 | 25 | 227 | 0.0 | 0.0 | 0.00 | 0.08 | 0.03 | 89 | 1012.9 |
| 20260901142259 | 25 | 227 | 0.0 | 0.0 | 0.00 | 0.08 | 0.03 | 89 | 1013.0 |
| 20260901142158 | 25 | 227 | 0.0 | 0.0 | 0.00 | 0.08 | 0.03 | 89 | 1013.0 |
| 20260901142057 | 25 | 227 | 0.0 | 0.0 | 0.00 | 0.08 | 0.03 | 90 | 1013.0 |
| 20260901142036 | 25 | 227 | 0.0 | 0.0 | 0.00 | 0.08 | 0.03 | 90 | 1013.0 |
| 20260901142008 | 25 | 227 | 0.0 | 0.0 | 0.00 | 0.08 | 0.03 | 90 | 1013.0 |
| 20260901141958 | 25 | 227 | 0.0 | 0.0 | 0.00 | 0.08 | 0.03 | 90 | 1013.0 |
| 20260901141910 | 25 | 227 | 0.0 | 0.0 | 0.00 | 0.08 | 0.03 | 89 | 1013.0 |
| 20260901141906 | 25 | 227 | 0.0 | 0.0 | 0.00 | 0.08 | 0.03 | 90 | 1013.0 |
| 20260901141656 | 25 | 227 | 0.0 | 0.0 | 0.00 | 0.08 | 0.03 | 89 | 1013.1 |
| 20260901141555 | 25 | 227 | 0.0 | 0.0 | 0.00 | 0.08 | 0.03 | 90 | 1013.0 |
| 20260901141521 | 25 | 227 | 0.0 | 0.0 | 0.00 | 0.08 | 0.03 | 90 | 1013.0 |
| 20260901141508 | 25 | 227 | 0.0 | 0.0 | 0.00 | 0.08 | 0.03 | 90 | 1013.0 |
| 20260901141454 | 25 | 227 | 0.0 | 0.0 | 0.00 | 0.08 | 0.03 | 90 | 1013.0 |
| 20260901141354 | 25 | 227 | 0.0 | 0.0 | 0.00 | 0.08 | 0.03 | 90 | 1013.1 |
| 20260901141254 | 25 | 227 | 0.0 | 0.0 | 0.00 | 0.08 | 0.03 | 90 | 1013.1 |
| 20260901141153 | 25 | 227 | 0.0 | 0.0 | 0.00 | 0.08 | 0.03 | 91 | 1013.1 |
| 20260901141053 | 25 | 227 | 0.0 | 0.0 | 0.00 | 0.08 | 0.03 | 91 | 1013.0 |
| 20260901141021 | 25 | 227 | 0.0 | 0.0 | 0.00 | 0.08 | 0.03 | 91 | 1013.0 |
| 20260901141006 | 25 | 227 | 0.0 | 0.0 | 0.00 | 0.08 | 0.03 | 91 | 1013.0 |
| 20260901140952 | 25 | 227 | 0.0 | 0.0 | 0.00 | 0.08 | 0.03 | 91 | 1013.0 |
| 20260901140851 | 25 | 227 | 0.0 | 0.0 | 0.00 | 0.08 | 0.03 | 92 | 1013.0 |
| 20260901140836 | 25 | 226 | 0.0 | 0.0 | 0.00 | 0.08 | 0.03 | 92 | 1012.9 |
| 20260901140651 | 25 | 226 | 0.0 | 0.0 | 0.00 | 0.08 | 0.03 | 92 | 1012.8 |
| 20260901140615 | 25 | 226 | 0.0 | 0.0 | 0.00 | 0.08 | 0.03 | 92 | 1012.8 |
| 20260901140521 | 25 | 226 | 0.0 | 0.0 | 0.00 | 0.08 | 0.03 | 92 | 1012.8 |
| 20260901140450 | 25 | 226 | 0.0 | 0.0 | 0.00 | 0.08 | 0.03 | 92 | 1012.8 |
| 20260901140350 | 25 | 226 | 0.0 | 0.0 | 0.00 | 0.08 | 0.03 | 92 | 1012.8 |
| 20260901140322 | 25 | 223 | 0.0 | 0.0 | 0.00 | 0.08 | 0.03 | 94 | 1012.8 |
| 20260901140248 | 25 | 226 | 0.0 | 0.0 | 0.00 | 0.08 | 0.03 | 93 | 1012.8 |
| 20260901140229 | 25 | 223 | 0.0 | 0.0 | 0.00 | 0.08 | 0.03 | 94 | 1012.8 |
| 20260901140225 | 24 | 250 | 0.0 | 0.0 | 0.00 | 0.08 | 0.03 | 94 | 1012.7 |
| 20260901140219 | 25 | 223 | 0.0 | 0.0 | 0.00 | 0.08 | 0.03 | 93 | 1012.6 |
| 20260901140210 | 25 | 223 | 0.0 | 0.0 | 0.00 | 0.08 | 0.03 | 93 | 1012.7 |
| 20260901140021 | 25 | 223 | 0.0 | 0.0 | 0.00 | 0.08 | 0.03 | 94 | 1012.9 |
| 20260901135747 | 24 | 250 | 0.0 | 0.0 | 0.00 | 0.08 | 0.03 | 94 | 1010.6 |
| 20260901135646 | 24 | 250 | 0.0 | 0.0 | 0.00 | 0.08 | 0.03 | 94 | 1010.6 |
| 20260901135545 | 24 | 249 | 0.0 | 0.0 | 0.00 | 0.08 | 0.03 | 95 | 1010.8 |
| 20260901135521 | 24 | 249 | 0.0 | 0.0 | 0.00 | 0.08 | 0.03 | 95 | 1011.7 |
| 20260901135505 | 24 | 249 | 0.0 | 0.0 | 0.00 | 0.08 | 0.03 | 95 | 1011.8 |
| 20260901135445 | 24 | 249 | 0.0 | 0.0 | 0.00 | 0.08 | 0.03 | 95 | 1011.7 |
| 20260901135344 | 24 | 249 | 0.0 | 0.0 | 0.00 | 0.08 | 0.03 | 95 | 1011.7 |
| 20260901135310 | 24 | 260 | 0.0 | 0.0 | 0.00 | 0.08 | 0.03 | 95 | 1011.0 |
| 20260901135306 | 24 | 260 | 0.0 | 0.0 | 0.00 | 0.08 | 0.03 | 95 | 1010.9 |
| 20260901135021 | 24 | 260 | 0.0 | 0.0 | 0.00 | 0.08 | 0.03 | 95 | 1012.4 |
| 20260901135005 | 24 | 260 | 0.0 | 0.0 | 0.00 | 0.08 | 0.03 | 95 | 1012.4 |
| 20260901134955 | 24 | 260 | 0.0 | 0.0 | 0.00 | 0.08 | 0.03 | 95 | 1012.4 |
| 20260901134951 | 24 | 260 | 0.0 | 0.0 | 0.00 | 0.08 | 0.03 | 95 | 1012.4 |
| 20260901134753 | 24 | 260 | 0.0 | 0.0 | 0.00 | 0.08 | 0.03 | 95 | 1012.7 |
| 20260901134749 | 24 | 260 | 0.0 | 0.0 | 0.00 | 0.08 | 0.03 | 95 | 1012.5 |
| 20260901134538 | 23 | 255 | 0.0 | 0.0 | 0.00 | 0.08 | 0.03 | 95 | 1012.8 |
| 20260901134521 | 23 | 255 | 0.0 | 0.0 | 0.00 | 0.08 | 0.03 | 95 | 1013.0 |
| 20260901134511 | 23 | 257 | 0.0 | 0.0 | 0.00 | 0.08 | 0.03 | 95 | 1013.0 |
| 20260901134507 | 23 | 255 | 0.0 | 0.0 | 0.00 | 0.08 | 0.03 | 95 | 1013.0 |
| 20260901134502 | 23 | 257 | 0.0 | 0.0 | 0.00 | 0.08 | 0.03 | 95 | 1013.0 |
| 20260901134456 | 23 | 255 | 0.0 | 0.0 | 0.00 | 0.08 | 0.03 | 95 | 1013.0 |
| 20260901134137 | 23 | 257 | 0.0 | 0.0 | 0.00 | 0.08 | 0.03 | 95 | 1013.0 |
| 20260901134057 | 23 | 257 | 0.0 | 0.0 | 0.00 | 0.08 | 0.03 | 95 | 1013.1 |
| 20260901134052 | 23 | 257 | 0.0 | 0.0 | 0.00 | 0.08 | 0.03 | 95 | 1013.2 |
| 20260901134044 | 23 | 257 | 0.0 | 0.0 | 0.00 | 0.08 | 0.03 | 95 | 1013.1 |
| 20260901134021 | 23 | 257 | 0.0 | 0.0 | 0.00 | 0.08 | 0.03 | 95 | 1013.1 |
| 20260901133843 | 23 | 256 | 0.0 | 0.0 | 0.00 | 0.08 | 0.03 | 96 | 1013.1 |
| 20260901133834 | 23 | 256 | 0.0 | 0.0 | 0.00 | 0.08 | 0.03 | 96 | 1013.0 |
| 20260901133635 | 23 | 255 | 0.0 | 0.0 | 0.00 | 0.08 | 0.03 | 96 | 1012.7 |
| 20260901133612 | 23 | 261 | 0.0 | 0.0 | 0.00 | 0.08 | 0.03 | 96 | 1012.6 |
| 20260901133536 | 23 | 261 | 0.0 | 0.0 | 0.00 | 0.08 | 0.03 | 96 | 1012.4 |
| 20260901133432 | 23 | 261 | 0.0 | 0.0 | 0.00 | 0.08 | 0.03 | 96 | 1012.4 |
| 20260901133344 | 23 | 261 | 0.0 | 0.0 | 0.00 | 0.08 | 0.03 | 96 | 1012.4 |
| 20260901133231 | 23 | 261 | 0.0 | 0.0 | 0.00 | 0.08 | 0.03 | 96 | 1012.8 |
| 20260901133131 | 23 | 261 | 0.0 | 0.0 | 0.00 | 0.08 | 0.03 | 96 | 1012.9 |
| 20260901133111 | 23 | 261 | 0.0 | 0.0 | 0.00 | 0.08 | 0.03 | 96 | 1013.0 |
| 20260901133021 | 23 | 261 | 0.0 | 0.0 | 0.00 | 0.08 | 0.03 | 96 | 1013.1 |
| 20260901132930 | 23 | 261 | 0.0 | 0.0 | 0.00 | 0.08 | 0.03 | 96 | 1013.1 |
| 20260901132830 | 23 | 261 | 0.0 | 0.0 | 0.00 | 0.08 | 0.03 | 96 | 1013.1 |
| 20260901132729 | 23 | 261 | 0.0 | 0.0 | 0.00 | 0.08 | 0.03 | 96 | 1013.2 |
| 20260901132628 | 23 | 261 | 0.0 | 0.0 | 0.00 | 0.08 | 0.03 | 96 | 1013.1 |
| 20260901132527 | 23 | 261 | 0.0 | 0.0 | 0.00 | 0.08 | 0.03 | 96 | 1013.1 |
| 20260901132521 | 23 | 261 | 0.0 | 0.0 | 0.00 | 0.08 | 0.03 | 96 | 1013.2 |
| 20260901132503 | 23 | 261 | 0.0 | 0.0 | 0.00 | 0.08 | 0.03 | 96 | 1013.2 |
| 20260901132427 | 23 | 261 | 0.0 | 0.0 | 0.00 | 0.08 | 0.03 | 96 | 1013.2 |
| 20260901132327 | 23 | 261 | 0.0 | 0.0 | 0.00 | 0.08 | 0.03 | 96 | 1013.3 |
| 20260901132226 | 23 | 261 | 0.0 | 0.0 | 0.00 | 0.08 | 0.03 | 96 | 1013.2 |
| 20260901132126 | 23 | 261 | 0.0 | 0.0 | 0.00 | 0.08 | 0.03 | 96 | 1013.2 |
| 20260901132021 | 23 | 261 | 0.0 | 0.0 | 0.00 | 0.08 | 0.03 | 96 | 1013.2 |
| 20260901132002 | 23 | 261 | 0.0 | 0.0 | 0.00 | 0.08 | 0.03 | 96 | 1013.2 |
| 20260901131925 | 23 | 261 | 0.0 | 0.0 | 0.00 | 0.08 | 0.03 | 96 | 1013.2 |
| 20260901131823 | 23 | 261 | 0.0 | 0.0 | 0.00 | 0.08 | 0.03 | 96 | 1013.1 |
| 20260901131723 | 23 | 261 | 0.0 | 0.0 | 0.00 | 0.08 | 0.03 | 96 | 1013.2 |
| 20260901131623 | 23 | 261 | 0.0 | 0.0 | 0.00 | 0.08 | 0.03 | 97 | 1013.2 |
| 20260901131521 | 23 | 261 | 0.0 | 0.0 | 0.00 | 0.08 | 0.03 | 97 | 1013.3 |
| 20260901131503 | 23 | 261 | 0.0 | 0.0 | 0.00 | 0.08 | 0.03 | 97 | 1013.3 |
| 20260901131436 | 23 | 261 | 0.0 | 0.0 | 0.00 | 0.08 | 0.03 | 97 | 1013.2 |
| 20260901131430 | 23 | 261 | 0.0 | 0.0 | 0.00 | 0.08 | 0.03 | 97 | 1013.3 |
| 20260901131242 | 23 | 261 | 0.0 | 0.0 | 0.00 | 0.08 | 0.03 | 97 | 1013.2 |
| 20260901131129 | 23 | 261 | 0.0 | 0.0 | 0.00 | 0.08 | 0.03 | 97 | 1013.2 |
| 20260901131021 | 23 | 261 | 0.0 | 0.0 | 0.00 | 0.08 | 0.03 | 97 | 1013.2 |
| 20260901131001 | 23 | 261 | 0.0 | 0.0 | 0.00 | 0.08 | 0.03 | 97 | 1013.2 |
| 20260901130919 | 23 | 261 | 0.0 | 0.0 | 0.00 | 0.08 | 0.03 | 97 | 1013.2 |
| 20260901130817 | 23 | 261 | 0.0 | 0.0 | 0.00 | 0.08 | 0.03 | 97 | 1013.2 |
| 20260901130716 | 23 | 261 | 0.0 | 0.0 | 0.00 | 0.08 | 0.03 | 97 | 1013.1 |
| 20260901130615 | 23 | 261 | 0.0 | 0.0 | 0.00 | 0.08 | 0.03 | 97 | 1013.0 |
| 20260901130521 | 23 | 261 | 0.0 | 0.0 | 0.00 | 0.08 | 0.03 | 97 | 1013.1 |
| 20260901130515 | 23 | 261 | 0.0 | 0.0 | 0.00 | 0.08 | 0.03 | 97 | 1013.0 |
| 20260901130502 | 23 | 261 | 0.0 | 0.0 | 0.00 | 0.08 | 0.03 | 97 | 1013.1 |
| 20260901130429 | 23 | 261 | 0.0 | 0.0 | 0.00 | 0.08 | 0.03 | 97 | 1013.1 |
| 20260901130423 | 23 | 261 | 0.0 | 0.0 | 0.00 | 0.08 | 0.03 | 97 | 1013.1 |
| 20260901130234 | 23 | 261 | 0.0 | 0.0 | 0.00 | 0.08 | 0.03 | 97 | 1013.2 |
| 20260901130230 | 23 | 261 | 0.0 | 0.0 | 0.00 | 0.08 | 0.03 | 97 | 1013.3 |
| 20260901130224 | 23 | 261 | 0.0 | 0.0 | 0.00 | 0.08 | 0.03 | 97 | 1013.2 |
| 20260901130106 | 23 | 261 | 0.0 | 0.0 | 0.00 | 0.08 | 0.03 | 97 | 1013.3 |
| 20260901130021 | 23 | 261 | 0.0 | 0.0 | 0.00 | 0.08 | 0.03 | 97 | 1013.3 |
| 20260901125913 | 23 | 261 | 0.0 | 0.0 | 0.00 | 0.08 | 0.03 | 97 | 1013.3 |
| 20260901125825 | 23 | 261 | 0.0 | 0.0 | 0.00 | 0.08 | 0.03 | 97 | 1013.4 |
| 20260901125820 | 23 | 261 | 0.0 | 0.0 | 0.00 | 0.08 | 0.03 | 97 | 1013.4 |
| 20260901125610 | 23 | 261 | 0.0 | 0.0 | 0.00 | 0.08 | 0.03 | 97 | 1013.4 |
| 20260901125521 | 23 | 261 | 0.0 | 0.0 | 0.00 | 0.08 | 0.03 | 97 | 1013.4 |
| 20260901125509 | 23 | 261 | 0.0 | 0.0 | 0.00 | 0.08 | 0.03 | 97 | 1013.4 |
| 20260901125459 | 23 | 261 | 0.0 | 0.0 | 0.00 | 0.08 | 0.03 | 97 | 1013.4 |
| 20260901125408 | 23 | 261 | 0.0 | 0.0 | 0.00 | 0.08 | 0.03 | 97 | 1013.4 |
| 20260901125309 | 23 | 261 | 0.0 | 0.0 | 0.00 | 0.08 | 0.03 | 97 | 1013.4 |
| 20260901125208 | 23 | 261 | 0.0 | 0.0 | 0.00 | 0.08 | 0.03 | 97 | 1013.5 |
| 20260901125107 | 23 | 261 | 0.0 | 0.0 | 0.00 | 0.08 | 0.03 | 97 | 1013.4 |
| 20260901125021 | 23 | 261 | 0.0 | 0.0 | 0.00 | 0.08 | 0.03 | 97 | 1013.5 |
| 20260901125008 | 23 | 261 | 0.0 | 0.0 | 0.00 | 0.08 | 0.03 | 97 | 1013.5 |
| 20260901125001 | 23 | 261 | 0.0 | 0.0 | 0.00 | 0.08 | 0.03 | 97 | 1013.4 |
| 20260901124957 | 23 | 261 | 0.0 | 0.0 | 0.00 | 0.08 | 0.03 | 97 | 1013.5 |
| 20260901124951 | 23 | 261 | 0.0 | 0.0 | 0.00 | 0.08 | 0.03 | 97 | 1013.4 |
| 20260901124944 | 23 | 261 | 0.0 | 0.0 | 0.00 | 0.08 | 0.03 | 97 | 1013.5 |
| 20260901124605 | 23 | 261 | 0.0 | 0.0 | 0.00 | 0.08 | 0.03 | 97 | 1013.3 |
| 20260901124524 | 23 | 261 | 0.0 | 0.0 | 0.00 | 0.08 | 0.03 | 97 | 1013.3 |
| 20260901124522 | 23 | 261 | 0.0 | 0.0 | 0.00 | 0.08 | 0.03 | 97 | 1013.3 |
| 20260901124519 | 23 | 261 | 0.0 | 0.0 | 0.00 | 0.08 | 0.03 | 97 | 1013.3 |
| 20260901124512 | 23 | 261 | 0.0 | 0.0 | 0.00 | 0.08 | 0.03 | 97 | 1013.3 |
| 20260901124304 | 23 | 261 | 0.0 | 0.0 | 0.00 | 0.08 | 0.03 | 97 | 1013.3 |
| 20260901124209 | 23 | 261 | 0.0 | 0.0 | 0.00 | 0.08 | 0.03 | 97 | 1013.2 |
| 20260901124205 | 23 | 261 | 0.0 | 0.0 | 0.00 | 0.08 | 0.03 | 97 | 1013.3 |
| 20260901124158 | 23 | 261 | 0.0 | 0.0 | 0.00 | 0.08 | 0.03 | 97 | 1013.1 |
| 20260901124151 | 23 | 261 | 0.0 | 0.0 | 0.00 | 0.08 | 0.03 | 97 | 1013.2 |
| 20260901124051 | 23 | 261 | 0.0 | 0.0 | 0.00 | 0.08 | 0.03 | 97 | 1013.2 |
| 20260901124035 | 23 | 261 | 0.0 | 0.0 | 0.00 | 0.08 | 0.03 | 97 | 1013.2 |
| 20260901123924 | 23 | 261 | 0.0 | 0.0 | 0.00 | 0.08 | 0.03 | 98 | 1012.8 |
| 20260901123919 | 23 | 261 | 0.0 | 0.0 | 0.00 | 0.08 | 0.03 | 97 | 1013.1 |
| 20260901123612 | 23 | 261 | 0.0 | 0.0 | 0.00 | 0.08 | 0.03 | 97 | 1012.9 |
| 20260901123603 | 23 | 261 | 0.0 | 0.0 | 0.00 | 0.08 | 0.03 | 98 | 1012.8 |
| 20260901123521 | 23 | 261 | 0.0 | 0.0 | 0.00 | 0.08 | 0.03 | 98 | 1012.8 |
| 20260901123426 | 23 | 261 | 0.0 | 0.0 | 0.00 | 0.08 | 0.03 | 97 | 1012.8 |
| 20260901123421 | 23 | 261 | 0.0 | 0.0 | 0.00 | 0.08 | 0.03 | 97 | 1012.8 |
| 20260901123416 | 23 | 261 | 0.0 | 0.0 | 0.00 | 0.08 | 0.03 | 98 | 1012.7 |
| 20260901123114 | 22 | 261 | 0.0 | 0.0 | 0.00 | 0.08 | 0.03 | 97 | 1013.0 |
| 20260901123108 | 23 | 261 | 0.0 | 0.0 | 0.00 | 0.08 | 0.03 | 97 | 1012.9 |
| 20260901123021 | 22 | 261 | 0.0 | 0.0 | 0.00 | 0.08 | 0.03 | 97 | 1013.0 |
| 20260901122952 | 22 | 261 | 0.0 | 0.0 | 0.00 | 0.08 | 0.03 | 97 | 1013.0 |
| 20260901122857 | 22 | 261 | 0.0 | 0.0 | 0.00 | 0.08 | 0.03 | 97 | 1013.0 |
| 20260901122756 | 22 | 261 | 0.0 | 0.0 | 0.00 | 0.08 | 0.03 | 97 | 1013.1 |
| 20260901122655 | 22 | 261 | 0.0 | 0.0 | 0.00 | 0.08 | 0.03 | 97 | 1013.1 |
| 20260901122554 | 22 | 261 | 0.0 | 0.0 | 0.00 | 0.08 | 0.03 | 97 | 1013.0 |
| 20260901122521 | 22 | 261 | 0.0 | 0.0 | 0.00 | 0.08 | 0.03 | 97 | 1013.1 |
| 20260901122450 | 22 | 261 | 0.0 | 0.0 | 0.00 | 0.08 | 0.03 | 97 | 1013.1 |
| 20260901122353 | 22 | 261 | 0.0 | 0.0 | 0.00 | 0.08 | 0.03 | 97 | 1013.1 |
| 20260901122252 | 22 | 261 | 0.0 | 0.0 | 0.00 | 0.08 | 0.03 | 97 | 1013.1 |
| 20260901122222 | 22 | 261 | 0.0 | 0.0 | 0.00 | 0.08 | 0.03 | 97 | 1013.0 |
| 20260901122108 | 22 | 261 | 0.0 | 0.0 | 0.00 | 0.08 | 0.03 | 97 | 1012.9 |
| 20260901122059 | 22 | 261 | 0.0 | 0.0 | 0.00 | 0.08 | 0.03 | 97 | 1012.9 |
| 20260901122036 | 22 | 261 | 0.0 | 0.0 | 0.00 | 0.08 | 0.03 | 97 | 1012.9 |
| 20260901121947 | 22 | 261 | 0.0 | 0.0 | 0.00 | 0.08 | 0.03 | 97 | 1012.8 |
| 20260901121940 | 22 | 261 | 0.0 | 0.0 | 0.00 | 0.08 | 0.03 | 97 | 1012.9 |
| 20260901121828 | 22 | 261 | 0.0 | 0.0 | 0.00 | 0.08 | 0.03 | 97 | 1012.9 |
| 20260901121823 | 22 | 261 | 0.0 | 0.0 | 0.00 | 0.08 | 0.03 | 97 | 1012.9 |
| 20260901121522 | 22 | 261 | 0.0 | 0.0 | 0.00 | 0.08 | 0.03 | 97 | 1012.9 |
| 20260901121450 | 22 | 261 | 0.0 | 0.0 | 0.00 | 0.08 | 0.03 | 97 | 1012.9 |
| 20260901121348 | 21 | 261 | 0.0 | 0.0 | 0.00 | 0.08 | 0.03 | 97 | 1013.1 |
| 20260901121248 | 21 | 261 | 0.0 | 0.0 | 0.00 | 0.08 | 0.03 | 97 | 1013.1 |
| 20260901121146 | 21 | 261 | 0.0 | 0.0 | 0.00 | 0.08 | 0.03 | 97 | 1013.1 |
| 20260901121100 | 21 | 261 | 0.0 | 0.0 | 0.00 | 0.08 | 0.03 | 97 | 1013.2 |
| 20260901121051 | 21 | 261 | 0.0 | 0.0 | 0.00 | 0.08 | 0.03 | 97 | 1013.2 |
| 20260901121022 | 21 | 261 | 0.0 | 0.0 | 0.00 | 0.08 | 0.03 | 97 | 1013.2 |
| 20260901120845 | 21 | 261 | 0.0 | 0.0 | 0.00 | 0.08 | 0.03 | 97 | 1013.2 |
| 20260901120744 | 21 | 261 | 0.0 | 0.0 | 0.00 | 0.08 | 0.03 | 97 | 1013.2 |
| 20260901120644 | 21 | 261 | 0.0 | 0.0 | 0.00 | 0.08 | 0.03 | 97 | 1013.2 |
| 20260901120544 | 21 | 261 | 0.0 | 0.0 | 0.00 | 0.08 | 0.03 | 97 | 1013.1 |
| 20260901120521 | 21 | 261 | 0.0 | 0.0 | 0.00 | 0.08 | 0.03 | 97 | 1013.1 |
| 20260901120444 | 21 | 261 | 0.0 | 0.0 | 0.00 | 0.08 | 0.03 | 97 | 1013.1 |
| 20260901120343 | 21 | 261 | 0.0 | 0.0 | 0.00 | 0.08 | 0.03 | 97 | 1013.2 |
| 20260901120243 | 21 | 261 | 0.0 | 0.0 | 0.00 | 0.08 | 0.03 | 97 | 1013.1 |
| 20260901120143 | 21 | 261 | 0.0 | 0.0 | 0.00 | 0.08 | 0.03 | 97 | 1013.1 |
| 20260901120042 | 21 | 261 | 0.0 | 0.0 | 0.00 | 0.08 | 0.03 | 97 | 1013.2 |
| 20260901120021 | 21 | 261 | 0.0 | 0.0 | 0.00 | 0.08 | 0.03 | 97 | 1013.2 |
| 20260901115946 | 21 | 261 | 0.0 | 0.0 | 0.00 | 0.08 | 0.03 | 97 | 1013.2 |
| 20260901115939 | 21 | 261 | 0.0 | 0.0 | 0.00 | 0.08 | 0.03 | 97 | 1013.1 |
| 20260901115840 | 21 | 261 | 0.0 | 0.0 | 0.00 | 0.08 | 0.03 | 97 | 1013.1 |
| 20260901115739 | 21 | 261 | 0.0 | 0.0 | 0.00 | 0.08 | 0.03 | 97 | 1012.9 |
| 20260901115638 | 21 | 261 | 0.0 | 0.0 | 0.00 | 0.08 | 0.03 | 97 | 1012.9 |
| 20260901115538 | 21 | 261 | 0.0 | 0.0 | 0.00 | 0.08 | 0.03 | 97 | 1013.0 |
| 20260901115521 | 21 | 261 | 0.0 | 0.0 | 0.00 | 0.08 | 0.03 | 97 | 1013.1 |
| 20260901115436 | 21 | 261 | 0.0 | 0.0 | 0.00 | 0.08 | 0.03 | 97 | 1013.0 |
| 20260901115335 | 21 | 261 | 0.0 | 0.0 | 0.00 | 0.08 | 0.03 | 97 | 1013.0 |
| 20260901115233 | 21 | 261 | 0.0 | 0.0 | 0.00 | 0.08 | 0.03 | 97 | 1013.0 |
| 20260901115133 | 21 | 261 | 0.0 | 0.0 | 0.00 | 0.08 | 0.03 | 97 | 1013.0 |
| 20260901115036 | 21 | 261 | 0.0 | 0.0 | 0.00 | 0.08 | 0.03 | 97 | 1013.3 |
| 20260901115033 | 21 | 261 | 0.0 | 0.0 | 0.00 | 0.08 | 0.03 | 97 | 1013.1 |
| 20260901114931 | 21 | 261 | 0.0 | 0.0 | 0.00 | 0.08 | 0.03 | 97 | 1013.2 |
| 20260901114831 | 21 | 261 | 0.0 | 0.0 | 0.00 | 0.08 | 0.03 | 97 | 1013.1 |
| 20260901114751 | 21 | 261 | 0.0 | 0.0 | 0.00 | 0.08 | 0.03 | 97 | 1013.1 |
| 20260901114638 | 21 | 261 | 0.0 | 0.0 | 0.00 | 0.08 | 0.03 | 97 | 1013.2 |
| 20260901114521 | 21 | 261 | 0.0 | 0.0 | 0.00 | 0.08 | 0.03 | 97 | 1013.3 |
| 20260901114428 | 21 | 261 | 0.0 | 0.0 | 0.00 | 0.08 | 0.03 | 97 | 1013.2 |
| 20260901114341 | 21 | 261 | 0.0 | 0.0 | 0.00 | 0.08 | 0.03 | 97 | 1013.3 |
| 20260901114337 | 21 | 261 | 0.0 | 0.0 | 0.00 | 0.08 | 0.03 | 97 | 1013.3 |
| 20260901114128 | 21 | 261 | 0.0 | 0.0 | 0.00 | 0.08 | 0.03 | 97 | 1013.4 |
| 20260901114042 | 21 | 261 | 0.0 | 0.0 | 0.00 | 0.08 | 0.03 | 97 | 1013.4 |
| 20260901114034 | 21 | 261 | 0.0 | 0.0 | 0.00 | 0.08 | 0.03 | 97 | 1013.4 |
| 20260901114021 | 21 | 261 | 0.0 | 0.0 | 0.00 | 0.08 | 0.03 | 97 | 1013.5 |
| 20260901113826 | 21 | 261 | 0.0 | 0.0 | 0.00 | 0.08 | 0.03 | 97 | 1013.4 |
| 20260901113725 | 21 | 261 | 0.0 | 0.0 | 0.00 | 0.08 | 0.03 | 97 | 1013.5 |
| 20260901113625 | 21 | 261 | 0.0 | 0.0 | 0.00 | 0.08 | 0.03 | 97 | 1013.4 |
| 20260901113525 | 21 | 261 | 0.0 | 0.0 | 0.00 | 0.08 | 0.03 | 97 | 1013.5 |
| 20260901113521 | 21 | 261 | 0.0 | 0.0 | 0.00 | 0.08 | 0.03 | 97 | 1013.5 |
| 20260901113445 | 21 | 261 | 0.0 | 0.0 | 0.00 | 0.08 | 0.03 | 97 | 1013.4 |
| 20260901113438 | 21 | 261 | 0.0 | 0.0 | 0.00 | 0.08 | 0.03 | 97 | 1013.5 |
| 20260901113434 | 21 | 261 | 0.0 | 0.0 | 0.00 | 0.08 | 0.03 | 97 | 1013.4 |
| 20260901113237 | 21 | 261 | 0.0 | 0.0 | 0.00 | 0.08 | 0.03 | 97 | 1013.5 |
| 20260901113233 | 21 | 261 | 0.0 | 0.0 | 0.00 | 0.08 | 0.03 | 97 | 1013.5 |
| 20260901113023 | 21 | 261 | 0.0 | 0.0 | 0.00 | 0.08 | 0.03 | 97 | 1013.5 |
| 20260901113021 | 21 | 261 | 0.0 | 0.0 | 0.00 | 0.08 | 0.03 | 97 | 1013.6 |
| 20260901112940 | 21 | 261 | 0.0 | 0.0 | 0.00 | 0.08 | 0.03 | 97 | 1013.5 |
| 20260901112923 | 21 | 261 | 0.0 | 0.0 | 0.00 | 0.08 | 0.03 | 97 | 1013.5 |
| 20260901112822 | 21 | 261 | 0.0 | 0.0 | 0.00 | 0.08 | 0.03 | 97 | 1013.5 |
| 20260901112721 | 21 | 261 | 0.0 | 0.0 | 0.00 | 0.08 | 0.03 | 97 | 1013.6 |
| 20260901112634 | 21 | 261 | 0.0 | 0.0 | 0.00 | 0.08 | 0.03 | 97 | 1013.5 |
| 20260901112630 | 21 | 261 | 0.0 | 0.0 | 0.00 | 0.08 | 0.03 | 97 | 1013.6 |
| 20260901112523 | 21 | 261 | 0.0 | 0.0 | 0.00 | 0.08 | 0.03 | 97 | 1013.6 |
| 20260901112438 | 21 | 261 | 0.0 | 0.0 | 0.00 | 0.08 | 0.03 | 97 | 1013.5 |
| 20260901112420 | 21 | 261 | 0.0 | 0.0 | 0.00 | 0.08 | 0.03 | 97 | 1013.5 |
| 20260901112320 | 21 | 261 | 0.0 | 0.0 | 0.00 | 0.08 | 0.03 | 97 | 1013.6 |
| 20260901112219 | 21 | 261 | 0.0 | 0.0 | 0.00 | 0.08 | 0.03 | 97 | 1013.6 |
| 20260901112146 | 21 | 261 | 0.0 | 0.0 | 0.00 | 0.08 | 0.03 | 97 | 1013.5 |
| 20260901112032 | 21 | 261 | 0.0 | 0.0 | 0.00 | 0.08 | 0.03 | 97 | 1013.5 |
| 20260901112025 | 20 | 261 | 0.0 | 0.0 | 0.00 | 0.08 | 0.03 | 97 | 1013.5 |
| 20260901112021 | 21 | 261 | 0.0 | 0.0 | 0.00 | 0.08 | 0.03 | 97 | 1013.6 |
| 20260901111817 | 20 | 261 | 0.0 | 0.0 | 0.00 | 0.08 | 0.03 | 97 | 1013.5 |
| 20260901111717 | 20 | 261 | 0.0 | 0.0 | 0.00 | 0.08 | 0.03 | 97 | 1013.5 |
| 20260901111617 | 20 | 261 | 0.0 | 0.0 | 0.00 | 0.08 | 0.03 | 97 | 1013.5 |
| 20260901111604 | 20 | 261 | 0.0 | 0.0 | 0.00 | 0.08 | 0.03 | 97 | 1013.5 |
| 20260901111521 | 20 | 261 | 0.0 | 0.0 | 0.00 | 0.08 | 0.03 | 97 | 1013.6 |
| 20260901111445 | 20 | 261 | 0.0 | 0.0 | 0.00 | 0.08 | 0.03 | 97 | 1013.5 |
| 20260901111332 | 20 | 261 | 0.0 | 0.0 | 0.00 | 0.08 | 0.03 | 97 | 1013.5 |
| 20260901111028 | 20 | 261 | 0.0 | 0.0 | 0.00 | 0.08 | 0.03 | 97 | 1013.4 |
| 20260901111021 | 20 | 261 | 0.0 | 0.0 | 0.00 | 0.08 | 0.03 | 97 | 1013.5 |
| 20260901110812 | 20 | 261 | 0.0 | 0.0 | 0.00 | 0.08 | 0.03 | 97 | 1013.4 |
| 20260901110712 | 20 | 261 | 0.0 | 0.0 | 0.00 | 0.08 | 0.03 | 97 | 1013.4 |
| 20260901110611 | 20 | 261 | 0.0 | 0.0 | 0.00 | 0.08 | 0.03 | 97 | 1013.4 |
| 20260901110521 | 20 | 261 | 0.0 | 0.0 | 0.00 | 0.08 | 0.03 | 97 | 1013.5 |
| 20260901110511 | 20 | 261 | 0.0 | 0.0 | 0.00 | 0.08 | 0.03 | 97 | 1013.4 |
| 20260901110410 | 20 | 261 | 0.0 | 0.0 | 0.00 | 0.08 | 0.03 | 97 | 1013.4 |
| 20260901110308 | 20 | 261 | 0.0 | 0.0 | 0.00 | 0.08 | 0.03 | 97 | 1013.4 |
| 20260901110208 | 20 | 261 | 0.0 | 0.0 | 0.00 | 0.08 | 0.03 | 97 | 1013.4 |
| 20260901110107 | 20 | 261 | 0.0 | 0.0 | 0.00 | 0.08 | 0.03 | 97 | 1013.4 |
| 20260901110036 | 20 | 261 | 0.0 | 0.0 | 0.00 | 0.08 | 0.03 | 97 | 1013.5 |
| 20260901110020 | 20 | 261 | 0.0 | 0.0 | 0.00 | 0.08 | 0.03 | 97 | 1013.4 |
| 20260901110012 | 20 | 261 | 0.0 | 0.0 | 0.00 | 0.08 | 0.03 | 97 | 1013.4 |
| 20260901105806 | 20 | 261 | 0.0 | 0.0 | 0.00 | 0.08 | 0.03 | 97 | 1013.4 |
| 20260901105706 | 20 | 261 | 0.0 | 0.0 | 0.00 | 0.08 | 0.03 | 97 | 1013.3 |
| 20260901105606 | 20 | 261 | 0.0 | 0.0 | 0.00 | 0.08 | 0.03 | 97 | 1013.3 |
| 20260901105521 | 20 | 261 | 0.0 | 0.0 | 0.00 | 0.08 | 0.03 | 97 | 1013.5 |
| 20260901105505 | 20 | 261 | 0.0 | 0.0 | 0.00 | 0.08 | 0.03 | 97 | 1013.4 |
| 20260901105406 | 20 | 261 | 0.0 | 0.0 | 0.00 | 0.08 | 0.03 | 97 | 1013.4 |
| 20260901105318 | 20 | 261 | 0.0 | 0.0 | 0.00 | 0.08 | 0.03 | 97 | 1013.4 |
| 20260901105313 | 20 | 261 | 0.0 | 0.0 | 0.00 | 0.08 | 0.03 | 97 | 1013.4 |
| 20260901105131 | 20 | 261 | 0.0 | 0.0 | 0.00 | 0.08 | 0.03 | 97 | 1013.4 |
| 20260901105021 | 20 | 261 | 0.0 | 0.0 | 0.00 | 0.08 | 0.03 | 97 | 1013.5 |
| 20260901105009 | 20 | 261 | 0.0 | 0.0 | 0.00 | 0.08 | 0.03 | 97 | 1013.4 |
| 20260901104802 | 20 | 261 | 0.0 | 0.0 | 0.00 | 0.08 | 0.03 | 97 | 1013.4 |
| 20260901104702 | 20 | 261 | 0.0 | 0.0 | 0.00 | 0.08 | 0.03 | 97 | 1013.5 |
| 20260901104628 | 20 | 261 | 0.0 | 0.0 | 0.00 | 0.08 | 0.03 | 97 | 1013.5 |
| 20260901104522 | 20 | 261 | 0.0 | 0.0 | 0.00 | 0.08 | 0.03 | 97 | 1013.6 |
| 20260901104507 | 20 | 261 | 0.0 | 0.0 | 0.00 | 0.08 | 0.03 | 97 | 1013.5 |
| 20260901104300 | 20 | 261 | 0.0 | 0.0 | 0.00 | 0.08 | 0.03 | 97 | 1013.6 |
| 20260901104200 | 20 | 261 | 0.0 | 0.0 | 0.00 | 0.08 | 0.03 | 97 | 1013.5 |
| 20260901104058 | 20 | 261 | 0.0 | 0.0 | 0.00 | 0.08 | 0.03 | 97 | 1013.6 |
| 20260901104021 | 20 | 261 | 0.0 | 0.0 | 0.00 | 0.08 | 0.03 | 97 | 1013.6 |
| 20260901103930 | 20 | 261 | 0.0 | 0.0 | 0.00 | 0.08 | 0.03 | 97 | 1013.5 |
| 20260901103857 | 20 | 261 | 0.0 | 0.0 | 0.00 | 0.08 | 0.03 | 97 | 1013.5 |
| 20260901103811 | 20 | 261 | 0.0 | 0.0 | 0.00 | 0.08 | 0.03 | 97 | 1013.5 |
| 20260901103806 | 20 | 261 | 0.0 | 0.0 | 0.00 | 0.08 | 0.03 | 97 | 1013.5 |
| 20260901103556 | 20 | 261 | 0.0 | 0.0 | 0.00 | 0.08 | 0.03 | 97 | 1013.5 |
| 20260901103521 | 20 | 261 | 0.0 | 0.0 | 0.00 | 0.08 | 0.03 | 97 | 1013.6 |
| 20260901103430 | 20 | 261 | 0.0 | 0.0 | 0.00 | 0.08 | 0.03 | 97 | 1013.5 |
| 20260901103355 | 20 | 261 | 0.0 | 0.0 | 0.00 | 0.08 | 0.03 | 97 | 1013.5 |
| 20260901103255 | 20 | 261 | 0.0 | 0.0 | 0.00 | 0.08 | 0.03 | 97 | 1013.5 |
| 20260901103153 | 20 | 261 | 0.0 | 0.0 | 0.00 | 0.08 | 0.03 | 97 | 1013.5 |
| 20260901103054 | 20 | 261 | 0.0 | 0.0 | 0.00 | 0.08 | 0.03 | 97 | 1013.5 |
| 20260901103021 | 20 | 261 | 0.0 | 0.0 | 0.00 | 0.08 | 0.03 | 97 | 1013.6 |
| 20260901102928 | 20 | 261 | 0.0 | 0.0 | 0.00 | 0.08 | 0.03 | 97 | 1013.5 |
| 20260901102852 | 20 | 261 | 0.0 | 0.0 | 0.00 | 0.08 | 0.03 | 97 | 1013.5 |
| 20260901102828 | 20 | 261 | 0.0 | 0.0 | 0.00 | 0.08 | 0.03 | 97 | 1013.5 |
| 20260901102823 | 20 | 261 | 0.0 | 0.0 | 0.00 | 0.08 | 0.03 | 97 | 1013.5 |
| 20260901102600 | 20 | 261 | 0.0 | 0.0 | 0.00 | 0.08 | 0.03 | 97 | 1013.5 |
| 20260901102521 | 20 | 261 | 0.0 | 0.0 | 0.00 | 0.08 | 0.03 | 97 | 1013.6 |
| 20260901102428 | 20 | 261 | 0.0 | 0.0 | 0.00 | 0.08 | 0.03 | 97 | 1013.5 |
| 20260901102350 | 20 | 261 | 0.0 | 0.0 | 0.00 | 0.08 | 0.03 | 97 | 1013.5 |
| 20260901102249 | 20 | 261 | 0.0 | 0.0 | 0.00 | 0.08 | 0.03 | 97 | 1013.5 |
| 20260901102149 | 20 | 261 | 0.0 | 0.0 | 0.00 | 0.08 | 0.03 | 97 | 1013.4 |
| 20260901102121 | 20 | 261 | 0.0 | 0.0 | 0.00 | 0.08 | 0.03 | 97 | 1013.5 |
| 20260901102048 | 20 | 261 | 0.0 | 0.0 | 0.00 | 0.08 | 0.03 | 97 | 1013.4 |
| 20260901102007 | 20 | 261 | 0.0 | 0.0 | 0.00 | 0.08 | 0.03 | 97 | 1013.5 |
| 20260901101955 | 20 | 261 | 0.0 | 0.0 | 0.00 | 0.08 | 0.03 | 97 | 1013.4 |
| 20260901101747 | 20 | 261 | 0.0 | 0.0 | 0.00 | 0.08 | 0.03 | 97 | 1013.5 |
| 20260901101646 | 20 | 261 | 0.0 | 0.0 | 0.00 | 0.08 | 0.03 | 97 | 1013.5 |
| 20260901101557 | 20 | 261 | 0.0 | 0.0 | 0.00 | 0.08 | 0.03 | 96 | 1013.5 |
| 20260901101552 | 20 | 261 | 0.0 | 0.0 | 0.00 | 0.08 | 0.03 | 96 | 1013.5 |
| 20260901101536 | 20 | 261 | 0.0 | 0.0 | 0.00 | 0.08 | 0.03 | 97 | 1013.6 |
| 20260901101427 | 20 | 261 | 0.0 | 0.0 | 0.00 | 0.08 | 0.03 | 96 | 1013.5 |
| 20260901101343 | 20 | 261 | 0.0 | 0.0 | 0.00 | 0.08 | 0.03 | 96 | 1013.5 |
| 20260901101240 | 20 | 261 | 0.0 | 0.0 | 0.00 | 0.08 | 0.03 | 96 | 1013.4 |
| 20260901101140 | 20 | 261 | 0.0 | 0.0 | 0.00 | 0.08 | 0.03 | 96 | 1013.4 |
| 20260901101051 | 20 | 261 | 0.0 | 0.0 | 0.00 | 0.08 | 0.03 | 96 | 1013.5 |
| 20260901101039 | 20 | 261 | 0.0 | 0.0 | 0.00 | 0.08 | 0.03 | 96 | 1013.4 |
| 20260901100925 | 20 | 261 | 0.0 | 0.0 | 0.00 | 0.08 | 0.03 | 96 | 1013.4 |
| 20260901100837 | 20 | 261 | 0.0 | 0.0 | 0.00 | 0.08 | 0.03 | 96 | 1013.5 |
| 20260901100737 | 20 | 261 | 0.0 | 0.0 | 0.00 | 0.08 | 0.03 | 96 | 1013.4 |
| 20260901100634 | 20 | 261 | 0.0 | 0.0 | 0.00 | 0.08 | 0.03 | 96 | 1013.5 |
| 20260901100534 | 20 | 261 | 0.0 | 0.0 | 0.00 | 0.08 | 0.03 | 96 | 1013.5 |
| 20260901100521 | 20 | 261 | 0.0 | 0.0 | 0.00 | 0.08 | 0.03 | 96 | 1013.5 |
| 20260901100424 | 20 | 261 | 0.0 | 0.0 | 0.00 | 0.08 | 0.03 | 97 | 1013.4 |
| 20260901100332 | 20 | 261 | 0.0 | 0.0 | 0.00 | 0.08 | 0.03 | 97 | 1013.5 |
| 20260901100246 | 20 | 261 | 0.0 | 0.0 | 0.00 | 0.08 | 0.03 | 97 | 1013.4 |
| 20260901100241 | 20 | 261 | 0.0 | 0.0 | 0.00 | 0.08 | 0.03 | 97 | 1013.4 |
| 20260901100058 | 20 | 261 | 0.0 | 0.0 | 0.00 | 0.08 | 0.03 | 96 | 1013.4 |
| 20260901100053 | 20 | 261 | 0.0 | 0.0 | 0.00 | 0.08 | 0.03 | 97 | 1013.4 |
| 20260901100022 | 21 | 261 | 0.0 | 0.0 | 0.00 | 0.08 | 0.03 | 97 | 1013.5 |
| 20260901095937 | 20 | 261 | 0.0 | 0.0 | 0.00 | 0.08 | 0.03 | 97 | 1013.4 |
| 20260901095729 | 20 | 261 | 0.0 | 0.0 | 0.00 | 0.08 | 0.03 | 96 | 1013.4 |
| 20260901095628 | 20 | 261 | 0.0 | 0.0 | 0.00 | 0.08 | 0.03 | 96 | 1013.4 |
| 20260901095527 | 20 | 261 | 0.0 | 0.0 | 0.00 | 0.08 | 0.03 | 96 | 1013.4 |
| 20260901095521 | 20 | 261 | 0.0 | 0.0 | 0.00 | 0.08 | 0.03 | 96 | 1013.5 |
| 20260901095422 | 20 | 261 | 0.0 | 0.0 | 0.00 | 0.08 | 0.03 | 96 | 1013.4 |
| 20260901095326 | 20 | 261 | 0.0 | 0.0 | 0.00 | 0.08 | 0.03 | 96 | 1013.4 |
| 20260901095226 | 20 | 261 | 0.0 | 0.0 | 0.00 | 0.08 | 0.03 | 96 | 1013.3 |
| 20260901095125 | 20 | 261 | 0.0 | 0.0 | 0.00 | 0.08 | 0.03 | 96 | 1013.4 |
| 20260901095044 | 20 | 261 | 0.0 | 0.0 | 0.00 | 0.08 | 0.03 | 96 | 1013.5 |
| 20260901095039 | 20 | 261 | 0.0 | 0.0 | 0.00 | 0.08 | 0.03 | 96 | 1013.4 |
| 20260901095021 | 20 | 261 | 0.0 | 0.0 | 0.00 | 0.08 | 0.03 | 96 | 1013.6 |
| 20260901094926 | 20 | 261 | 0.0 | 0.0 | 0.00 | 0.08 | 0.03 | 96 | 1013.5 |
| 20260901094824 | 20 | 261 | 0.0 | 0.0 | 0.00 | 0.08 | 0.03 | 96 | 1013.4 |
| 20260901094723 | 20 | 261 | 0.0 | 0.0 | 0.00 | 0.08 | 0.03 | 96 | 1013.5 |
| 20260901094623 | 20 | 261 | 0.0 | 0.0 | 0.00 | 0.08 | 0.03 | 96 | 1013.5 |
| 20260901094542 | 20 | 261 | 0.0 | 0.0 | 0.00 | 0.08 | 0.03 | 96 | 1013.4 |
| 20260901094537 | 20 | 261 | 0.0 | 0.0 | 0.00 | 0.08 | 0.03 | 96 | 1013.5 |
| 20260901094521 | 21 | 261 | 0.0 | 0.0 | 0.00 | 0.08 | 0.03 | 96 | 1013.5 |
| 20260901094423 | 20 | 261 | 0.0 | 0.0 | 0.00 | 0.08 | 0.03 | 96 | 1013.4 |
| 20260901094321 | 20 | 261 | 0.0 | 0.0 | 0.00 | 0.08 | 0.03 | 96 | 1013.5 |
| 20260901094221 | 20 | 261 | 0.0 | 0.0 | 0.00 | 0.08 | 0.03 | 96 | 1013.5 |
| 20260901094119 | 20 | 261 | 0.0 | 0.0 | 0.00 | 0.08 | 0.03 | 96 | 1013.5 |
| 20260901094021 | 21 | 261 | 0.0 | 0.0 | 0.00 | 0.08 | 0.03 | 96 | 1013.6 |
| 20260901094019 | 20 | 261 | 0.0 | 0.0 | 0.00 | 0.08 | 0.03 | 96 | 1013.5 |
| 20260901093918 | 20 | 261 | 0.0 | 0.0 | 0.00 | 0.08 | 0.03 | 96 | 1013.5 |
| 20260901093818 | 20 | 261 | 0.0 | 0.0 | 0.00 | 0.08 | 0.03 | 96 | 1013.5 |
| 20260901093719 | 20 | 261 | 0.0 | 0.0 | 0.00 | 0.08 | 0.03 | 96 | 1013.5 |
| 20260901093617 | 20 | 261 | 0.0 | 0.0 | 0.00 | 0.08 | 0.03 | 96 | 1013.5 |
| 20260901093521 | 21 | 261 | 0.0 | 0.0 | 0.00 | 0.08 | 0.03 | 96 | 1013.5 |
| 20260901093518 | 20 | 261 | 0.0 | 0.0 | 0.00 | 0.08 | 0.03 | 96 | 1013.5 |
| 20260901093437 | 20 | 261 | 0.0 | 0.0 | 0.00 | 0.08 | 0.03 | 96 | 1013.4 |
| 20260901093426 | 20 | 261 | 0.0 | 0.0 | 0.00 | 0.08 | 0.03 | 96 | 1013.4 |
| 20260901093216 | 20 | 261 | 0.0 | 0.0 | 0.00 | 0.08 | 0.03 | 96 | 1013.5 |
| 20260901093115 | 20 | 261 | 0.0 | 0.0 | 0.00 | 0.08 | 0.03 | 96 | 1013.5 |
| 20260901093021 | 21 | 261 | 0.0 | 0.0 | 0.00 | 0.08 | 0.03 | 96 | 1013.5 |
| 20260901093015 | 20 | 261 | 0.0 | 0.0 | 0.00 | 0.08 | 0.03 | 96 | 1013.4 |
| 20260901092914 | 20 | 261 | 0.0 | 0.0 | 0.00 | 0.08 | 0.03 | 96 | 1013.4 |
| 20260901092814 | 20 | 261 | 0.0 | 0.0 | 0.00 | 0.08 | 0.03 | 96 | 1013.5 |
| 20260901092713 | 20 | 261 | 0.0 | 0.0 | 0.00 | 0.08 | 0.03 | 96 | 1013.5 |
| 20260901092613 | 20 | 261 | 0.0 | 0.0 | 0.00 | 0.08 | 0.03 | 96 | 1013.5 |
| 20260901092536 | 20 | 261 | 0.0 | 0.0 | 0.00 | 0.08 | 0.03 | 96 | 1013.6 |
| 20260901092513 | 20 | 261 | 0.0 | 0.0 | 0.00 | 0.08 | 0.03 | 96 | 1013.5 |
| 20260901092412 | 20 | 261 | 0.0 | 0.0 | 0.00 | 0.08 | 0.03 | 96 | 1013.5 |
| 20260901092312 | 20 | 261 | 0.0 | 0.0 | 0.00 | 0.08 | 0.03 | 96 | 1013.5 |
| 20260901092211 | 20 | 261 | 0.0 | 0.0 | 0.00 | 0.08 | 0.03 | 96 | 1013.5 |
| 20260901092110 | 20 | 261 | 0.0 | 0.0 | 0.00 | 0.08 | 0.03 | 96 | 1013.5 |
| 20260901092106 | 20 | 261 | 0.0 | 0.0 | 0.00 | 0.08 | 0.03 | 96 | 1013.6 |
| 20260901092009 | 20 | 261 | 0.0 | 0.0 | 0.00 | 0.08 | 0.03 | 96 | 1013.5 |
| 20260901091909 | 20 | 261 | 0.0 | 0.0 | 0.00 | 0.08 | 0.03 | 96 | 1013.5 |
| 20260901091808 | 20 | 261 | 0.0 | 0.0 | 0.00 | 0.08 | 0.03 | 96 | 1013.4 |
| 20260901091708 | 20 | 261 | 0.0 | 0.0 | 0.00 | 0.08 | 0.03 | 96 | 1013.4 |
| 20260901091608 | 20 | 261 | 0.0 | 0.0 | 0.00 | 0.08 | 0.03 | 96 | 1013.4 |
| 20260901091523 | 21 | 261 | 0.0 | 0.0 | 0.00 | 0.08 | 0.03 | 96 | 1013.5 |
| 20260901091507 | 20 | 261 | 0.0 | 0.0 | 0.00 | 0.08 | 0.03 | 96 | 1013.4 |
| 20260901091407 | 20 | 261 | 0.0 | 0.0 | 0.00 | 0.08 | 0.03 | 96 | 1013.4 |
| 20260901091307 | 20 | 261 | 0.0 | 0.0 | 0.00 | 0.08 | 0.03 | 96 | 1013.4 |
| 20260901091206 | 20 | 261 | 0.0 | 0.0 | 0.00 | 0.08 | 0.03 | 96 | 1013.3 |
| 20260901091106 | 20 | 261 | 0.0 | 0.0 | 0.00 | 0.08 | 0.03 | 96 | 1013.3 |
| 20260901091021 | 21 | 261 | 0.0 | 0.0 | 0.00 | 0.08 | 0.03 | 96 | 1013.5 |
| 20260901091005 | 20 | 261 | 0.0 | 0.0 | 0.00 | 0.08 | 0.03 | 96 | 1013.4 |
| 20260901090905 | 20 | 261 | 0.0 | 0.0 | 0.00 | 0.08 | 0.03 | 96 | 1013.4 |
| 20260901090804 | 20 | 261 | 0.0 | 0.0 | 0.00 | 0.08 | 0.03 | 96 | 1013.4 |
| 20260901090704 | 20 | 261 | 0.0 | 0.0 | 0.00 | 0.08 | 0.03 | 96 | 1013.5 |
| 20260901090604 | 20 | 261 | 0.0 | 0.0 | 0.00 | 0.08 | 0.03 | 96 | 1013.5 |
| 20260901090521 | 20 | 261 | 0.0 | 0.0 | 0.00 | 0.08 | 0.03 | 96 | 1013.6 |
| 20260901090503 | 20 | 261 | 0.0 | 0.0 | 0.00 | 0.08 | 0.03 | 96 | 1013.5 |
| 20260901090413 | 20 | 261 | 0.0 | 0.0 | 0.00 | 0.08 | 0.03 | 96 | 1013.5 |
| 20260901090402 | 20 | 261 | 0.0 | 0.0 | 0.00 | 0.08 | 0.03 | 96 | 1013.5 |
| 20260901090303 | 20 | 261 | 0.0 | 0.0 | 0.00 | 0.08 | 0.03 | 96 | 1013.6 |
| 20260901090203 | 20 | 261 | 0.0 | 0.0 | 0.00 | 0.08 | 0.03 | 96 | 1013.6 |
| 20260901090043 | 20 | 261 | 0.0 | 0.0 | 0.00 | 0.08 | 0.03 | 96 | 1013.5 |
| 20260901090029 | 20 | 261 | 0.0 | 0.0 | 0.00 | 0.08 | 0.03 | 96 | 1013.5 |
| 20260901090021 | 20 | 261 | 0.0 | 0.0 | 0.00 | 0.08 | 0.03 | 96 | 1013.6 |
| 20260901085809 | 20 | 261 | 0.0 | 0.0 | 0.00 | 0.08 | 0.03 | 96 | 1013.6 |
| 20260901085600 | 20 | 261 | 0.0 | 0.0 | 0.00 | 0.08 | 0.03 | 96 | 1013.6 |
| 20260901085536 | 21 | 261 | 0.0 | 0.0 | 0.00 | 0.08 | 0.03 | 96 | 1013.7 |
| 20260901085459 | 20 | 261 | 0.0 | 0.0 | 0.00 | 0.08 | 0.03 | 96 | 1013.6 |
| 20260901085412 | 20 | 261 | 0.0 | 0.0 | 0.00 | 0.08 | 0.03 | 96 | 1013.6 |
| 20260901085358 | 20 | 261 | 0.0 | 0.0 | 0.00 | 0.08 | 0.03 | 96 | 1013.6 |
| 20260901085258 | 20 | 261 | 0.0 | 0.0 | 0.00 | 0.08 | 0.03 | 96 | 1013.6 |
| 20260901085157 | 20 | 261 | 0.0 | 0.0 | 0.00 | 0.08 | 0.03 | 96 | 1013.6 |
| 20260901085058 | 20 | 261 | 0.0 | 0.0 | 0.00 | 0.08 | 0.03 | 96 | 1013.7 |
| 20260901085022 | 20 | 261 | 0.0 | 0.0 | 0.00 | 0.08 | 0.03 | 96 | 1013.6 |
| 20260901085004 | 20 | 261 | 0.0 | 0.0 | 0.00 | 0.08 | 0.03 | 96 | 1013.6 |
| 20260901084756 | 20 | 261 | 0.0 | 0.0 | 0.00 | 0.08 | 0.03 | 96 | 1013.7 |
| 20260901084656 | 21 | 261 | 0.0 | 0.0 | 0.00 | 0.08 | 0.03 | 96 | 1013.6 |
| 20260901084557 | 21 | 261 | 0.0 | 0.0 | 0.00 | 0.08 | 0.03 | 96 | 1013.7 |
| 20260901084521 | 21 | 261 | 0.0 | 0.0 | 0.00 | 0.08 | 0.03 | 96 | 1013.9 |
| 20260901084455 | 21 | 261 | 0.0 | 0.0 | 0.00 | 0.08 | 0.03 | 96 | 1013.8 |
| 20260901084409 | 21 | 261 | 0.0 | 0.0 | 0.00 | 0.08 | 0.03 | 96 | 1013.8 |
| 20260901084354 | 20 | 261 | 0.0 | 0.0 | 0.00 | 0.08 | 0.03 | 96 | 1013.8 |
| 20260901084254 | 21 | 261 | 0.0 | 0.0 | 0.00 | 0.08 | 0.03 | 96 | 1013.8 |
| 20260901084155 | 21 | 261 | 0.0 | 0.0 | 0.00 | 0.08 | 0.03 | 96 | 1013.8 |
| 20260901084128 | 21 | 261 | 0.0 | 0.0 | 0.00 | 0.08 | 0.03 | 96 | 1013.9 |
| 20260901084122 | 21 | 261 | 0.0 | 0.0 | 0.00 | 0.08 | 0.03 | 96 | 1013.9 |
| 20260901084117 | 21 | 261 | 0.0 | 0.0 | 0.00 | 0.08 | 0.03 | 96 | 1013.8 |
| 20260901084022 | 21 | 261 | 0.0 | 0.0 | 0.00 | 0.08 | 0.03 | 96 | 1014.0 |
| 20260901084000 | 21 | 261 | 0.0 | 0.0 | 0.00 | 0.08 | 0.03 | 96 | 1013.9 |
| 20260901083753 | 21 | 261 | 0.0 | 0.0 | 0.00 | 0.08 | 0.03 | 96 | 1013.9 |
| 20260901083651 | 21 | 261 | 0.0 | 0.0 | 0.00 | 0.08 | 0.03 | 96 | 1013.9 |
| 20260901083551 | 21 | 261 | 0.0 | 0.0 | 0.00 | 0.08 | 0.03 | 96 | 1014.0 |
| 20260901083522 | 21 | 261 | 0.0 | 0.0 | 0.00 | 0.08 | 0.03 | 96 | 1014.1 |
| 20260901083451 | 21 | 261 | 0.0 | 0.0 | 0.00 | 0.08 | 0.03 | 96 | 1014.0 |
| 20260901083408 | 21 | 261 | 0.0 | 0.0 | 0.00 | 0.08 | 0.03 | 96 | 1014.0 |
| 20260901083350 | 21 | 261 | 0.0 | 0.0 | 0.00 | 0.08 | 0.03 | 96 | 1014.0 |
| 20260901083250 | 21 | 261 | 0.0 | 0.0 | 0.00 | 0.08 | 0.03 | 96 | 1014.0 |
| 20260901083149 | 21 | 261 | 0.0 | 0.0 | 0.00 | 0.08 | 0.03 | 96 | 1014.0 |
| 20260901083103 | 21 | 261 | 0.0 | 0.0 | 0.00 | 0.08 | 0.03 | 96 | 1014.0 |
| 20260901083058 | 21 | 261 | 0.0 | 0.0 | 0.00 | 0.08 | 0.03 | 96 | 1014.0 |
| 20260901083036 | 21 | 261 | 0.0 | 0.0 | 0.00 | 0.08 | 0.03 | 96 | 1014.1 |
| 20260901082904 | 21 | 261 | 0.0 | 0.0 | 0.00 | 0.08 | 0.03 | 96 | 1014.0 |
| 20260901082848 | 21 | 261 | 0.0 | 0.0 | 0.00 | 0.08 | 0.03 | 96 | 1014.0 |
| 20260901082802 | 21 | 261 | 0.0 | 0.0 | 0.00 | 0.08 | 0.03 | 96 | 1014.0 |
| 20260901082756 | 21 | 261 | 0.0 | 0.0 | 0.00 | 0.08 | 0.03 | 96 | 1014.0 |
| 20260901082600 | 21 | 261 | 0.0 | 0.0 | 0.00 | 0.08 | 0.03 | 96 | 1013.9 |
| 20260901082555 | 21 | 261 | 0.0 | 0.0 | 0.00 | 0.08 | 0.03 | 96 | 1013.9 |
| 20260901082546 | 21 | 261 | 0.0 | 0.0 | 0.00 | 0.08 | 0.03 | 96 | 1013.9 |
| 20260901082539 | 21 | 261 | 0.0 | 0.0 | 0.00 | 0.08 | 0.03 | 96 | 1013.9 |
| 20260901082524 | 21 | 261 | 0.0 | 0.0 | 0.00 | 0.08 | 0.03 | 96 | 1013.9 |
| 20260901082521 | 21 | 261 | 0.0 | 0.0 | 0.00 | 0.08 | 0.03 | 96 | 1014.0 |
| 20260901082155 | 21 | 261 | 0.0 | 0.0 | 0.00 | 0.08 | 0.03 | 96 | 1013.9 |
| 20260901082146 | 21 | 261 | 0.0 | 0.0 | 0.00 | 0.08 | 0.03 | 96 | 1013.8 |
| 20260901082036 | 21 | 261 | 0.0 | 0.0 | 0.00 | 0.08 | 0.03 | 96 | 1014.0 |
| 20260901081922 | 21 | 261 | 0.0 | 0.0 | 0.00 | 0.08 | 0.03 | 96 | 1013.9 |
| 20260901081701 | 21 | 261 | 0.0 | 0.0 | 0.00 | 0.08 | 0.03 | 96 | 1014.0 |
| 20260901081656 | 21 | 261 | 0.0 | 0.0 | 0.00 | 0.08 | 0.03 | 96 | 1013.9 |
| 20260901081521 | 21 | 261 | 0.0 | 0.0 | 0.00 | 0.08 | 0.03 | 96 | 1014.1 |
| 20260901081406 | 21 | 261 | 0.0 | 0.0 | 0.00 | 0.08 | 0.03 | 96 | 1014.0 |
| 20260901081339 | 21 | 261 | 0.0 | 0.0 | 0.00 | 0.08 | 0.03 | 96 | 1013.9 |
| 20260901081239 | 21 | 261 | 0.0 | 0.0 | 0.00 | 0.08 | 0.03 | 96 | 1013.9 |
| 20260901081138 | 21 | 261 | 0.0 | 0.0 | 0.00 | 0.08 | 0.03 | 96 | 1013.9 |
| 20260901081037 | 21 | 261 | 0.0 | 0.0 | 0.00 | 0.08 | 0.03 | 96 | 1013.9 |
| 20260901081021 | 21 | 261 | 0.0 | 0.0 | 0.00 | 0.08 | 0.03 | 96 | 1014.0 |
| 20260901080936 | 21 | 261 | 0.0 | 0.0 | 0.00 | 0.08 | 0.03 | 96 | 1013.9 |
| 20260901080905 | 21 | 261 | 0.0 | 0.0 | 0.00 | 0.08 | 0.03 | 96 | 1013.9 |
| 20260901080848 | 21 | 261 | 0.0 | 0.0 | 0.00 | 0.08 | 0.03 | 96 | 1013.9 |
| 20260901080844 | 21 | 261 | 0.0 | 0.0 | 0.00 | 0.08 | 0.03 | 96 | 1013.9 |
| 20260901080635 | 21 | 261 | 0.0 | 0.0 | 0.00 | 0.08 | 0.03 | 96 | 1013.9 |
| 20260901080536 | 21 | 261 | 0.0 | 0.0 | 0.00 | 0.08 | 0.03 | 96 | 1014.0 |
| 20260901080534 | 21 | 261 | 0.0 | 0.0 | 0.00 | 0.08 | 0.03 | 96 | 1013.9 |
| 20260901080404 | 21 | 261 | 0.0 | 0.0 | 0.00 | 0.08 | 0.03 | 96 | 1013.9 |
| 20260901080333 | 21 | 261 | 0.0 | 0.0 | 0.00 | 0.08 | 0.03 | 96 | 1013.9 |
| 20260901080233 | 21 | 261 | 0.0 | 0.0 | 0.00 | 0.08 | 0.03 | 96 | 1013.8 |
| 20260901080145 | 21 | 261 | 0.0 | 0.0 | 0.00 | 0.08 | 0.03 | 96 | 1013.8 |
| 20260901080141 | 21 | 261 | 0.0 | 0.0 | 0.00 | 0.08 | 0.03 | 96 | 1013.8 |
| 20260901080021 | 21 | 261 | 0.0 | 0.0 | 0.00 | 0.08 | 0.03 | 96 | 1013.9 |
| 20260901075904 | 21 | 261 | 0.0 | 0.0 | 0.00 | 0.08 | 0.03 | 96 | 1013.8 |
| 20260901075830 | 21 | 261 | 0.0 | 0.0 | 0.00 | 0.08 | 0.03 | 96 | 1013.8 |
| 20260901075740 | 21 | 261 | 0.0 | 0.0 | 0.00 | 0.08 | 0.03 | 96 | 1013.7 |
| 20260901075731 | 21 | 261 | 0.0 | 0.0 | 0.00 | 0.08 | 0.03 | 96 | 1013.7 |
| 20260901075528 | 21 | 261 | 0.0 | 0.0 | 0.00 | 0.08 | 0.03 | 96 | 1013.7 |
| 20260901075521 | 21 | 261 | 0.0 | 0.0 | 0.00 | 0.08 | 0.03 | 96 | 1013.8 |
| 20260901075511 | 21 | 261 | 0.0 | 0.0 | 0.00 | 0.08 | 0.03 | 96 | 1013.7 |
| 20260901075328 | 21 | 261 | 0.0 | 0.0 | 0.00 | 0.08 | 0.03 | 96 | 1013.7 |
| 20260901075227 | 21 | 261 | 0.0 | 0.0 | 0.00 | 0.08 | 0.03 | 96 | 1013.6 |
| 20260901075126 | 21 | 261 | 0.0 | 0.0 | 0.00 | 0.08 | 0.03 | 96 | 1013.6 |
| 20260901075026 | 21 | 261 | 0.0 | 0.0 | 0.00 | 0.08 | 0.03 | 96 | 1013.8 |
| 20260901075021 | 21 | 261 | 0.0 | 0.0 | 0.00 | 0.08 | 0.03 | 96 | 1013.8 |
| 20260901074903 | 21 | 261 | 0.0 | 0.0 | 0.00 | 0.08 | 0.03 | 96 | 1013.7 |
| 20260901074825 | 21 | 261 | 0.0 | 0.0 | 0.00 | 0.08 | 0.03 | 96 | 1013.8 |
| 20260901074725 | 21 | 261 | 0.0 | 0.0 | 0.00 | 0.08 | 0.03 | 96 | 1013.7 |
| 20260901074624 | 21 | 261 | 0.0 | 0.0 | 0.00 | 0.08 | 0.03 | 96 | 1013.8 |
| 20260901074524 | 21 | 261 | 0.0 | 0.0 | 0.00 | 0.08 | 0.03 | 96 | 1013.8 |
| 20260901074521 | 21 | 261 | 0.0 | 0.0 | 0.00 | 0.08 | 0.03 | 96 | 1013.9 |
| 20260901074442 | 21 | 261 | 0.0 | 0.0 | 0.00 | 0.08 | 0.03 | 96 | 1013.8 |
| 20260901074430 | 21 | 261 | 0.0 | 0.0 | 0.00 | 0.08 | 0.03 | 96 | 1013.8 |
| 20260901074221 | 21 | 261 | 0.0 | 0.0 | 0.00 | 0.08 | 0.03 | 96 | 1013.8 |
| 20260901074121 | 21 | 261 | 0.0 | 0.0 | 0.00 | 0.08 | 0.03 | 96 | 1013.8 |
| 20260901074021 | 21 | 261 | 0.0 | 0.0 | 0.00 | 0.08 | 0.03 | 96 | 1013.9 |
| 20260901073903 | 21 | 261 | 0.0 | 0.0 | 0.00 | 0.08 | 0.03 | 96 | 1013.8 |
| 20260901073820 | 21 | 261 | 0.0 | 0.0 | 0.00 | 0.08 | 0.03 | 96 | 1013.8 |
| 20260901073731 | 21 | 261 | 0.0 | 0.0 | 0.00 | 0.08 | 0.03 | 96 | 1013.8 |
| 20260901073618 | 21 | 261 | 0.0 | 0.0 | 0.00 | 0.08 | 0.03 | 96 | 1013.8 |
| 20260901073536 | 21 | 261 | 0.0 | 0.0 | 0.00 | 0.08 | 0.03 | 96 | 1013.9 |
| 20260901073519 | 21 | 261 | 0.0 | 0.0 | 0.00 | 0.08 | 0.03 | 96 | 1013.8 |
| 20260901073510 | 21 | 261 | 0.0 | 0.0 | 0.00 | 0.08 | 0.03 | 96 | 1013.8 |
| 20260901073316 | 21 | 261 | 0.0 | 0.0 | 0.00 | 0.08 | 0.03 | 96 | 1013.8 |
| 20260901073216 | 21 | 261 | 0.0 | 0.0 | 0.00 | 0.08 | 0.03 | 96 | 1013.7 |
| 20260901073122 | 21 | 261 | 0.0 | 0.0 | 0.00 | 0.08 | 0.03 | 96 | 1013.8 |
| 20260901073114 | 21 | 261 | 0.0 | 0.0 | 0.00 | 0.08 | 0.03 | 96 | 1013.8 |
| 20260901073021 | 21 | 261 | 0.0 | 0.0 | 0.00 | 0.08 | 0.03 | 96 | 1013.9 |
| 20260901073010 | 21 | 261 | 0.0 | 0.0 | 0.00 | 0.08 | 0.03 | 96 | 1013.8 |
| 20260901072812 | 21 | 261 | 0.0 | 0.0 | 0.00 | 0.08 | 0.03 | 96 | 1013.8 |
| 20260901072712 | 21 | 261 | 0.0 | 0.0 | 0.00 | 0.08 | 0.03 | 96 | 1013.8 |
| 20260901072612 | 21 | 261 | 0.0 | 0.0 | 0.00 | 0.08 | 0.03 | 96 | 1013.8 |
| 20260901072523 | 21 | 261 | 0.0 | 0.0 | 0.00 | 0.08 | 0.03 | 96 | 1013.8 |
| 20260901072519 | 21 | 261 | 0.0 | 0.0 | 0.00 | 0.08 | 0.03 | 96 | 1013.7 |
| 20260901072403 | 21 | 261 | 0.0 | 0.0 | 0.00 | 0.08 | 0.03 | 96 | 1013.8 |
| 20260901072309 | 21 | 261 | 0.0 | 0.0 | 0.00 | 0.08 | 0.03 | 96 | 1013.8 |
| 20260901072222 | 21 | 261 | 0.0 | 0.0 | 0.00 | 0.08 | 0.03 | 96 | 1013.8 |
| 20260901072217 | 21 | 261 | 0.0 | 0.0 | 0.00 | 0.08 | 0.03 | 96 | 1013.9 |
| 20260901072021 | 21 | 261 | 0.0 | 0.0 | 0.00 | 0.08 | 0.03 | 96 | 1014.0 |
| 20260901072008 | 21 | 261 | 0.0 | 0.0 | 0.00 | 0.08 | 0.03 | 96 | 1013.9 |
| 20260901071902 | 21 | 261 | 0.0 | 0.0 | 0.00 | 0.08 | 0.03 | 96 | 1013.9 |
| 20260901071806 | 21 | 261 | 0.0 | 0.0 | 0.00 | 0.08 | 0.03 | 96 | 1013.9 |
| 20260901071706 | 21 | 261 | 0.0 | 0.0 | 0.00 | 0.08 | 0.03 | 96 | 1013.9 |
| 20260901071606 | 21 | 261 | 0.0 | 0.0 | 0.00 | 0.08 | 0.03 | 96 | 1013.9 |
| 20260901071521 | 21 | 261 | 0.0 | 0.0 | 0.00 | 0.08 | 0.03 | 96 | 1014.0 |
| 20260901071505 | 21 | 261 | 0.0 | 0.0 | 0.00 | 0.08 | 0.03 | 96 | 1013.9 |
| 20260901071408 | 21 | 261 | 0.0 | 0.0 | 0.00 | 0.08 | 0.03 | 96 | 1013.9 |
| 20260901071401 | 21 | 261 | 0.0 | 0.0 | 0.00 | 0.08 | 0.03 | 96 | 1013.9 |
| 20260901071303 | 21 | 261 | 0.0 | 0.0 | 0.00 | 0.08 | 0.03 | 96 | 1013.8 |
| 20260901071203 | 21 | 261 | 0.0 | 0.0 | 0.00 | 0.08 | 0.03 | 96 | 1013.9 |
| 20260901071103 | 21 | 261 | 0.0 | 0.0 | 0.00 | 0.08 | 0.03 | 96 | 1013.9 |
| 20260901071042 | 21 | 261 | 0.0 | 0.0 | 0.00 | 0.08 | 0.03 | 96 | 1013.9 |
| 20260901071037 | 21 | 261 | 0.0 | 0.0 | 0.00 | 0.08 | 0.03 | 96 | 1013.9 |
| 20260901070918 | 21 | 261 | 0.0 | 0.0 | 0.00 | 0.08 | 0.03 | 96 | 1013.9 |
| 20260901070625 | 21 | 261 | 0.0 | 0.0 | 0.00 | 0.08 | 0.03 | 96 | 1013.9 |
| 20260901070600 | 21 | 261 | 0.0 | 0.0 | 0.00 | 0.08 | 0.03 | 96 | 1013.9 |
| 20260901070522 | 21 | 261 | 0.0 | 0.0 | 0.00 | 0.08 | 0.03 | 96 | 1014.0 |
| 20260901070514 | 21 | 261 | 0.0 | 0.0 | 0.00 | 0.08 | 0.03 | 96 | 1013.9 |
| 20260901070400 | 21 | 261 | 0.0 | 0.0 | 0.00 | 0.08 | 0.03 | 96 | 1013.9 |
| 20260901070259 | 21 | 261 | 0.0 | 0.0 | 0.00 | 0.08 | 0.03 | 96 | 1013.9 |
| 20260901070159 | 21 | 261 | 0.0 | 0.0 | 0.00 | 0.08 | 0.03 | 96 | 1014.0 |
| 20260901070059 | 21 | 261 | 0.0 | 0.0 | 0.00 | 0.08 | 0.03 | 96 | 1014.0 |
| 20260901070021 | 21 | 261 | 0.0 | 0.0 | 0.00 | 0.08 | 0.03 | 96 | 1014.1 |
| 20260901065957 | 21 | 261 | 0.0 | 0.0 | 0.00 | 0.08 | 0.03 | 96 | 1014.0 |
| 20260901065918 | 21 | 261 | 0.0 | 0.0 | 0.00 | 0.08 | 0.03 | 96 | 1013.9 |
| 20260901065805 | 21 | 261 | 0.0 | 0.0 | 0.00 | 0.08 | 0.03 | 96 | 1014.0 |
| 20260901065609 | 21 | 261 | 0.0 | 0.0 | 0.00 | 0.08 | 0.03 | 96 | 1014.1 |
| 20260901065605 | 21 | 261 | 0.0 | 0.0 | 0.00 | 0.08 | 0.03 | 96 | 1014.0 |
| 20260901065521 | 21 | 261 | 0.0 | 0.0 | 0.00 | 0.08 | 0.03 | 96 | 1014.3 |
| 20260901065355 | 21 | 261 | 0.0 | 0.0 | 0.00 | 0.08 | 0.03 | 96 | 1014.1 |
| 20260901065255 | 21 | 261 | 0.0 | 0.0 | 0.00 | 0.08 | 0.03 | 96 | 1014.1 |
| 20260901065154 | 21 | 261 | 0.0 | 0.0 | 0.00 | 0.08 | 0.03 | 96 | 1014.1 |
| 20260901065054 | 21 | 261 | 0.0 | 0.0 | 0.00 | 0.08 | 0.03 | 96 | 1014.1 |
| 20260901065036 | 21 | 261 | 0.0 | 0.0 | 0.00 | 0.08 | 0.03 | 96 | 1014.4 |
| 20260901064952 | 21 | 261 | 0.0 | 0.0 | 0.00 | 0.08 | 0.03 | 96 | 1014.2 |
| 20260901064911 | 21 | 261 | 0.0 | 0.0 | 0.00 | 0.08 | 0.03 | 96 | 1014.1 |
| 20260901064902 | 21 | 261 | 0.0 | 0.0 | 0.00 | 0.08 | 0.03 | 96 | 1014.1 |
| 20260901064653 | 21 | 261 | 0.0 | 0.0 | 0.00 | 0.08 | 0.03 | 96 | 1014.1 |
| 20260901064606 | 21 | 261 | 0.0 | 0.0 | 0.00 | 0.08 | 0.03 | 96 | 1014.1 |
| 20260901064601 | 21 | 261 | 0.0 | 0.0 | 0.00 | 0.08 | 0.03 | 96 | 1014.2 |
| 20260901064521 | 21 | 261 | 0.0 | 0.0 | 0.00 | 0.08 | 0.03 | 96 | 1014.3 |
| 20260901064359 | 21 | 261 | 0.0 | 0.0 | 0.00 | 0.08 | 0.03 | 96 | 1014.1 |
| 20260901064352 | 21 | 261 | 0.0 | 0.0 | 0.00 | 0.08 | 0.03 | 96 | 1014.1 |
| 20260901064323 | 21 | 261 | 0.0 | 0.0 | 0.00 | 0.08 | 0.03 | 96 | 1014.1 |
| 20260901064319 | 21 | 261 | 0.0 | 0.0 | 0.00 | 0.08 | 0.03 | 96 | 1014.2 |
| 20260901064315 | 21 | 261 | 0.0 | 0.0 | 0.00 | 0.08 | 0.03 | 96 | 1014.1 |
| 20260901064310 | 21 | 261 | 0.0 | 0.0 | 0.00 | 0.08 | 0.03 | 96 | 1014.2 |
| 20260901064026 | 21 | 261 | 0.0 | 0.0 | 0.00 | 0.08 | 0.03 | 96 | 1014.1 |
| 20260901064021 | 21 | 261 | 0.0 | 0.0 | 0.00 | 0.08 | 0.03 | 96 | 1014.3 |
| 20260901063911 | 21 | 261 | 0.0 | 0.0 | 0.00 | 0.08 | 0.03 | 96 | 1014.1 |
| 20260901063758 | 21 | 261 | 0.0 | 0.0 | 0.00 | 0.08 | 0.03 | 96 | 1014.1 |
| 20260901063548 | 21 | 261 | 0.0 | 0.0 | 0.00 | 0.08 | 0.03 | 96 | 1014.2 |
| 20260901063521 | 21 | 261 | 0.0 | 0.0 | 0.00 | 0.08 | 0.03 | 96 | 1014.4 |
| 20260901063447 | 21 | 261 | 0.0 | 0.0 | 0.00 | 0.08 | 0.03 | 96 | 1014.2 |
| 20260901063347 | 21 | 261 | 0.0 | 0.0 | 0.00 | 0.08 | 0.03 | 96 | 1014.2 |
| 20260901063246 | 21 | 261 | 0.0 | 0.0 | 0.00 | 0.08 | 0.03 | 96 | 1014.2 |
| 20260901063228 | 21 | 261 | 0.0 | 0.0 | 0.00 | 0.08 | 0.03 | 96 | 1014.2 |
| 20260901063046 | 21 | 261 | 0.0 | 0.0 | 0.00 | 0.08 | 0.03 | 96 | 1014.2 |
| 20260901063022 | 21 | 261 | 0.0 | 0.0 | 0.00 | 0.08 | 0.03 | 96 | 1014.4 |
| 20260901063004 | 21 | 261 | 0.0 | 0.0 | 0.00 | 0.08 | 0.03 | 96 | 1014.2 |
| 20260901062847 | 21 | 261 | 0.0 | 0.0 | 0.00 | 0.08 | 0.03 | 96 | 1014.2 |
| 20260901062745 | 21 | 261 | 0.0 | 0.0 | 0.00 | 0.08 | 0.03 | 96 | 1014.2 |
| 20260901062645 | 21 | 261 | 0.0 | 0.0 | 0.00 | 0.08 | 0.03 | 96 | 1014.3 |
| 20260901062613 | 21 | 261 | 0.0 | 0.0 | 0.00 | 0.08 | 0.03 | 96 | 1014.3 |
| 20260901062545 | 21 | 261 | 0.0 | 0.0 | 0.00 | 0.08 | 0.03 | 96 | 1014.3 |
| 20260901062521 | 21 | 261 | 0.0 | 0.0 | 0.00 | 0.08 | 0.03 | 96 | 1014.5 |
| 20260901062444 | 21 | 261 | 0.0 | 0.0 | 0.00 | 0.08 | 0.03 | 96 | 1014.3 |
| 20260901062344 | 21 | 261 | 0.0 | 0.0 | 0.00 | 0.08 | 0.03 | 96 | 1014.3 |
| 20260901062244 | 21 | 261 | 0.0 | 0.0 | 0.00 | 0.08 | 0.03 | 96 | 1014.3 |
| 20260901062143 | 21 | 261 | 0.0 | 0.0 | 0.00 | 0.08 | 0.03 | 96 | 1014.3 |
| 20260901062043 | 21 | 261 | 0.0 | 0.0 | 0.00 | 0.08 | 0.03 | 96 | 1014.4 |
| 20260901062021 | 21 | 261 | 0.0 | 0.0 | 0.00 | 0.08 | 0.03 | 96 | 1014.6 |
| 20260901061943 | 21 | 261 | 0.0 | 0.0 | 0.00 | 0.08 | 0.03 | 96 | 1014.4 |
| 20260901061842 | 21 | 261 | 0.0 | 0.0 | 0.00 | 0.08 | 0.03 | 96 | 1014.4 |
| 20260901061742 | 21 | 261 | 0.0 | 0.0 | 0.00 | 0.08 | 0.03 | 96 | 1014.4 |
| 20260901061641 | 21 | 261 | 0.0 | 0.0 | 0.00 | 0.08 | 0.03 | 96 | 1014.4 |
| 20260901061541 | 21 | 261 | 0.0 | 0.0 | 0.00 | 0.08 | 0.03 | 96 | 1014.4 |
| 20260901061521 | 21 | 261 | 0.0 | 0.0 | 0.00 | 0.08 | 0.03 | 96 | 1014.6 |
| 20260901061440 | 21 | 261 | 0.0 | 0.0 | 0.00 | 0.08 | 0.03 | 96 | 1014.4 |
| 20260901061339 | 21 | 261 | 0.0 | 0.0 | 0.00 | 0.08 | 0.03 | 96 | 1014.4 |
| 20260901061239 | 21 | 261 | 0.0 | 0.0 | 0.00 | 0.08 | 0.03 | 96 | 1014.5 |
| 20260901061138 | 21 | 261 | 0.0 | 0.0 | 0.00 | 0.08 | 0.03 | 96 | 1014.5 |
| 20260901061037 | 21 | 261 | 0.0 | 0.0 | 0.00 | 0.08 | 0.03 | 96 | 1014.5 |
| 20260901061022 | 21 | 261 | 0.0 | 0.0 | 0.00 | 0.08 | 0.03 | 96 | 1014.7 |
| 20260901060952 | 21 | 261 | 0.0 | 0.0 | 0.00 | 0.08 | 0.03 | 96 | 1014.5 |
| 20260901060944 | 21 | 261 | 0.0 | 0.0 | 0.00 | 0.08 | 0.03 | 96 | 1014.5 |
| 20260901060751 | 21 | 261 | 0.0 | 0.0 | 0.00 | 0.08 | 0.03 | 96 | 1014.5 |
| 20260901060745 | 21 | 261 | 0.0 | 0.0 | 0.00 | 0.08 | 0.03 | 96 | 1014.5 |
| 20260901060609 | 21 | 261 | 0.0 | 0.0 | 0.00 | 0.08 | 0.03 | 96 | 1014.5 |
| 20260901060535 | 21 | 261 | 0.0 | 0.0 | 0.00 | 0.08 | 0.03 | 96 | 1014.5 |
| 20260901060521 | 21 | 261 | 0.0 | 0.0 | 0.00 | 0.08 | 0.03 | 96 | 1014.6 |
| 20260901060456 | 21 | 261 | 0.0 | 0.0 | 0.00 | 0.08 | 0.03 | 96 | 1014.4 |
| 20260901060335 | 21 | 261 | 0.0 | 0.0 | 0.00 | 0.08 | 0.03 | 96 | 1014.5 |
| 20260901060248 | 21 | 261 | 0.0 | 0.0 | 0.00 | 0.08 | 0.03 | 96 | 1014.5 |
| 20260901060243 | 21 | 261 | 0.0 | 0.0 | 0.00 | 0.08 | 0.03 | 96 | 1014.4 |
| 20260901060033 | 21 | 261 | 0.0 | 0.0 | 0.00 | 0.08 | 0.03 | 96 | 1014.4 |
| 20260901060021 | 21 | 261 | 0.0 | 0.0 | 0.00 | 0.08 | 0.03 | 96 | 1014.7 |
| 20260901055931 | 21 | 261 | 0.0 | 0.0 | 0.00 | 0.08 | 0.03 | 96 | 1014.5 |
| 20260901055831 | 21 | 261 | 0.0 | 0.0 | 0.00 | 0.08 | 0.03 | 96 | 1014.5 |
| 20260901055730 | 21 | 261 | 0.0 | 0.0 | 0.00 | 0.08 | 0.03 | 96 | 1014.5 |
| 20260901055722 | 21 | 261 | 0.0 | 0.0 | 0.00 | 0.08 | 0.03 | 96 | 1014.5 |
| 20260901055716 | 21 | 261 | 0.0 | 0.0 | 0.00 | 0.08 | 0.03 | 96 | 1014.5 |
| 20260901055603 | 21 | 261 | 0.0 | 0.0 | 0.00 | 0.08 | 0.03 | 96 | 1014.5 |
| 20260901055521 | 21 | 261 | 0.0 | 0.0 | 0.00 | 0.08 | 0.03 | 96 | 1014.7 |
| 20260901055329 | 21 | 261 | 0.0 | 0.0 | 0.00 | 0.08 | 0.03 | 96 | 1014.5 |
| 20260901055227 | 21 | 261 | 0.0 | 0.0 | 0.00 | 0.08 | 0.03 | 96 | 1014.5 |
| 20260901055127 | 21 | 261 | 0.0 | 0.0 | 0.00 | 0.08 | 0.03 | 96 | 1014.5 |
| 20260901055028 | 21 | 261 | 0.0 | 0.0 | 0.00 | 0.08 | 0.03 | 96 | 1014.5 |
| 20260901055021 | 21 | 261 | 0.0 | 0.0 | 0.00 | 0.08 | 0.03 | 96 | 1014.7 |
| 20260901054927 | 21 | 261 | 0.0 | 0.0 | 0.00 | 0.08 | 0.03 | 96 | 1014.5 |
| 20260901054826 | 21 | 261 | 0.0 | 0.0 | 0.00 | 0.08 | 0.03 | 96 | 1014.6 |
| 20260901054726 | 21 | 261 | 0.0 | 0.0 | 0.00 | 0.08 | 0.03 | 96 | 1014.6 |
| 20260901054625 | 21 | 261 | 0.0 | 0.0 | 0.00 | 0.08 | 0.03 | 96 | 1014.6 |
| 20260901054602 | 21 | 261 | 0.0 | 0.0 | 0.00 | 0.08 | 0.03 | 96 | 1014.6 |
| 20260901054525 | 21 | 261 | 0.0 | 0.0 | 0.00 | 0.08 | 0.03 | 96 | 1014.6 |
| 20260901054521 | 21 | 261 | 0.0 | 0.0 | 0.00 | 0.08 | 0.03 | 96 | 1014.8 |
| 20260901054452 | 21 | 261 | 0.0 | 0.0 | 0.00 | 0.08 | 0.03 | 96 | 1014.6 |
| 20260901054324 | 21 | 261 | 0.0 | 0.0 | 0.00 | 0.08 | 0.03 | 96 | 1014.6 |
| 20260901054222 | 21 | 261 | 0.0 | 0.0 | 0.00 | 0.08 | 0.03 | 96 | 1014.6 |
| 20260901054122 | 21 | 261 | 0.0 | 0.0 | 0.00 | 0.08 | 0.03 | 96 | 1014.6 |
| 20260901054037 | 21 | 261 | 0.0 | 0.0 | 0.00 | 0.08 | 0.03 | 96 | 1014.6 |
| 20260901054031 | 21 | 261 | 0.0 | 0.0 | 0.00 | 0.08 | 0.03 | 96 | 1014.6 |
| 20260901054023 | 21 | 261 | 0.0 | 0.0 | 0.00 | 0.08 | 0.03 | 96 | 1014.8 |
| 20260901053836 | 21 | 261 | 0.0 | 0.0 | 0.00 | 0.08 | 0.03 | 96 | 1014.6 |
| 20260901053830 | 21 | 261 | 0.0 | 0.0 | 0.00 | 0.08 | 0.03 | 96 | 1014.7 |
| 20260901053621 | 21 | 261 | 0.0 | 0.0 | 0.00 | 0.08 | 0.03 | 96 | 1014.6 |
| 20260901053521 | 21 | 261 | 0.0 | 0.0 | 0.00 | 0.08 | 0.03 | 96 | 1014.8 |
| 20260901053420 | 21 | 261 | 0.0 | 0.0 | 0.00 | 0.08 | 0.03 | 96 | 1014.6 |
| 20260901053320 | 21 | 261 | 0.0 | 0.0 | 0.00 | 0.08 | 0.03 | 96 | 1014.5 |
| 20260901053219 | 21 | 261 | 0.0 | 0.0 | 0.00 | 0.08 | 0.03 | 96 | 1014.5 |
| 20260901053119 | 21 | 261 | 0.0 | 0.0 | 0.00 | 0.08 | 0.03 | 96 | 1014.6 |
| 20260901053021 | 21 | 261 | 0.0 | 0.0 | 0.03 | 0.08 | 0.03 | 96 | 1014.7 |
| 20260901053018 | 21 | 261 | 0.0 | 0.0 | 0.03 | 0.08 | 0.03 | 96 | 1014.5 |
| 20260901052918 | 21 | 261 | 0.0 | 0.0 | 0.03 | 0.08 | 0.03 | 96 | 1014.5 |
| 20260901052818 | 21 | 261 | 0.0 | 0.0 | 0.03 | 0.08 | 0.03 | 96 | 1014.5 |
| 20260901052717 | 21 | 261 | 0.0 | 0.0 | 0.03 | 0.08 | 0.03 | 96 | 1014.6 |
| 20260901052617 | 21 | 261 | 0.0 | 0.0 | 0.03 | 0.08 | 0.03 | 96 | 1014.5 |
| 20260901052554 | 21 | 261 | 0.0 | 0.0 | 0.03 | 0.08 | 0.03 | 96 | 1014.5 |
| 20260901052537 | 21 | 261 | 0.0 | 0.0 | 0.03 | 0.08 | 0.03 | 96 | 1014.7 |
| 20260901052516 | 21 | 261 | 0.0 | 0.0 | 0.03 | 0.08 | 0.03 | 96 | 1014.5 |
| 20260901052443 | 21 | 261 | 0.0 | 0.0 | 0.03 | 0.08 | 0.03 | 96 | 1014.5 |
| 20260901052329 | 21 | 261 | 0.0 | 0.0 | 0.03 | 0.08 | 0.03 | 96 | 1014.5 |
| 20260901052324 | 21 | 261 | 0.0 | 0.0 | 0.03 | 0.08 | 0.03 | 96 | 1014.5 |
| 20260901052114 | 21 | 261 | 0.0 | 0.0 | 0.03 | 0.08 | 0.03 | 96 | 1014.5 |
| 20260901052021 | 21 | 261 | 0.0 | 0.0 | 0.03 | 0.08 | 0.03 | 96 | 1014.6 |
| 20260901052014 | 21 | 261 | 0.0 | 0.0 | 0.03 | 0.08 | 0.03 | 96 | 1014.5 |
| 20260901051912 | 21 | 261 | 0.0 | 0.0 | 0.03 | 0.08 | 0.03 | 96 | 1014.4 |
| 20260901051813 | 21 | 261 | 0.0 | 0.0 | 0.03 | 0.08 | 0.03 | 96 | 1014.4 |
| 20260901051727 | 21 | 261 | 0.0 | 0.0 | 0.03 | 0.08 | 0.03 | 96 | 1014.4 |
| 20260901051721 | 21 | 261 | 0.0 | 0.0 | 0.03 | 0.08 | 0.03 | 96 | 1014.4 |
| 20260901051603 | 21 | 261 | 0.0 | 0.0 | 0.03 | 0.08 | 0.03 | 96 | 1014.3 |
| 20260901051557 | 21 | 261 | 0.0 | 0.0 | 0.03 | 0.08 | 0.03 | 96 | 1014.4 |
| 20260901051550 | 21 | 261 | 0.0 | 0.0 | 0.03 | 0.08 | 0.03 | 96 | 1014.4 |
| 20260901051521 | 21 | 261 | 0.0 | 0.0 | 0.03 | 0.08 | 0.03 | 96 | 1014.6 |
| 20260901051311 | 21 | 262 | 0.0 | 0.0 | 0.03 | 0.08 | 0.03 | 96 | 1014.3 |
| 20260901051210 | 21 | 262 | 0.0 | 0.0 | 0.03 | 0.08 | 0.03 | 96 | 1014.4 |
| 20260901051109 | 21 | 262 | 0.0 | 0.0 | 0.03 | 0.08 | 0.03 | 96 | 1014.4 |
| 20260901051021 | 21 | 262 | 0.0 | 0.0 | 0.03 | 0.08 | 0.03 | 96 | 1014.6 |
| 20260901051009 | 21 | 262 | 0.0 | 0.0 | 0.03 | 0.08 | 0.03 | 96 | 1014.4 |
| 20260901050908 | 21 | 262 | 0.0 | 0.0 | 0.03 | 0.08 | 0.03 | 96 | 1014.4 |
| 20260901050808 | 21 | 262 | 0.0 | 0.0 | 0.03 | 0.08 | 0.03 | 96 | 1014.4 |
| 20260901050707 | 21 | 262 | 0.0 | 0.0 | 0.03 | 0.08 | 0.03 | 96 | 1014.4 |
| 20260901050608 | 21 | 262 | 0.0 | 0.0 | 0.03 | 0.08 | 0.03 | 96 | 1014.5 |
| 20260901050522 | 21 | 262 | 0.0 | 0.0 | 0.03 | 0.08 | 0.03 | 96 | 1014.8 |
| 20260901050506 | 21 | 262 | 0.0 | 0.0 | 0.03 | 0.08 | 0.03 | 96 | 1014.5 |
| 20260901050405 | 21 | 262 | 0.0 | 0.0 | 0.03 | 0.08 | 0.03 | 96 | 1014.6 |
| 20260901050305 | 21 | 262 | 0.0 | 0.0 | 0.03 | 0.08 | 0.03 | 96 | 1014.6 |
| 20260901050204 | 21 | 262 | 0.0 | 0.0 | 0.03 | 0.08 | 0.03 | 96 | 1014.7 |
| 20260901050104 | 21 | 262 | 0.0 | 0.0 | 0.03 | 0.08 | 0.03 | 96 | 1014.7 |
| 20260901050022 | 21 | 262 | 0.0 | 0.0 | 0.03 | 0.08 | 0.03 | 96 | 1015.0 |
| 20260901050004 | 21 | 262 | 0.0 | 0.0 | 0.03 | 0.08 | 0.03 | 96 | 1014.8 |
| 20260901045919 | 21 | 262 | 0.0 | 0.0 | 0.03 | 0.08 | 0.03 | 96 | 1014.8 |
| 20260901045911 | 21 | 262 | 0.0 | 0.0 | 0.03 | 0.08 | 0.03 | 96 | 1014.8 |
| 20260901045712 | 21 | 262 | 0.0 | 0.0 | 0.03 | 0.08 | 0.03 | 96 | 1014.8 |
| 20260901045703 | 21 | 262 | 0.0 | 0.0 | 0.03 | 0.08 | 0.03 | 96 | 1014.8 |
| 20260901045521 | 21 | 262 | 0.0 | 0.0 | 0.03 | 0.08 | 0.03 | 96 | 1015.0 |
| 20260901045502 | 21 | 262 | 0.0 | 0.0 | 0.03 | 0.08 | 0.03 | 96 | 1014.8 |
| 20260901045440 | 21 | 261 | 0.0 | 0.0 | 0.03 | 0.08 | 0.03 | 96 | 1014.7 |
| 20260901045306 | 21 | 261 | 0.0 | 0.0 | 0.03 | 0.08 | 0.03 | 96 | 1014.7 |
| 20260901045226 | 21 | 261 | 0.0 | 0.0 | 0.03 | 0.08 | 0.03 | 96 | 1014.7 |
| 20260901045222 | 21 | 261 | 0.0 | 0.0 | 0.03 | 0.08 | 0.03 | 96 | 1014.7 |
| 20260901045217 | 21 | 261 | 0.0 | 0.0 | 0.03 | 0.08 | 0.03 | 96 | 1014.7 |
| 20260901045021 | 21 | 261 | 0.0 | 0.0 | 0.03 | 0.08 | 0.03 | 96 | 1014.9 |
| 20260901044831 | 21 | 261 | 0.0 | 0.0 | 0.03 | 0.08 | 0.03 | 96 | 1014.6 |
| 20260901044758 | 21 | 269 | 0.0 | 0.0 | 0.03 | 0.08 | 0.03 | 96 | 1014.7 |
| 20260901044657 | 21 | 269 | 0.0 | 0.0 | 0.03 | 0.08 | 0.03 | 96 | 1014.7 |
| 20260901044556 | 21 | 269 | 0.0 | 0.0 | 0.03 | 0.08 | 0.03 | 96 | 1014.7 |
| 20260901044521 | 21 | 182 | 0.0 | 0.0 | 0.03 | 0.08 | 0.03 | 96 | 1014.9 |
| 20260901044456 | 21 | 182 | 0.0 | 0.0 | 0.03 | 0.08 | 0.03 | 96 | 1014.7 |
| 20260901044333 | 21 | 182 | 0.0 | 0.0 | 0.03 | 0.08 | 0.03 | 96 | 1014.7 |
| 20260901044255 | 21 | 182 | 0.0 | 0.0 | 0.03 | 0.08 | 0.03 | 96 | 1014.7 |
| 20260901044154 | 21 | 182 | 0.0 | 0.0 | 0.03 | 0.08 | 0.03 | 96 | 1014.6 |
| 20260901044053 | 21 | 182 | 0.0 | 0.0 | 0.03 | 0.08 | 0.03 | 96 | 1014.6 |
| 20260901044021 | 21 | 182 | 0.0 | 0.0 | 0.03 | 0.08 | 0.03 | 96 | 1014.8 |
| 20260901043953 | 21 | 182 | 0.0 | 0.0 | 0.03 | 0.08 | 0.03 | 96 | 1014.6 |
| 20260901043853 | 21 | 182 | 0.0 | 0.0 | 0.03 | 0.08 | 0.03 | 96 | 1014.6 |
| 20260901043830 | 21 | 173 | 0.0 | 0.0 | 0.03 | 0.08 | 0.03 | 96 | 1014.6 |
| 20260901043752 | 21 | 171 | 0.0 | 0.0 | 0.03 | 0.08 | 0.03 | 96 | 1014.6 |
| 20260901043652 | 21 | 173 | 0.0 | 0.0 | 0.03 | 0.08 | 0.03 | 96 | 1014.6 |
| 20260901043550 | 21 | 173 | 0.0 | 0.0 | 0.03 | 0.08 | 0.03 | 96 | 1014.6 |
| 20260901043521 | 21 | 173 | 0.0 | 0.0 | 0.03 | 0.08 | 0.03 | 96 | 1014.8 |
| 20260901043504 | 20 | 139 | 0.0 | 0.0 | 0.03 | 0.08 | 0.03 | 96 | 1014.6 |
| 20260901043459 | 20 | 198 | 0.0 | 0.0 | 0.03 | 0.08 | 0.03 | 96 | 1014.6 |
| 20260901043329 | 20 | 146 | 0.0 | 0.0 | 0.03 | 0.08 | 0.03 | 96 | 1014.6 |
| 20260901043249 | 20 | 167 | 0.0 | 0.0 | 0.03 | 0.08 | 0.03 | 96 | 1014.6 |
| 20260901043149 | 20 | 169 | 0.0 | 0.0 | 0.03 | 0.08 | 0.03 | 96 | 1014.7 |
| 20260901043102 | 20 | 150 | 0.0 | 0.0 | 0.00 | 0.05 | 0.00 | 96 | 1014.7 |
| 20260901043057 | 20 | 165 | 0.0 | 0.0 | 0.03 | 0.08 | 0.03 | 96 | 1014.7 |
| 20260901043021 | 20 | 147 | 0.0 | 0.0 | 0.00 | 0.05 | 0.00 | 96 | 1014.9 |
| 20260901042848 | 20 | 167 | 0.0 | 0.0 | 0.00 | 0.05 | 0.00 | 95 | 1014.8 |
| 20260901042827 | 20 | 151 | 0.0 | 0.0 | 0.00 | 0.05 | 0.00 | 95 | 1014.8 |
| 20260901042801 | 20 | 183 | 0.0 | 0.0 | 0.00 | 0.05 | 0.00 | 95 | 1014.9 |
| 20260901042756 | 20 | 161 | 0.0 | 0.0 | 0.00 | 0.05 | 0.00 | 95 | 1014.9 |
| 20260901042546 | 20 | 224 | 0.0 | 0.0 | 0.00 | 0.05 | 0.00 | 95 | 1015.0 |
| 20260901042522 | 20 | 224 | 0.0 | 0.0 | 0.00 | 0.05 | 0.00 | 95 | 1015.3 |
| 20260901042446 | 20 | 226 | 0.0 | 0.0 | 0.00 | 0.05 | 0.00 | 95 | 1015.1 |
| 20260901042327 | 20 | 228 | 0.0 | 0.0 | 0.00 | 0.05 | 0.00 | 95 | 1015.1 |
| 20260901042245 | 20 | 228 | 0.0 | 0.0 | 0.00 | 0.05 | 0.00 | 95 | 1015.1 |
| 20260901042144 | 20 | 228 | 0.0 | 0.0 | 0.00 | 0.05 | 0.00 | 96 | 1015.2 |
| 20260901042044 | 20 | 228 | 0.0 | 0.0 | 0.00 | 0.05 | 0.00 | 96 | 1015.3 |
| 20260901042022 | 20 | 228 | 0.0 | 0.0 | 0.00 | 0.05 | 0.00 | 96 | 1015.5 |
| 20260901041944 | 20 | 228 | 0.0 | 0.0 | 0.00 | 0.05 | 0.00 | 96 | 1015.3 |
| 20260901041902 | 20 | 228 | 0.0 | 0.0 | 0.00 | 0.05 | 0.00 | 96 | 1015.4 |
| 20260901041850 | 20 | 228 | 0.0 | 0.0 | 0.00 | 0.05 | 0.00 | 96 | 1015.3 |
| 20260901041642 | 20 | 228 | 0.0 | 0.0 | 0.00 | 0.05 | 0.00 | 95 | 1015.4 |
| 20260901041542 | 20 | 228 | 0.0 | 0.0 | 0.00 | 0.05 | 0.00 | 95 | 1015.4 |
| 20260901041521 | 20 | 228 | 0.0 | 0.0 | 0.00 | 0.05 | 0.00 | 96 | 1015.6 |
| 20260901041455 | 20 | 228 | 0.0 | 0.0 | 0.00 | 0.05 | 0.00 | 96 | 1015.4 |
| 20260901041450 | 20 | 228 | 0.0 | 0.0 | 0.00 | 0.05 | 0.00 | 96 | 1015.4 |
| 20260901041323 | 20 | 228 | 0.0 | 0.0 | 0.00 | 0.05 | 0.00 | 96 | 1015.4 |
| 20260901041240 | 20 | 228 | 0.0 | 0.0 | 0.00 | 0.05 | 0.00 | 96 | 1015.4 |
| 20260901041140 | 20 | 228 | 0.0 | 0.0 | 0.00 | 0.05 | 0.00 | 96 | 1015.4 |
| 20260901041040 | 20 | 228 | 0.0 | 0.0 | 0.00 | 0.05 | 0.00 | 96 | 1015.4 |
| 20260901041021 | 20 | 228 | 0.0 | 0.0 | 0.00 | 0.05 | 0.00 | 96 | 1015.6 |
| 20260901040939 | 20 | 228 | 0.0 | 0.0 | 0.00 | 0.05 | 0.00 | 96 | 1015.4 |
| 20260901040821 | 20 | 228 | 0.0 | 0.0 | 0.00 | 0.05 | 0.00 | 96 | 1015.4 |
| 20260901040739 | 20 | 228 | 0.0 | 0.0 | 0.00 | 0.05 | 0.00 | 96 | 1015.5 |
| 20260901040639 | 20 | 228 | 0.0 | 0.0 | 0.00 | 0.05 | 0.00 | 96 | 1015.4 |
| 20260901040538 | 20 | 228 | 0.0 | 0.0 | 0.00 | 0.05 | 0.00 | 96 | 1015.4 |
| 20260901040522 | 20 | 228 | 0.0 | 0.0 | 0.00 | 0.05 | 0.00 | 96 | 1015.6 |
| 20260901040437 | 20 | 228 | 0.0 | 0.0 | 0.00 | 0.05 | 0.00 | 96 | 1015.4 |
| 20260901040321 | 20 | 228 | 0.0 | 0.0 | 0.00 | 0.05 | 0.00 | 96 | 1015.5 |
| 20260901040236 | 20 | 228 | 0.0 | 0.0 | 0.00 | 0.05 | 0.00 | 96 | 1015.4 |
| 20260901040136 | 20 | 228 | 0.0 | 0.0 | 0.00 | 0.05 | 0.00 | 96 | 1015.5 |
| 20260901040035 | 20 | 228 | 0.0 | 0.0 | 0.00 | 0.05 | 0.00 | 96 | 1015.4 |
| 20260901040021 | 20 | 228 | 0.0 | 0.0 | 0.00 | 0.05 | 0.00 | 96 | 1015.6 |
| 20260901035935 | 20 | 228 | 0.0 | 0.0 | 0.00 | 0.05 | 0.05 | 96 | 1015.4 |
| 20260901035820 | 20 | 228 | 0.0 | 0.0 | 0.00 | 0.05 | 0.05 | 96 | 1015.4 |
| 20260901035733 | 20 | 228 | 0.0 | 0.0 | 0.00 | 0.05 | 0.05 | 96 | 1015.4 |
| 20260901035633 | 20 | 228 | 0.0 | 0.0 | 0.00 | 0.05 | 0.05 | 95 | 1015.4 |
| 20260901035617 | 20 | 228 | 0.0 | 0.0 | 0.00 | 0.05 | 0.05 | 96 | 1015.4 |
| 20260901035613 | 20 | 228 | 0.0 | 0.0 | 0.00 | 0.05 | 0.05 | 95 | 1015.4 |
| 20260901035609 | 20 | 228 | 0.0 | 0.0 | 0.00 | 0.05 | 0.05 | 95 | 1015.4 |
| 20260901035604 | 20 | 228 | 0.0 | 0.0 | 0.00 | 0.05 | 0.05 | 96 | 1015.3 |
| 20260901035521 | 20 | 228 | 0.0 | 0.0 | 0.00 | 0.05 | 0.05 | 96 | 1015.5 |
| 20260901035337 | 20 | 228 | 0.0 | 0.0 | 0.00 | 0.05 | 0.05 | 95 | 1015.4 |
| 20260901035131 | 20 | 228 | 0.0 | 0.0 | 0.00 | 0.05 | 0.05 | 95 | 1015.4 |
| 20260901035042 | 20 | 228 | 0.0 | 0.0 | 0.00 | 0.05 | 0.05 | 95 | 1015.4 |
| 20260901035038 | 20 | 228 | 0.0 | 0.0 | 0.00 | 0.05 | 0.05 | 95 | 1015.4 |
| 20260901035022 | 20 | 228 | 0.0 | 0.0 | 0.00 | 0.05 | 0.05 | 95 | 1015.5 |
| 20260901034818 | 20 | 228 | 0.0 | 0.0 | 0.00 | 0.05 | 0.05 | 95 | 1015.3 |
| 20260901034728 | 20 | 228 | 0.0 | 0.0 | 0.00 | 0.05 | 0.05 | 95 | 1015.3 |
| 20260901034627 | 20 | 228 | 0.0 | 0.0 | 0.00 | 0.05 | 0.05 | 95 | 1015.3 |
| 20260901034527 | 20 | 228 | 0.0 | 0.0 | 0.00 | 0.05 | 0.05 | 95 | 1015.3 |
| 20260901034521 | 20 | 228 | 0.0 | 0.0 | 0.00 | 0.05 | 0.05 | 95 | 1015.4 |
| 20260901034428 | 20 | 228 | 0.0 | 0.0 | 0.00 | 0.05 | 0.05 | 95 | 1015.3 |
| 20260901034317 | 20 | 228 | 0.0 | 0.0 | 0.00 | 0.05 | 0.05 | 95 | 1015.4 |
| 20260901034226 | 20 | 228 | 0.0 | 0.0 | 0.00 | 0.05 | 0.05 | 95 | 1015.3 |
| 20260901034126 | 20 | 228 | 0.0 | 0.0 | 0.00 | 0.05 | 0.05 | 95 | 1015.4 |
| 20260901034041 | 20 | 228 | 0.0 | 0.0 | 0.00 | 0.05 | 0.05 | 95 | 1015.3 |
| 20260901034026 | 20 | 228 | 0.0 | 0.0 | 0.00 | 0.05 | 0.05 | 95 | 1015.3 |
| 20260901034022 | 20 | 228 | 0.0 | 0.0 | 0.00 | 0.05 | 0.05 | 95 | 1015.5 |
| 20260901033935 | 20 | 228 | 0.0 | 0.0 | 0.00 | 0.05 | 0.05 | 95 | 1015.4 |
| 20260901033926 | 20 | 228 | 0.0 | 0.0 | 0.00 | 0.05 | 0.05 | 95 | 1015.3 |
| 20260901033724 | 20 | 228 | 0.0 | 0.0 | 0.00 | 0.05 | 0.05 | 95 | 1015.4 |
| 20260901033622 | 20 | 228 | 0.0 | 0.0 | 0.00 | 0.05 | 0.05 | 95 | 1015.4 |
| 20260901033522 | 20 | 228 | 0.0 | 0.0 | 0.00 | 0.05 | 0.05 | 95 | 1015.5 |
| 20260901033439 | 20 | 228 | 0.0 | 0.0 | 0.00 | 0.05 | 0.05 | 95 | 1015.4 |
| 20260901033435 | 20 | 228 | 0.0 | 0.0 | 0.00 | 0.05 | 0.05 | 95 | 1015.4 |
| 20260901033320 | 20 | 228 | 0.0 | 0.0 | 0.00 | 0.05 | 0.05 | 95 | 1015.4 |
| 20260901033220 | 20 | 228 | 0.0 | 0.0 | 0.00 | 0.05 | 0.05 | 95 | 1015.3 |
| 20260901033120 | 20 | 228 | 0.0 | 0.0 | 0.00 | 0.05 | 0.05 | 95 | 1015.3 |
| 20260901033100 | 20 | 228 | 0.0 | 0.0 | 0.00 | 0.05 | 0.05 | 95 | 1015.4 |
| 20260901033054 | 20 | 228 | 0.0 | 0.0 | 0.00 | 0.05 | 0.05 | 95 | 1015.4 |
| 20260901033036 | 20 | 228 | 0.0 | 0.0 | 0.00 | 0.05 | 0.05 | 95 | 1015.5 |
| 20260901032941 | 20 | 228 | 0.0 | 0.0 | 0.00 | 0.05 | 0.05 | 95 | 1015.4 |
| 20260901032827 | 20 | 228 | 0.0 | 0.0 | 0.00 | 0.05 | 0.05 | 95 | 1015.4 |
| 20260901032615 | 20 | 228 | 0.0 | 0.0 | 0.00 | 0.05 | 0.05 | 95 | 1015.4 |
| 20260901032521 | 20 | 228 | 0.0 | 0.0 | 0.00 | 0.05 | 0.05 | 95 | 1015.5 |
| 20260901032514 | 20 | 228 | 0.0 | 0.0 | 0.00 | 0.05 | 0.05 | 95 | 1015.5 |
| 20260901032413 | 20 | 228 | 0.0 | 0.0 | 0.00 | 0.05 | 0.05 | 95 | 1015.4 |
| 20260901032314 | 20 | 228 | 0.0 | 0.0 | 0.00 | 0.05 | 0.05 | 95 | 1015.5 |
| 20260901032212 | 20 | 228 | 0.0 | 0.0 | 0.00 | 0.05 | 0.05 | 95 | 1015.5 |
| 20260901032112 | 20 | 228 | 0.0 | 0.0 | 0.00 | 0.05 | 0.05 | 95 | 1015.5 |
| 20260901032021 | 20 | 228 | 0.0 | 0.0 | 0.00 | 0.05 | 0.05 | 95 | 1015.6 |
| 20260901032012 | 20 | 228 | 0.0 | 0.0 | 0.00 | 0.05 | 0.05 | 95 | 1015.5 |
| 20260901031911 | 20 | 228 | 0.0 | 0.0 | 0.00 | 0.05 | 0.05 | 95 | 1015.5 |
| 20260901031811 | 20 | 228 | 0.0 | 0.0 | 0.00 | 0.05 | 0.05 | 95 | 1015.5 |
| 20260901031711 | 20 | 228 | 0.0 | 0.0 | 0.00 | 0.05 | 0.05 | 95 | 1015.5 |
| 20260901031624 | 20 | 228 | 0.0 | 0.0 | 0.00 | 0.05 | 0.05 | 95 | 1015.5 |
| 20260901031620 | 20 | 228 | 0.0 | 0.0 | 0.00 | 0.05 | 0.05 | 95 | 1015.6 |
| 20260901031521 | 20 | 228 | 0.0 | 0.0 | 0.00 | 0.05 | 0.05 | 95 | 1015.7 |
| 20260901031410 | 20 | 228 | 0.0 | 0.0 | 0.00 | 0.05 | 0.05 | 95 | 1015.6 |
| 20260901031309 | 20 | 228 | 0.0 | 0.0 | 0.00 | 0.05 | 0.05 | 95 | 1015.6 |
| 20260901031209 | 20 | 228 | 0.0 | 0.0 | 0.00 | 0.05 | 0.05 | 95 | 1015.7 |
| 20260901031108 | 20 | 228 | 0.0 | 0.0 | 0.00 | 0.05 | 0.05 | 95 | 1015.7 |
| 20260901031022 | 20 | 228 | 0.0 | 0.0 | 0.00 | 0.05 | 0.05 | 95 | 1015.7 |
| 20260901031008 | 20 | 228 | 0.0 | 0.0 | 0.00 | 0.05 | 0.05 | 95 | 1015.7 |
| 20260901030908 | 20 | 228 | 0.0 | 0.0 | 0.00 | 0.05 | 0.05 | 95 | 1015.6 |
| 20260901030813 | 20 | 228 | 0.0 | 0.0 | 0.00 | 0.05 | 0.05 | 95 | 1015.7 |
| 20260901030807 | 20 | 228 | 0.0 | 0.0 | 0.00 | 0.05 | 0.05 | 95 | 1015.6 |
| 20260901030706 | 20 | 228 | 0.0 | 0.0 | 0.00 | 0.05 | 0.05 | 95 | 1015.6 |
| 20260901030605 | 20 | 228 | 0.0 | 0.0 | 0.00 | 0.05 | 0.05 | 95 | 1015.5 |
| 20260901030522 | 20 | 228 | 0.0 | 0.0 | 0.00 | 0.05 | 0.05 | 95 | 1015.6 |
| 20260901030505 | 20 | 228 | 0.0 | 0.0 | 0.00 | 0.05 | 0.05 | 95 | 1015.5 |
| 20260901030404 | 20 | 228 | 0.0 | 0.0 | 0.00 | 0.05 | 0.05 | 95 | 1015.5 |
| 20260901030304 | 20 | 228 | 0.0 | 0.0 | 0.00 | 0.05 | 0.05 | 95 | 1015.5 |
| 20260901030203 | 20 | 228 | 0.0 | 0.0 | 0.00 | 0.05 | 0.05 | 95 | 1015.5 |
| 20260901030028 | 20 | 228 | 0.0 | 0.0 | 0.00 | 0.05 | 0.05 | 95 | 1015.5 |
| 20260901030022 | 20 | 228 | 0.0 | 0.0 | 0.00 | 0.05 | 0.05 | 95 | 1015.6 |
| 20260901025906 | 20 | 228 | 0.0 | 0.0 | 0.00 | 0.05 | 0.05 | 95 | 1015.6 |
| 20260901025700 | 20 | 228 | 0.0 | 0.0 | 0.00 | 0.05 | 0.05 | 95 | 1015.6 |
| 20260901025600 | 20 | 228 | 0.0 | 0.0 | 0.00 | 0.05 | 0.05 | 95 | 1015.5 |
| 20260901025533 | 20 | 228 | 0.0 | 0.0 | 0.00 | 0.05 | 0.05 | 95 | 1015.5 |
| 20260901025528 | 20 | 228 | 0.0 | 0.0 | 0.00 | 0.05 | 0.05 | 95 | 1015.5 |
| 20260901025523 | 20 | 228 | 0.0 | 0.0 | 0.00 | 0.05 | 0.05 | 95 | 1015.5 |
| 20260901025521 | 20 | 228 | 0.0 | 0.0 | 0.00 | 0.05 | 0.05 | 95 | 1015.6 |
| 20260901025405 | 20 | 228 | 0.0 | 0.0 | 0.00 | 0.05 | 0.05 | 95 | 1015.5 |
| 20260901025157 | 20 | 228 | 0.0 | 0.0 | 0.00 | 0.05 | 0.05 | 95 | 1015.5 |
| 20260901025057 | 20 | 228 | 0.0 | 0.0 | 0.00 | 0.05 | 0.05 | 95 | 1015.5 |
| 20260901025021 | 20 | 228 | 0.0 | 0.0 | 0.00 | 0.05 | 0.05 | 95 | 1015.6 |
| 20260901024957 | 20 | 228 | 0.0 | 0.0 | 0.00 | 0.05 | 0.05 | 95 | 1015.5 |
| 20260901024929 | 20 | 228 | 0.0 | 0.0 | 0.00 | 0.05 | 0.05 | 95 | 1015.4 |
| 20260901024925 | 20 | 228 | 0.0 | 0.0 | 0.00 | 0.05 | 0.05 | 95 | 1015.5 |
| 20260901024911 | 20 | 228 | 0.0 | 0.0 | 0.00 | 0.05 | 0.05 | 95 | 1015.4 |
| 20260901024555 | 20 | 228 | 0.0 | 0.0 | 0.00 | 0.05 | 0.05 | 95 | 1015.5 |
| 20260901024522 | 20 | 228 | 0.0 | 0.0 | 0.00 | 0.05 | 0.05 | 95 | 1015.6 |
| 20260901024455 | 20 | 228 | 0.0 | 0.0 | 0.00 | 0.05 | 0.05 | 95 | 1015.5 |
| 20260901024354 | 20 | 228 | 0.0 | 0.0 | 0.00 | 0.05 | 0.05 | 95 | 1015.5 |
| 20260901024309 | 20 | 228 | 0.0 | 0.0 | 0.00 | 0.05 | 0.05 | 95 | 1015.5 |
| 20260901024254 | 20 | 228 | 0.0 | 0.0 | 0.00 | 0.05 | 0.05 | 95 | 1015.5 |
| 20260901024153 | 20 | 228 | 0.0 | 0.0 | 0.00 | 0.05 | 0.05 | 95 | 1015.5 |
| 20260901024052 | 20 | 228 | 0.0 | 0.0 | 0.00 | 0.05 | 0.05 | 95 | 1015.4 |
| 20260901024022 | 20 | 228 | 0.0 | 0.0 | 0.00 | 0.05 | 0.05 | 95 | 1015.6 |
| 20260901023952 | 20 | 228 | 0.0 | 0.0 | 0.00 | 0.05 | 0.05 | 95 | 1015.5 |
| 20260901023851 | 20 | 228 | 0.0 | 0.0 | 0.00 | 0.05 | 0.05 | 94 | 1015.5 |
| 20260901023809 | 20 | 228 | 0.0 | 0.0 | 0.00 | 0.05 | 0.05 | 94 | 1015.5 |
| 20260901023751 | 20 | 228 | 0.0 | 0.0 | 0.00 | 0.05 | 0.05 | 94 | 1015.5 |
| 20260901023713 | 20 | 228 | 0.0 | 0.0 | 0.00 | 0.05 | 0.05 | 94 | 1015.5 |
| 20260901023559 | 20 | 228 | 0.0 | 0.0 | 0.00 | 0.05 | 0.05 | 95 | 1015.6 |
| 20260901023537 | 20 | 228 | 0.0 | 0.0 | 0.00 | 0.05 | 0.05 | 95 | 1015.7 |
| 20260901023350 | 20 | 228 | 0.0 | 0.0 | 0.00 | 0.05 | 0.05 | 95 | 1015.5 |
| 20260901023308 | 20 | 228 | 0.0 | 0.0 | 0.00 | 0.05 | 0.05 | 95 | 1015.5 |
| 20260901023302 | 20 | 228 | 0.0 | 0.0 | 0.00 | 0.05 | 0.05 | 95 | 1015.6 |
| 20260901023258 | 20 | 228 | 0.0 | 0.0 | 0.00 | 0.05 | 0.05 | 95 | 1015.5 |
| 20260901023049 | 20 | 228 | 0.0 | 0.0 | 0.00 | 0.05 | 0.05 | 95 | 1015.6 |
| 20260901023022 | 20 | 228 | 0.0 | 0.0 | 0.00 | 0.05 | 0.05 | 95 | 1015.7 |
| 20260901022947 | 20 | 228 | 0.0 | 0.0 | 0.00 | 0.05 | 0.05 | 95 | 1015.6 |
| 20260901022847 | 20 | 228 | 0.0 | 0.0 | 0.00 | 0.05 | 0.05 | 95 | 1015.6 |
| 20260901022809 | 20 | 228 | 0.0 | 0.0 | 0.00 | 0.05 | 0.05 | 95 | 1015.6 |
| 20260901022746 | 20 | 228 | 0.0 | 0.0 | 0.00 | 0.05 | 0.05 | 95 | 1015.6 |
| 20260901022659 | 20 | 228 | 0.0 | 0.0 | 0.00 | 0.05 | 0.05 | 95 | 1015.6 |
| 20260901022655 | 20 | 228 | 0.0 | 0.0 | 0.00 | 0.05 | 0.05 | 95 | 1015.6 |
| 20260901022522 | 20 | 228 | 0.0 | 0.0 | 0.00 | 0.05 | 0.05 | 95 | 1015.7 |
| 20260901022445 | 20 | 228 | 0.0 | 0.0 | 0.00 | 0.05 | 0.05 | 95 | 1015.6 |
| 20260901022345 | 20 | 228 | 0.0 | 0.0 | 0.00 | 0.05 | 0.05 | 95 | 1015.6 |
| 20260901022306 | 20 | 228 | 0.0 | 0.0 | 0.00 | 0.05 | 0.05 | 95 | 1015.6 |
| 20260901022245 | 20 | 228 | 0.0 | 0.0 | 0.00 | 0.05 | 0.05 | 95 | 1015.6 |
| 20260901022144 | 20 | 228 | 0.0 | 0.0 | 0.00 | 0.05 | 0.05 | 94 | 1015.7 |
| 20260901022044 | 20 | 228 | 0.0 | 0.0 | 0.00 | 0.08 | 0.05 | 94 | 1015.7 |
| 20260901022022 | 20 | 228 | 0.0 | 0.0 | 0.00 | 0.08 | 0.05 | 94 | 1015.8 |
| 20260901021943 | 20 | 228 | 0.0 | 0.0 | 0.00 | 0.08 | 0.05 | 94 | 1015.7 |
| 20260901021843 | 20 | 228 | 0.0 | 0.0 | 0.00 | 0.08 | 0.05 | 94 | 1015.6 |
| 20260901021806 | 20 | 228 | 0.0 | 0.0 | 0.00 | 0.08 | 0.05 | 94 | 1015.6 |
| 20260901021743 | 20 | 228 | 0.0 | 0.0 | 0.00 | 0.13 | 0.05 | 94 | 1015.7 |
| 20260901021642 | 20 | 228 | 0.0 | 0.0 | 0.00 | 0.13 | 0.05 | 94 | 1015.7 |
| 20260901021542 | 20 | 228 | 0.0 | 0.0 | 0.00 | 0.15 | 0.05 | 94 | 1015.6 |
| 20260901021522 | 20 | 228 | 0.0 | 0.0 | 0.00 | 0.23 | 0.05 | 94 | 1015.7 |
| 20260901021441 | 20 | 228 | 0.0 | 0.0 | 0.00 | 0.25 | 0.05 | 94 | 1015.6 |
| 20260901021341 | 20 | 228 | 0.0 | 0.0 | 0.00 | 0.36 | 0.05 | 94 | 1015.6 |
| 20260901021306 | 20 | 228 | 0.0 | 0.0 | 0.00 | 0.38 | 0.05 | 94 | 1015.6 |
| 20260901021241 | 20 | 228 | 0.0 | 0.0 | 0.00 | 0.38 | 0.05 | 94 | 1015.6 |
| 20260901021139 | 20 | 228 | 0.0 | 0.0 | 0.00 | 0.41 | 0.05 | 94 | 1015.6 |
| 20260901021039 | 20 | 228 | 0.0 | 0.0 | 0.00 | 0.51 | 0.05 | 94 | 1015.6 |
| 20260901021022 | 20 | 228 | 0.0 | 0.0 | 0.00 | 0.53 | 0.05 | 94 | 1015.7 |
| 20260901020938 | 20 | 228 | 0.0 | 0.0 | 0.00 | 0.64 | 0.05 | 94 | 1015.6 |
| 20260901020837 | 20 | 228 | 0.0 | 0.0 | 0.00 | 0.81 | 0.05 | 94 | 1015.6 |
| 20260901020806 | 20 | 228 | 0.0 | 0.0 | 0.00 | 0.81 | 0.05 | 94 | 1015.6 |
| 20260901020737 | 20 | 228 | 0.0 | 0.0 | 0.00 | 0.86 | 0.05 | 94 | 1015.7 |
| 20260901020637 | 20 | 228 | 0.0 | 0.0 | 0.00 | 0.91 | 0.05 | 94 | 1015.6 |
| 20260901020536 | 20 | 228 | 0.0 | 0.0 | 0.00 | 0.99 | 0.05 | 94 | 1015.6 |
| 20260901020521 | 20 | 228 | 0.0 | 0.0 | 0.00 | 0.97 | 0.05 | 94 | 1015.8 |
| 20260901020435 | 20 | 228 | 0.0 | 0.0 | 0.00 | 1.04 | 0.05 | 94 | 1015.7 |
| 20260901020306 | 20 | 228 | 0.0 | 0.0 | 0.00 | 1.12 | 0.05 | 94 | 1015.6 |
| 20260901020234 | 20 | 228 | 0.0 | 0.0 | 0.00 | 1.17 | 0.05 | 94 | 1015.6 |
| 20260901020134 | 20 | 228 | 0.0 | 0.0 | 0.00 | 1.22 | 0.05 | 94 | 1015.6 |
| 20260901020033 | 20 | 228 | 0.0 | 0.0 | 0.00 | 1.27 | 0.05 | 94 | 1015.6 |
| 20260901020022 | 20 | 228 | 0.0 | 0.0 | 0.00 | 1.24 | 0.05 | 94 | 1015.8 |
| 20260901015932 | 20 | 228 | 0.0 | 0.0 | 0.00 | 1.32 | 0.05 | 94 | 1015.7 |
| 20260901015832 | 20 | 228 | 0.0 | 0.0 | 0.00 | 1.32 | 0.05 | 94 | 1015.6 |
| 20260901015806 | 20 | 228 | 0.0 | 0.0 | 0.00 | 1.37 | 0.05 | 94 | 1015.7 |
| 20260901015731 | 20 | 228 | 0.0 | 0.0 | 0.00 | 1.37 | 0.05 | 94 | 1015.7 |
| 20260901015630 | 20 | 228 | 0.0 | 0.0 | 0.00 | 1.37 | 0.05 | 94 | 1015.6 |
| 20260901015536 | 20 | 228 | 0.0 | 0.0 | 0.00 | 1.47 | 0.05 | 93 | 1015.6 |
| 20260901015530 | 20 | 228 | 0.0 | 0.0 | 0.00 | 1.40 | 0.05 | 94 | 1015.6 |
| 20260901015522 | 20 | 228 | 0.0 | 0.0 | 0.00 | 1.37 | 0.05 | 94 | 1015.7 |
| 20260901015429 | 20 | 228 | 0.0 | 0.0 | 0.00 | 1.42 | 0.05 | 94 | 1015.6 |
| 20260901015414 | 20 | 228 | 0.0 | 0.0 | 0.00 | 1.42 | 0.05 | 93 | 1015.6 |
| 20260901015229 | 20 | 228 | 0.0 | 0.0 | 0.00 | 1.47 | 0.05 | 93 | 1015.5 |
| 20260901015128 | 20 | 228 | 0.0 | 0.0 | 0.00 | 1.50 | 0.05 | 93 | 1015.5 |
| 20260901015028 | 20 | 228 | 0.0 | 0.0 | 0.00 | 1.55 | 0.05 | 93 | 1015.5 |
| 20260901015021 | 20 | 228 | 0.0 | 0.0 | 0.00 | 1.55 | 0.05 | 93 | 1015.6 |
| 20260901014928 | 20 | 228 | 0.0 | 0.0 | 0.00 | 1.63 | 0.05 | 93 | 1015.5 |
| 20260901014827 | 20 | 228 | 0.0 | 0.0 | 0.00 | 1.65 | 0.05 | 93 | 1015.5 |
| 20260901014806 | 20 | 228 | 0.0 | 0.0 | 0.00 | 1.65 | 0.05 | 93 | 1015.4 |
| 20260901014727 | 20 | 228 | 0.0 | 0.0 | 0.00 | 1.65 | 0.05 | 93 | 1015.4 |
| 20260901014640 | 20 | 228 | 0.0 | 0.0 | 0.00 | 1.68 | 0.05 | 93 | 1015.5 |
| 20260901014526 | 20 | 228 | 0.0 | 0.0 | 0.00 | 1.68 | 0.05 | 93 | 1015.4 |
| 20260901014522 | 20 | 228 | 0.0 | 0.0 | 0.00 | 1.68 | 0.05 | 93 | 1015.5 |
| 20260901014425 | 20 | 228 | 0.0 | 0.0 | 0.00 | 1.68 | 0.05 | 93 | 1015.4 |
| 20260901014414 | 20 | 228 | 0.0 | 0.0 | 0.00 | 1.68 | 0.05 | 93 | 1015.4 |
| 20260901014222 | 20 | 228 | 0.0 | 0.0 | 0.00 | 1.68 | 0.05 | 93 | 1015.4 |
| 20260901014121 | 20 | 228 | 0.0 | 0.0 | 0.00 | 1.68 | 0.05 | 93 | 1015.5 |
| 20260901014022 | 21 | 228 | 0.0 | 0.0 | 0.00 | 1.68 | 0.05 | 93 | 1015.6 |
| 20260901013920 | 20 | 228 | 0.0 | 0.0 | 0.00 | 1.68 | 0.05 | 93 | 1015.5 |
| 20260901013806 | 20 | 228 | 0.0 | 0.0 | 0.00 | 1.70 | 0.05 | 93 | 1015.4 |
| 20260901013719 | 20 | 228 | 0.0 | 0.0 | 0.00 | 1.70 | 0.05 | 93 | 1015.4 |
| 20260901013618 | 21 | 228 | 0.0 | 0.0 | 0.00 | 1.70 | 0.05 | 93 | 1015.5 |
| 20260901013522 | 21 | 228 | 0.0 | 0.0 | 0.00 | 1.70 | 0.05 | 93 | 1015.6 |
| 20260901013518 | 21 | 228 | 0.0 | 0.0 | 0.00 | 1.70 | 0.05 | 93 | 1015.5 |
| 20260901013417 | 21 | 228 | 0.0 | 0.0 | 0.00 | 1.70 | 0.05 | 93 | 1015.5 |
| 20260901013305 | 21 | 228 | 0.0 | 0.0 | 0.00 | 1.70 | 0.05 | 93 | 1015.5 |
| 20260901013216 | 21 | 228 | 0.0 | 0.0 | 0.00 | 1.70 | 0.05 | 93 | 1015.5 |
| 20260901013116 | 21 | 228 | 0.0 | 0.0 | 0.00 | 1.70 | 0.05 | 93 | 1015.5 |
| 20260901013028 | 21 | 228 | 0.0 | 0.0 | 0.00 | 1.70 | 0.05 | 93 | 1015.5 |
| 20260901013024 | 21 | 228 | 0.0 | 0.0 | 0.00 | 1.70 | 0.05 | 93 | 1015.5 |
| 20260901013022 | 21 | 228 | 0.0 | 0.0 | 0.00 | 1.70 | 0.05 | 93 | 1015.6 |
| 20260901012805 | 21 | 228 | 0.0 | 0.0 | 0.00 | 1.70 | 0.05 | 93 | 1015.5 |
| 20260901012739 | 21 | 228 | 0.0 | 0.0 | 0.00 | 1.70 | 0.05 | 93 | 1015.5 |
| 20260901012734 | 21 | 228 | 0.0 | 0.0 | 0.00 | 1.70 | 0.05 | 93 | 1015.5 |
| 20260901012730 | 21 | 228 | 0.0 | 0.0 | 0.00 | 1.70 | 0.05 | 93 | 1015.5 |
| 20260901012521 | 21 | 228 | 0.0 | 0.0 | 0.00 | 1.70 | 0.05 | 93 | 1015.6 |
| 20260901012411 | 21 | 228 | 0.0 | 0.0 | 0.00 | 1.70 | 0.05 | 93 | 1015.5 |
| 20260901012306 | 21 | 228 | 0.0 | 0.0 | 0.00 | 1.70 | 0.05 | 93 | 1015.5 |
| 20260901012222 | 21 | 228 | 0.0 | 0.0 | 0.00 | 1.70 | 0.05 | 93 | 1015.5 |
| 20260901012217 | 21 | 228 | 0.0 | 0.0 | 0.00 | 1.70 | 0.05 | 93 | 1015.5 |
| 20260901012022 | 21 | 228 | 0.0 | 0.0 | 0.00 | 1.70 | 0.05 | 93 | 1015.5 |
| 20260901012007 | 21 | 228 | 0.0 | 0.0 | 0.00 | 1.70 | 0.05 | 93 | 1015.4 |
| 20260901011906 | 21 | 228 | 0.0 | 0.0 | 0.00 | 1.70 | 0.05 | 93 | 1015.5 |
| 20260901011808 | 21 | 228 | 0.0 | 0.0 | 0.00 | 1.70 | 0.05 | 93 | 1015.5 |
| 20260901011708 | 21 | 228 | 0.0 | 0.0 | 0.00 | 1.70 | 0.05 | 92 | 1015.5 |
| 20260901011607 | 21 | 228 | 0.0 | 0.0 | 0.00 | 1.70 | 0.05 | 92 | 1015.6 |
| 20260901011522 | 21 | 228 | 0.0 | 0.0 | 0.00 | 1.70 | 0.05 | 92 | 1015.6 |
| 20260901011517 | 21 | 228 | 0.0 | 0.0 | 0.00 | 1.70 | 0.05 | 92 | 1015.5 |
| 20260901011339 | 21 | 228 | 0.0 | 0.0 | 0.00 | 1.70 | 0.05 | 92 | 1015.5 |
| 20260901011335 | 21 | 228 | 0.0 | 0.0 | 0.00 | 1.70 | 0.05 | 92 | 1015.5 |
| 20260901011326 | 21 | 228 | 0.0 | 0.0 | 0.00 | 1.70 | 0.05 | 92 | 1015.6 |
| 20260901011022 | 21 | 228 | 0.0 | 0.0 | 0.00 | 1.70 | 0.05 | 92 | 1015.7 |
| 20260901011006 | 21 | 228 | 0.0 | 0.0 | 0.00 | 1.70 | 0.05 | 92 | 1015.6 |
| 20260901010905 | 21 | 228 | 0.0 | 0.0 | 0.00 | 1.70 | 0.05 | 92 | 1015.5 |
| 20260901010805 | 21 | 228 | 0.0 | 0.0 | 0.00 | 1.70 | 0.05 | 92 | 1015.6 |
| 20260901010704 | 21 | 228 | 0.0 | 0.0 | 0.00 | 1.70 | 0.05 | 92 | 1015.6 |
| 20260901010604 | 21 | 228 | 0.0 | 0.0 | 0.00 | 1.70 | 0.05 | 92 | 1015.6 |
| 20260901010522 | 21 | 228 | 0.0 | 0.0 | 0.00 | 1.70 | 0.05 | 92 | 1015.7 |
| 20260901010504 | 21 | 228 | 0.0 | 0.0 | 0.00 | 1.70 | 0.05 | 92 | 1015.6 |
| 20260901010355 | 21 | 228 | 0.0 | 0.0 | 0.00 | 1.70 | 0.05 | 92 | 1015.6 |
| 20260901010351 | 21 | 228 | 0.0 | 0.0 | 0.00 | 1.70 | 0.05 | 92 | 1015.6 |
| 20260901010346 | 21 | 228 | 0.0 | 0.0 | 0.00 | 1.70 | 0.05 | 92 | 1015.6 |
| 20260901010340 | 21 | 228 | 0.0 | 0.0 | 0.00 | 1.70 | 0.05 | 92 | 1015.6 |
| 20260901010227 | 21 | 228 | 0.0 | 0.0 | 0.00 | 1.70 | 0.05 | 92 | 1015.6 |
| 20260901010022 | 21 | 228 | 0.0 | 0.0 | 0.00 | 1.70 | 0.05 | 92 | 1015.7 |
| 20260901005804 | 21 | 228 | 0.0 | 0.0 | 0.00 | 1.70 | 0.05 | 92 | 1015.5 |
| 20260901005758 | 21 | 228 | 0.0 | 0.0 | 0.00 | 1.70 | 0.05 | 92 | 1015.5 |
| 20260901005658 | 21 | 228 | 0.0 | 0.0 | 0.00 | 1.70 | 0.05 | 92 | 1015.5 |
| 20260901005558 | 21 | 228 | 0.0 | 0.0 | 0.00 | 1.70 | 0.05 | 92 | 1015.5 |
| 20260901005522 | 21 | 228 | 0.0 | 0.0 | 0.00 | 1.70 | 0.05 | 92 | 1015.5 |
| 20260901005456 | 21 | 228 | 0.0 | 0.0 | 0.00 | 1.70 | 0.05 | 92 | 1015.4 |
| 20260901005356 | 21 | 228 | 0.0 | 0.0 | 0.00 | 1.70 | 0.05 | 92 | 1015.5 |
| 20260901005314 | 21 | 228 | 0.0 | 0.0 | 0.00 | 1.70 | 0.05 | 91 | 1015.5 |
| 20260901005310 | 21 | 228 | 0.0 | 0.0 | 0.00 | 1.70 | 0.05 | 91 | 1015.4 |
| 20260901005306 | 21 | 228 | 0.0 | 0.0 | 0.00 | 1.70 | 0.05 | 91 | 1015.4 |
| 20260901005112 | 21 | 228 | 0.0 | 0.0 | 0.00 | 1.70 | 0.05 | 91 | 1015.5 |
| 20260901005107 | 21 | 228 | 0.0 | 0.0 | 0.00 | 1.70 | 0.05 | 91 | 1015.4 |
| 20260901005103 | 21 | 228 | 0.0 | 0.0 | 0.00 | 1.70 | 0.05 | 91 | 1015.5 |
| 20260901005022 | 21 | 228 | 0.0 | 0.0 | 0.00 | 1.70 | 0.05 | 91 | 1015.6 |
| 20260901004912 | 21 | 228 | 0.0 | 0.0 | 0.00 | 1.70 | 0.05 | 91 | 1015.5 |
| 20260901004753 | 21 | 228 | 0.0 | 0.0 | 0.00 | 1.70 | 0.05 | 91 | 1015.4 |
| 20260901004652 | 21 | 228 | 0.0 | 0.0 | 0.00 | 1.70 | 0.05 | 91 | 1015.4 |
| 20260901004619 | 21 | 228 | 0.0 | 0.0 | 0.00 | 1.70 | 0.05 | 91 | 1015.4 |
| 20260901004552 | 21 | 228 | 0.0 | 0.0 | 0.00 | 1.70 | 0.05 | 91 | 1015.4 |
| 20260901004537 | 21 | 228 | 0.0 | 0.0 | 0.00 | 1.70 | 0.05 | 91 | 1015.5 |
| 20260901004521 | 21 | 228 | 0.0 | 0.0 | 0.00 | 1.70 | 0.05 | 91 | 1015.4 |
| 20260901004516 | 21 | 228 | 0.0 | 0.0 | 0.00 | 1.70 | 0.05 | 91 | 1015.4 |
| 20260901004506 | 21 | 228 | 0.0 | 0.0 | 0.00 | 1.70 | 0.05 | 91 | 1015.4 |
| 20260901004150 | 21 | 228 | 0.0 | 0.0 | 0.00 | 1.70 | 0.05 | 91 | 1015.4 |
| 20260901004050 | 21 | 228 | 0.0 | 0.0 | 0.00 | 1.70 | 0.05 | 91 | 1015.4 |
| 20260901004022 | 22 | 228 | 0.0 | 0.0 | 0.00 | 1.70 | 0.05 | 91 | 1015.5 |
| 20260901004017 | 21 | 228 | 0.0 | 0.0 | 0.00 | 1.70 | 0.05 | 90 | 1015.4 |
| 20260901004012 | 21 | 228 | 0.0 | 0.0 | 0.00 | 1.70 | 0.05 | 91 | 1015.4 |
| 20260901003854 | 21 | 228 | 0.0 | 0.0 | 0.00 | 1.70 | 0.05 | 90 | 1015.4 |
| 20260901003648 | 22 | 228 | 0.0 | 0.0 | 0.00 | 1.70 | 0.05 | 90 | 1015.4 |
| 20260901003552 | 22 | 228 | 0.0 | 0.0 | 0.00 | 1.70 | 0.05 | 90 | 1015.5 |
| 20260901003545 | 22 | 228 | 0.0 | 0.0 | 0.00 | 1.70 | 0.05 | 90 | 1015.4 |
| 20260901003512 | 22 | 228 | 0.0 | 0.0 | 0.00 | 1.70 | 0.05 | 90 | 1015.4 |
| 20260901003358 | 22 | 228 | 0.0 | 0.0 | 0.00 | 1.70 | 0.05 | 90 | 1015.4 |
| 20260901003349 | 22 | 228 | 0.0 | 0.0 | 0.00 | 1.70 | 0.05 | 90 | 1015.3 |
| 20260901003143 | 22 | 228 | 0.0 | 0.0 | 0.00 | 1.70 | 0.05 | 90 | 1015.3 |
| 20260901003128 | 22 | 228 | 0.0 | 0.0 | 0.00 | 1.70 | 0.05 | 90 | 1015.3 |
| 20260901003036 | 22 | 228 | 0.0 | 0.0 | 0.00 | 1.70 | 0.05 | 90 | 1015.4 |
| 20260901002942 | 22 | 228 | 0.0 | 0.0 | 0.00 | 1.70 | 0.05 | 90 | 1015.3 |
| 20260901002903 | 22 | 228 | 0.0 | 0.0 | 0.00 | 1.70 | 0.05 | 90 | 1015.3 |
| 20260901002741 | 22 | 228 | 0.0 | 0.0 | 0.00 | 1.70 | 0.05 | 90 | 1015.3 |
| 20260901002640 | 22 | 228 | 0.0 | 0.0 | 0.00 | 1.70 | 0.05 | 90 | 1015.3 |
| 20260901002540 | 22 | 228 | 0.0 | 0.0 | 0.00 | 1.70 | 0.05 | 90 | 1015.3 |
| 20260901002522 | 22 | 228 | 0.0 | 0.0 | 0.00 | 1.70 | 0.05 | 89 | 1015.3 |
| 20260901002440 | 22 | 228 | 0.0 | 0.0 | 0.00 | 1.70 | 0.05 | 89 | 1015.2 |
| 20260901002340 | 22 | 228 | 0.0 | 0.0 | 0.00 | 1.70 | 0.05 | 89 | 1015.2 |
| 20260901002239 | 22 | 228 | 0.0 | 0.0 | 0.00 | 1.70 | 0.05 | 89 | 1015.3 |
| 20260901002139 | 22 | 228 | 0.0 | 0.0 | 0.00 | 1.70 | 0.05 | 89 | 1015.4 |
| 20260901002038 | 22 | 228 | 0.0 | 0.0 | 0.00 | 1.70 | 0.05 | 89 | 1015.4 |
| 20260901002022 | 22 | 228 | 0.0 | 0.0 | 0.00 | 1.70 | 0.05 | 89 | 1015.4 |
| 20260901001938 | 22 | 228 | 0.0 | 0.0 | 0.00 | 1.70 | 0.05 | 89 | 1015.4 |
| 20260901001837 | 22 | 228 | 0.0 | 0.0 | 0.00 | 1.70 | 0.05 | 89 | 1015.3 |
| 20260901001737 | 22 | 228 | 0.0 | 0.0 | 0.00 | 1.70 | 0.05 | 89 | 1015.4 |
| 20260901001636 | 22 | 228 | 0.0 | 0.0 | 0.00 | 1.70 | 0.05 | 89 | 1015.4 |
| 20260901001536 | 22 | 228 | 0.0 | 0.0 | 0.00 | 1.70 | 0.05 | 89 | 1015.4 |
| 20260901001521 | 22 | 228 | 0.0 | 0.0 | 0.00 | 1.70 | 0.05 | 89 | 1015.4 |
| 20260901001435 | 22 | 228 | 0.0 | 0.0 | 0.00 | 1.70 | 0.05 | 89 | 1015.4 |
| 20260901001349 | 22 | 228 | 0.0 | 0.0 | 0.00 | 1.70 | 0.05 | 89 | 1015.4 |
| 20260901001340 | 22 | 228 | 0.0 | 0.0 | 0.00 | 1.70 | 0.05 | 88 | 1015.4 |
| 20260901001134 | 22 | 228 | 0.0 | 0.0 | 0.00 | 1.70 | 0.05 | 88 | 1015.4 |
| 20260901001046 | 22 | 228 | 0.0 | 0.0 | 0.00 | 1.70 | 0.05 | 88 | 1015.4 |
| 20260901001042 | 22 | 228 | 0.0 | 0.0 | 0.00 | 1.70 | 0.05 | 88 | 1015.4 |
| 20260901001022 | 22 | 228 | 0.0 | 0.0 | 0.00 | 1.70 | 0.05 | 88 | 1015.4 |
| 20260901000833 | 22 | 228 | 0.0 | 0.0 | 0.00 | 1.70 | 0.05 | 88 | 1015.4 |
| 20260901000731 | 22 | 228 | 0.0 | 0.0 | 0.00 | 1.70 | 0.05 | 88 | 1015.4 |
| 20260901000631 | 22 | 228 | 0.0 | 0.0 | 0.00 | 1.70 | 0.05 | 88 | 1015.4 |
| 20260901000531 | 22 | 228 | 0.0 | 0.0 | 0.00 | 1.70 | 0.05 | 88 | 1015.3 |
| 20260901000522 | 22 | 228 | 0.0 | 0.0 | 0.00 | 1.70 | 0.05 | 88 | 1015.3 |
| 20260901000519 | 22 | 228 | 0.0 | 0.0 | 0.00 | 1.70 | 0.05 | 87 | 1015.2 |
| 20260901000514 | 22 | 228 | 0.0 | 0.0 | 0.00 | 1.70 | 0.05 | 88 | 1015.3 |
| 20260901000509 | 22 | 228 | 0.0 | 0.0 | 0.00 | 1.70 | 0.05 | 88 | 1015.3 |
| 20260901000230 | 22 | 228 | 0.0 | 0.0 | 0.00 | 1.70 | 0.05 | 87 | 1015.2 |
| 20260901000130 | 23 | 228 | 0.0 | 0.0 | 0.00 | 1.70 | 0.05 | 87 | 1015.2 |
| 20260901000029 | 23 | 228 | 0.0 | 0.0 | 0.00 | 1.70 | 0.05 | 87 | 1015.2 |
| 20260901000022 | 23 | 228 | 0.0 | 0.0 | 0.00 | 1.70 | 0.05 | 87 | 1015.2 |
| 20260831235929 | 23 | 228 | 0.0 | 0.0 | 0.00 | 1.70 | 0.05 | 87 | 1015.2 |
| 20260831235856 | 23 | 228 | 0.0 | 0.0 | 0.00 | 1.70 | 0.05 | 86 | 1015.2 |
| 20260831235851 | 23 | 228 | 0.0 | 0.0 | 0.00 | 1.70 | 0.05 | 87 | 1015.2 |
| 20260831235842 | 23 | 228 | 0.0 | 0.0 | 0.00 | 1.70 | 0.05 | 87 | 1015.2 |
| 20260831235527 | 23 | 228 | 0.0 | 0.0 | 0.00 | 1.70 | 0.05 | 86 | 1015.2 |
| 20260831235523 | 23 | 228 | 0.0 | 0.0 | 0.00 | 1.70 | 0.05 | 86 | 1015.2 |
| 20260831235510 | 23 | 228 | 0.0 | 0.0 | 0.00 | 1.70 | 0.05 | 86 | 1015.2 |
| 20260831235426 | 23 | 228 | 0.0 | 0.0 | 0.00 | 1.70 | 0.05 | 86 | 1015.2 |
| 20260831235358 | 23 | 228 | 0.0 | 0.0 | 0.00 | 1.70 | 0.05 | 86 | 1015.2 |
| 20260831235239 | 23 | 228 | 0.0 | 0.0 | 0.00 | 1.70 | 0.05 | 85 | 1015.2 |
| 20260831235234 | 23 | 228 | 0.0 | 0.0 | 0.00 | 1.70 | 0.05 | 86 | 1015.2 |
| 20260831235025 | 23 | 228 | 0.0 | 0.0 | 0.00 | 1.70 | 0.05 | 85 | 1015.2 |
| 20260831235022 | 23 | 228 | 0.0 | 0.0 | 0.00 | 1.70 | 0.05 | 85 | 1015.1 |
| 20260831234924 | 23 | 228 | 0.0 | 0.0 | 0.00 | 1.70 | 0.05 | 85 | 1015.1 |
| 20260831234838 | 23 | 228 | 0.0 | 0.0 | 0.00 | 1.70 | 0.05 | 85 | 1015.2 |
| 20260831234830 | 23 | 228 | 0.0 | 0.0 | 0.00 | 1.70 | 0.05 | 85 | 1015.1 |
| 20260831234622 | 23 | 228 | 0.0 | 0.0 | 0.00 | 1.70 | 0.05 | 85 | 1015.1 |
| 20260831234521 | 23 | 228 | 0.0 | 0.0 | 0.00 | 1.70 | 0.05 | 85 | 1015.2 |
| 20260831234421 | 23 | 228 | 0.0 | 0.0 | 0.00 | 1.70 | 0.05 | 85 | 1015.1 |
| 20260831234349 | 23 | 228 | 0.0 | 0.0 | 0.00 | 1.70 | 0.05 | 84 | 1015.1 |
| 20260831234344 | 23 | 228 | 0.0 | 0.0 | 0.00 | 1.70 | 0.05 | 84 | 1015.2 |
| 20260831234336 | 23 | 228 | 0.0 | 0.0 | 0.00 | 1.70 | 0.05 | 84 | 1015.1 |
| 20260831234022 | 23 | 228 | 0.0 | 0.0 | 0.00 | 1.70 | 0.05 | 83 | 1015.1 |
| 20260831234019 | 23 | 228 | 0.0 | 0.0 | 0.00 | 1.70 | 0.05 | 84 | 1015.1 |
| 20260831233919 | 23 | 228 | 0.0 | 0.0 | 0.00 | 1.70 | 0.05 | 83 | 1015.1 |
| 20260831233818 | 23 | 228 | 0.0 | 0.0 | 0.00 | 1.70 | 0.05 | 83 | 1015.1 |
| 20260831233744 | 23 | 228 | 0.0 | 0.0 | 0.00 | 1.70 | 0.05 | 83 | 1015.1 |
| 20260831233740 | 23 | 228 | 0.0 | 0.0 | 0.00 | 1.70 | 0.05 | 83 | 1015.1 |
| 20260831233734 | 23 | 228 | 0.0 | 0.0 | 0.00 | 1.70 | 0.05 | 83 | 1015.1 |
| 20260831233522 | 23 | 228 | 0.0 | 0.0 | 0.00 | 1.70 | 0.05 | 83 | 1015.1 |
| 20260831233416 | 23 | 228 | 0.0 | 0.0 | 0.00 | 1.70 | 0.05 | 83 | 1015.1 |
| 20260831233317 | 24 | 228 | 0.0 | 0.0 | 0.00 | 1.70 | 0.05 | 83 | 1015.1 |
| 20260831233216 | 24 | 228 | 0.0 | 0.0 | 0.00 | 1.70 | 0.05 | 83 | 1015.1 |
| 20260831233114 | 24 | 228 | 0.0 | 0.0 | 0.00 | 1.70 | 0.05 | 83 | 1015.2 |
| 20260831233022 | 24 | 228 | 0.0 | 0.0 | 0.00 | 1.70 | 0.05 | 83 | 1015.2 |
| 20260831233013 | 24 | 228 | 0.0 | 0.0 | 0.00 | 1.70 | 0.05 | 83 | 1015.2 |
| 20260831232954 | 24 | 228 | 0.0 | 0.0 | 0.00 | 1.70 | 0.05 | 82 | 1015.2 |
| 20260831232948 | 24 | 228 | 0.0 | 0.0 | 0.00 | 1.70 | 0.05 | 83 | 1015.2 |
| 20260831232835 | 24 | 228 | 0.0 | 0.0 | 0.00 | 1.70 | 0.05 | 82 | 1015.2 |
| 20260831232827 | 24 | 228 | 0.0 | 0.0 | 0.00 | 1.70 | 0.05 | 82 | 1015.2 |
| 20260831232522 | 24 | 228 | 0.0 | 0.0 | 0.00 | 1.70 | 0.05 | 82 | 1015.1 |
| 20260831232510 | 24 | 228 | 0.0 | 0.0 | 0.00 | 1.70 | 0.05 | 82 | 1015.1 |
| 20260831232408 | 24 | 228 | 0.0 | 0.0 | 0.00 | 1.70 | 0.05 | 82 | 1015.1 |
| 20260831232309 | 24 | 228 | 0.0 | 0.0 | 0.00 | 1.70 | 0.05 | 81 | 1015.1 |
| 20260831232243 | 24 | 228 | 0.0 | 0.0 | 0.00 | 1.70 | 0.05 | 81 | 1015.2 |
| 20260831232209 | 24 | 228 | 0.0 | 0.0 | 0.00 | 1.70 | 0.05 | 81 | 1015.2 |
| 20260831232108 | 24 | 228 | 0.0 | 0.0 | 0.00 | 1.70 | 0.05 | 81 | 1015.2 |
| 20260831232022 | 24 | 228 | 0.0 | 0.0 | 0.00 | 1.70 | 0.05 | 81 | 1015.3 |
| 20260831232008 | 24 | 228 | 0.0 | 0.0 | 0.00 | 1.70 | 0.05 | 81 | 1015.3 |
| 20260831231907 | 24 | 228 | 0.0 | 0.0 | 0.00 | 1.70 | 0.05 | 80 | 1015.3 |
| 20260831231807 | 24 | 228 | 0.0 | 0.0 | 0.00 | 1.70 | 0.05 | 80 | 1015.2 |
| 20260831231742 | 24 | 228 | 0.0 | 0.0 | 0.00 | 1.70 | 0.05 | 80 | 1015.2 |
| 20260831231706 | 24 | 228 | 0.0 | 0.0 | 0.00 | 1.70 | 0.05 | 80 | 1015.3 |
| 20260831231606 | 25 | 228 | 0.0 | 0.0 | 0.00 | 1.70 | 0.05 | 80 | 1015.3 |
| 20260831231522 | 25 | 228 | 0.0 | 0.0 | 0.00 | 1.70 | 0.05 | 80 | 1015.3 |
| 20260831231519 | 25 | 228 | 0.0 | 0.0 | 0.00 | 1.70 | 0.05 | 80 | 1015.3 |
| 20260831231514 | 25 | 228 | 0.0 | 0.0 | 0.00 | 1.70 | 0.05 | 80 | 1015.3 |
| 20260831231304 | 25 | 228 | 0.0 | 0.0 | 0.00 | 1.70 | 0.05 | 80 | 1015.3 |
| 20260831231242 | 25 | 228 | 0.0 | 0.0 | 0.00 | 1.70 | 0.05 | 81 | 1015.3 |
| 20260831231203 | 25 | 228 | 0.0 | 0.0 | 0.00 | 1.70 | 0.05 | 81 | 1015.3 |
| 20260831231104 | 25 | 228 | 0.0 | 0.0 | 0.00 | 1.70 | 0.05 | 81 | 1015.4 |
| 20260831231022 | 25 | 228 | 0.0 | 0.0 | 0.00 | 1.70 | 0.05 | 81 | 1015.4 |
| 20260831231004 | 25 | 228 | 0.0 | 0.0 | 0.00 | 1.70 | 0.05 | 81 | 1015.4 |
| 20260831230902 | 25 | 228 | 0.0 | 0.0 | 0.00 | 1.70 | 0.05 | 81 | 1015.4 |
| 20260831230740 | 25 | 228 | 0.0 | 0.0 | 0.00 | 1.70 | 0.05 | 80 | 1015.4 |
| 20260831230701 | 25 | 228 | 0.0 | 0.0 | 0.00 | 1.70 | 0.05 | 80 | 1015.4 |
| 20260831230627 | 25 | 228 | 0.0 | 0.0 | 0.00 | 1.70 | 0.05 | 79 | 1015.4 |
| 20260831230623 | 25 | 228 | 0.0 | 0.0 | 0.00 | 1.70 | 0.05 | 79 | 1015.4 |
| 20260831230618 | 25 | 228 | 0.0 | 0.0 | 0.00 | 1.70 | 0.05 | 79 | 1015.4 |
| 20260831230613 | 25 | 228 | 0.0 | 0.0 | 0.00 | 1.70 | 0.05 | 79 | 1015.4 |
| 20260831230604 | 25 | 228 | 0.0 | 0.0 | 0.00 | 1.70 | 0.05 | 79 | 1015.4 |
| 20260831230521 | 25 | 228 | 0.0 | 0.0 | 0.00 | 1.70 | 0.05 | 79 | 1015.4 |
| 20260831230200 | 25 | 228 | 0.0 | 0.0 | 0.00 | 1.70 | 0.05 | 78 | 1015.4 |
| 20260831230100 | 25 | 228 | 0.0 | 0.0 | 0.00 | 1.70 | 0.05 | 79 | 1015.4 |
| 20260831230039 | 25 | 228 | 0.0 | 0.0 | 0.00 | 1.70 | 0.05 | 79 | 1015.4 |
| 20260831230034 | 25 | 228 | 0.0 | 0.0 | 0.00 | 1.70 | 0.05 | 79 | 1015.4 |
| 20260831230022 | 25 | 228 | 0.0 | 0.0 | 0.00 | 1.70 | 0.05 | 79 | 1015.4 |
| 20260831225920 | 25 | 228 | 0.0 | 0.0 | 0.00 | 1.70 | 0.05 | 79 | 1015.4 |
| 20260831225803 | 25 | 228 | 0.0 | 0.0 | 0.00 | 1.70 | 0.05 | 79 | 1015.4 |
| 20260831225556 | 25 | 228 | 0.0 | 0.0 | 0.00 | 1.70 | 0.05 | 79 | 1015.4 |
| 20260831225522 | 25 | 228 | 0.0 | 0.0 | 0.00 | 1.70 | 0.05 | 79 | 1015.4 |
| 20260831225456 | 25 | 228 | 0.0 | 0.0 | 0.00 | 1.70 | 0.05 | 79 | 1015.4 |
| 20260831225422 | 25 | 228 | 0.0 | 0.0 | 0.00 | 1.70 | 0.05 | 79 | 1015.4 |
| 20260831225301 | 25 | 228 | 0.0 | 0.0 | 0.00 | 1.70 | 0.05 | 79 | 1015.4 |
| 20260831225054 | 25 | 228 | 0.0 | 0.0 | 0.00 | 1.70 | 0.05 | 78 | 1015.5 |
| 20260831225037 | 25 | 228 | 0.0 | 0.0 | 0.00 | 1.70 | 0.05 | 78 | 1015.5 |
| 20260831224954 | 25 | 228 | 0.0 | 0.0 | 0.00 | 1.70 | 0.05 | 78 | 1015.5 |
| 20260831224735 | 25 | 228 | 0.0 | 0.0 | 0.00 | 1.70 | 0.05 | 78 | 1015.5 |
| 20260831224653 | 25 | 228 | 0.0 | 0.0 | 0.00 | 1.70 | 0.05 | 78 | 1015.6 |
| 20260831224553 | 25 | 228 | 0.0 | 0.0 | 0.00 | 1.70 | 0.05 | 79 | 1015.6 |
| 20260831224522 | 25 | 228 | 0.0 | 0.0 | 0.00 | 1.70 | 0.05 | 79 | 1015.6 |
| 20260831224451 | 25 | 228 | 0.0 | 0.0 | 0.00 | 1.70 | 0.05 | 79 | 1015.6 |
| 20260831224351 | 25 | 228 | 0.0 | 0.0 | 0.00 | 1.70 | 0.05 | 79 | 1015.5 |
| 20260831224235 | 25 | 228 | 0.0 | 0.0 | 0.00 | 1.70 | 0.05 | 79 | 1015.6 |
| 20260831224150 | 25 | 228 | 0.0 | 0.0 | 0.00 | 1.70 | 0.05 | 79 | 1015.6 |
| 20260831224050 | 25 | 228 | 0.0 | 0.0 | 0.00 | 1.70 | 0.05 | 79 | 1015.6 |
| 20260831224022 | 25 | 228 | 0.0 | 0.0 | 0.00 | 1.70 | 0.05 | 79 | 1015.6 |
| 20260831223949 | 25 | 228 | 0.0 | 0.0 | 0.00 | 1.70 | 0.05 | 79 | 1015.6 |
| 20260831223849 | 25 | 228 | 0.0 | 0.0 | 0.00 | 1.70 | 0.05 | 79 | 1015.6 |
| 20260831223734 | 25 | 228 | 0.0 | 0.0 | 0.00 | 1.70 | 0.05 | 79 | 1015.6 |
| 20260831223648 | 25 | 228 | 0.0 | 0.0 | 0.00 | 1.70 | 0.05 | 79 | 1015.6 |
| 20260831223546 | 25 | 228 | 0.0 | 0.0 | 0.00 | 1.70 | 0.05 | 78 | 1015.6 |
| 20260831223522 | 25 | 228 | 0.0 | 0.0 | 0.00 | 1.70 | 0.05 | 78 | 1015.6 |
| 20260831223446 | 25 | 228 | 0.0 | 0.0 | 0.00 | 1.70 | 0.05 | 78 | 1015.6 |
| 20260831223357 | 25 | 228 | 0.0 | 0.0 | 0.00 | 1.70 | 0.05 | 78 | 1015.7 |
| 20260831223353 | 25 | 228 | 0.0 | 0.0 | 0.00 | 1.70 | 0.05 | 78 | 1015.6 |
| 20260831223233 | 25 | 228 | 0.0 | 0.0 | 0.00 | 1.70 | 0.05 | 78 | 1015.7 |
| 20260831223143 | 25 | 228 | 0.0 | 0.0 | 0.00 | 1.70 | 0.05 | 78 | 1015.6 |
| 20260831223043 | 25 | 228 | 0.0 | 0.0 | 0.00 | 1.70 | 0.05 | 78 | 1015.7 |
| 20260831223021 | 25 | 228 | 0.0 | 0.0 | 0.00 | 1.70 | 0.05 | 79 | 1015.6 |
| 20260831222942 | 25 | 228 | 0.0 | 0.0 | 0.00 | 1.70 | 0.05 | 79 | 1015.6 |
| 20260831222842 | 25 | 228 | 0.0 | 0.0 | 0.00 | 1.70 | 0.05 | 79 | 1015.6 |
| 20260831222741 | 25 | 228 | 0.0 | 0.0 | 0.00 | 1.70 | 0.05 | 79 | 1015.6 |
| 20260831222734 | 25 | 228 | 0.0 | 0.0 | 0.00 | 1.70 | 0.05 | 80 | 1015.6 |
| 20260831222640 | 25 | 228 | 0.0 | 0.0 | 0.00 | 1.70 | 0.05 | 80 | 1015.7 |
| 20260831222541 | 25 | 228 | 0.0 | 0.0 | 0.00 | 1.70 | 0.05 | 80 | 1015.6 |
| 20260831222522 | 25 | 228 | 0.0 | 0.0 | 0.00 | 1.70 | 0.05 | 80 | 1015.6 |
| 20260831222440 | 25 | 228 | 0.0 | 0.0 | 0.00 | 1.70 | 0.05 | 80 | 1015.6 |
| 20260831222340 | 25 | 228 | 0.0 | 0.0 | 0.00 | 1.70 | 0.05 | 80 | 1015.6 |
| 20260831222232 | 25 | 228 | 0.0 | 0.0 | 0.00 | 1.70 | 0.05 | 79 | 1015.6 |
| 20260831222139 | 25 | 228 | 0.0 | 0.0 | 0.00 | 1.70 | 0.05 | 80 | 1015.6 |
| 20260831222053 | 24 | 228 | 0.0 | 0.0 | 0.00 | 1.70 | 0.05 | 80 | 1015.6 |
| 20260831222047 | 25 | 228 | 0.0 | 0.0 | 0.00 | 1.70 | 0.05 | 80 | 1015.6 |
| 20260831222022 | 25 | 228 | 0.0 | 0.0 | 0.00 | 1.70 | 0.05 | 80 | 1015.6 |
| 20260831221838 | 24 | 228 | 0.0 | 0.0 | 0.00 | 1.70 | 0.05 | 80 | 1015.7 |
| 20260831221730 | 24 | 228 | 0.0 | 0.0 | 0.00 | 1.70 | 0.05 | 80 | 1015.7 |
| 20260831221636 | 24 | 228 | 0.0 | 0.0 | 0.00 | 1.70 | 0.05 | 80 | 1015.7 |
| 20260831221536 | 24 | 228 | 0.0 | 0.0 | 0.00 | 1.70 | 0.05 | 81 | 1015.7 |
| 20260831221522 | 24 | 228 | 0.0 | 0.0 | 0.00 | 1.70 | 0.05 | 81 | 1015.7 |
| 20260831221436 | 24 | 228 | 0.0 | 0.0 | 0.00 | 1.70 | 0.05 | 81 | 1015.7 |
| 20260831221403 | 24 | 228 | 0.0 | 0.0 | 0.00 | 1.70 | 0.05 | 81 | 1015.7 |
| 20260831221249 | 24 | 228 | 0.0 | 0.0 | 0.00 | 1.70 | 0.05 | 81 | 1015.7 |
| 20260831221243 | 24 | 228 | 0.0 | 0.0 | 0.00 | 1.70 | 0.05 | 81 | 1015.7 |
| 20260831221034 | 24 | 228 | 0.0 | 0.0 | 0.00 | 1.70 | 0.05 | 81 | 1015.7 |
| 20260831221022 | 24 | 228 | 0.0 | 0.0 | 0.00 | 1.70 | 0.05 | 81 | 1015.7 |
| 20260831220934 | 24 | 228 | 0.0 | 0.0 | 0.00 | 1.70 | 0.05 | 81 | 1015.7 |
| 20260831220834 | 24 | 228 | 0.0 | 0.0 | 0.00 | 1.70 | 0.05 | 81 | 1015.7 |
| 20260831220728 | 24 | 228 | 0.0 | 0.0 | 0.00 | 1.70 | 0.05 | 80 | 1015.6 |
| 20260831220633 | 24 | 228 | 0.0 | 0.0 | 0.00 | 1.70 | 0.05 | 81 | 1015.7 |
| 20260831220546 | 24 | 228 | 0.0 | 0.0 | 0.00 | 1.70 | 0.05 | 82 | 1015.7 |
| 20260831220541 | 24 | 228 | 0.0 | 0.0 | 0.00 | 1.70 | 0.05 | 82 | 1015.7 |
| 20260831220522 | 24 | 228 | 0.0 | 0.0 | 0.00 | 1.70 | 0.05 | 82 | 1015.7 |
| 20260831220331 | 24 | 228 | 0.0 | 0.0 | 0.00 | 1.70 | 0.05 | 82 | 1015.7 |
| 20260831220226 | 24 | 228 | 0.0 | 0.0 | 0.00 | 1.70 | 0.05 | 83 | 1015.7 |
| 20260831220130 | 24 | 228 | 0.0 | 0.0 | 0.00 | 1.70 | 0.05 | 82 | 1015.7 |
| 20260831220030 | 24 | 228 | 0.0 | 0.0 | 0.00 | 1.70 | 0.05 | 82 | 1015.7 |
| 20260831220022 | 24 | 228 | 0.0 | 0.0 | 0.00 | 1.70 | 0.05 | 82 | 1015.8 |
| 20260831215929 | 24 | 228 | 0.0 | 0.0 | 0.00 | 1.70 | 0.05 | 82 | 1015.8 |
| 20260831215827 | 24 | 228 | 0.0 | 0.0 | 0.00 | 1.70 | 0.05 | 82 | 1015.8 |
| 20260831215727 | 24 | 228 | 0.0 | 0.0 | 0.00 | 1.70 | 0.05 | 81 | 1015.7 |
| 20260831215625 | 24 | 228 | 0.0 | 0.0 | 0.00 | 1.70 | 0.05 | 81 | 1015.7 |
| 20260831215525 | 24 | 228 | 0.0 | 0.0 | 0.00 | 1.70 | 0.05 | 82 | 1015.7 |
| 20260831215522 | 24 | 228 | 0.0 | 0.0 | 0.00 | 1.70 | 0.05 | 83 | 1015.7 |
| 20260831215448 | 24 | 228 | 0.0 | 0.0 | 0.00 | 1.70 | 0.05 | 82 | 1015.8 |
| 20260831215425 | 24 | 228 | 0.0 | 0.0 | 0.00 | 1.70 | 0.05 | 83 | 1015.7 |
| 20260831215338 | 24 | 228 | 0.0 | 0.0 | 0.00 | 1.70 | 0.05 | 82 | 1015.8 |
| 20260831215224 | 24 | 228 | 0.0 | 0.0 | 0.00 | 1.70 | 0.05 | 82 | 1015.8 |
| 20260831215124 | 24 | 228 | 0.0 | 0.0 | 0.00 | 1.70 | 0.05 | 82 | 1015.8 |
| 20260831215023 | 24 | 228 | 0.0 | 0.0 | 0.00 | 1.70 | 0.05 | 81 | 1015.8 |
| 20260831214954 | 24 | 228 | 0.0 | 0.0 | 0.00 | 1.70 | 0.05 | 82 | 1015.8 |
| 20260831214923 | 24 | 228 | 0.0 | 0.0 | 0.00 | 1.70 | 0.05 | 81 | 1015.8 |
| 20260831214851 | 24 | 228 | 0.0 | 0.0 | 0.00 | 1.70 | 0.05 | 84 | 1015.8 |
| 20260831214846 | 24 | 228 | 0.0 | 0.0 | 0.00 | 1.70 | 0.05 | 81 | 1015.8 |
| 20260831214731 | 24 | 228 | 0.0 | 0.0 | 0.00 | 1.70 | 0.05 | 83 | 1015.8 |
| 20260831214536 | 24 | 228 | 0.0 | 0.0 | 0.00 | 1.70 | 0.05 | 84 | 1015.8 |
| 20260831214531 | 24 | 228 | 0.0 | 0.0 | 0.00 | 1.70 | 0.05 | 84 | 1015.8 |
| 20260831214522 | 24 | 228 | 0.0 | 0.0 | 0.00 | 1.70 | 0.05 | 84 | 1015.8 |
| 20260831214347 | 24 | 228 | 0.0 | 0.0 | 0.00 | 1.70 | 0.05 | 84 | 1015.9 |
| 20260831214229 | 24 | 228 | 0.0 | 0.0 | 0.00 | 1.70 | 0.05 | 84 | 1015.8 |
| 20260831214022 | 24 | 228 | 0.0 | 0.0 | 0.00 | 1.70 | 0.05 | 83 | 1016.0 |
| 20260831214019 | 24 | 228 | 0.0 | 0.0 | 0.00 | 1.70 | 0.05 | 83 | 1015.8 |
| 20260831213917 | 24 | 228 | 0.0 | 0.0 | 0.00 | 1.70 | 0.05 | 83 | 1016.0 |
| 20260831213816 | 24 | 228 | 0.0 | 0.0 | 0.00 | 1.70 | 0.05 | 83 | 1015.9 |
| 20260831213716 | 24 | 228 | 0.0 | 0.0 | 0.00 | 1.70 | 0.05 | 83 | 1016.0 |
| 20260831213616 | 24 | 228 | 0.0 | 0.0 | 0.00 | 1.70 | 0.05 | 83 | 1015.9 |
| 20260831213522 | 24 | 228 | 0.0 | 0.0 | 0.00 | 1.70 | 0.05 | 83 | 1016.0 |
| 20260831213515 | 24 | 228 | 0.0 | 0.0 | 0.00 | 1.70 | 0.05 | 83 | 1015.9 |
| 20260831213415 | 24 | 228 | 0.0 | 0.0 | 0.00 | 1.70 | 0.05 | 83 | 1016.0 |
| 20260831213334 | 24 | 228 | 0.0 | 0.0 | 0.00 | 1.73 | 0.05 | 83 | 1016.0 |
| 20260831213329 | 24 | 228 | 0.0 | 0.0 | 0.00 | 1.73 | 0.05 | 83 | 1016.0 |
| 20260831213320 | 24 | 228 | 0.0 | 0.0 | 0.00 | 1.73 | 0.05 | 83 | 1016.0 |
| 20260831213114 | 24 | 228 | 0.0 | 0.0 | 0.00 | 1.73 | 0.05 | 83 | 1016.1 |
| 20260831213022 | 24 | 228 | 0.0 | 0.0 | 0.00 | 1.78 | 0.05 | 84 | 1016.1 |
| 20260831213014 | 24 | 228 | 0.0 | 0.0 | 0.00 | 1.78 | 0.05 | 84 | 1016.1 |
| 20260831212912 | 24 | 228 | 0.0 | 0.0 | 0.00 | 1.85 | 0.05 | 84 | 1016.1 |
| 20260831212812 | 24 | 228 | 0.0 | 0.0 | 0.00 | 1.98 | 0.05 | 83 | 1016.1 |
| 20260831212722 | 24 | 228 | 0.0 | 0.0 | 0.00 | 2.03 | 0.05 | 83 | 1016.1 |
| 20260831212711 | 24 | 228 | 0.0 | 0.0 | 0.00 | 2.03 | 0.05 | 83 | 1016.1 |
| 20260831212611 | 24 | 228 | 0.0 | 0.0 | 0.00 | 2.03 | 0.05 | 83 | 1016.1 |
| 20260831212522 | 23 | 228 | 0.0 | 0.0 | 0.00 | 2.03 | 0.05 | 83 | 1016.0 |
| 20260831212510 | 23 | 228 | 0.0 | 0.0 | 0.00 | 2.03 | 0.05 | 83 | 1016.1 |
| 20260831212410 | 23 | 228 | 0.0 | 0.0 | 0.00 | 2.03 | 0.05 | 83 | 1016.0 |
| 20260831212310 | 23 | 228 | 0.0 | 0.0 | 0.00 | 2.03 | 0.05 | 83 | 1016.1 |
| 20260831212220 | 23 | 228 | 0.0 | 0.0 | 0.00 | 2.03 | 0.05 | 83 | 1016.0 |
| 20260831212210 | 23 | 228 | 0.0 | 0.0 | 0.00 | 2.03 | 0.05 | 83 | 1016.0 |
| 20260831212108 | 23 | 228 | 0.0 | 0.0 | 0.00 | 2.03 | 0.05 | 83 | 1016.1 |
| 20260831212022 | 23 | 228 | 0.0 | 0.0 | 0.00 | 2.03 | 0.05 | 85 | 1016.0 |
| 20260831212007 | 23 | 228 | 0.0 | 0.0 | 0.00 | 2.03 | 0.05 | 83 | 1016.0 |
| 20260831211907 | 23 | 228 | 0.0 | 0.0 | 0.00 | 2.03 | 0.05 | 86 | 1016.0 |
| 20260831211820 | 23 | 228 | 0.0 | 0.0 | 0.00 | 2.03 | 0.05 | 86 | 1016.0 |
| 20260831211812 | 23 | 228 | 0.0 | 0.0 | 0.00 | 2.03 | 0.05 | 85 | 1016.0 |
| 20260831211605 | 23 | 228 | 0.0 | 0.0 | 0.00 | 2.03 | 0.05 | 85 | 1016.0 |
| 20260831211522 | 23 | 228 | 0.0 | 0.0 | 0.00 | 2.03 | 0.05 | 85 | 1016.0 |
| 20260831211505 | 23 | 228 | 0.0 | 0.0 | 0.00 | 2.03 | 0.05 | 85 | 1016.0 |
| 20260831211441 | 23 | 228 | 0.0 | 0.0 | 0.00 | 2.03 | 0.05 | 85 | 1016.0 |
| 20260831211405 | 23 | 228 | 0.0 | 0.0 | 0.00 | 2.03 | 0.05 | 85 | 1016.0 |
| 20260831211327 | 23 | 228 | 0.0 | 0.0 | 0.00 | 2.03 | 0.05 | 85 | 1016.0 |
| 20260831211203 | 23 | 228 | 0.0 | 0.0 | 0.00 | 2.03 | 0.05 | 85 | 1016.0 |
| 20260831211103 | 23 | 228 | 0.0 | 0.0 | 0.00 | 2.03 | 0.05 | 85 | 1015.9 |
| 20260831211022 | 23 | 228 | 0.0 | 0.0 | 0.00 | 2.03 | 0.05 | 85 | 1015.9 |
| 20260831211013 | 23 | 228 | 0.0 | 0.0 | 0.00 | 2.03 | 0.05 | 86 | 1015.9 |
| 20260831211009 | 23 | 228 | 0.0 | 0.0 | 0.00 | 2.03 | 0.05 | 85 | 1015.9 |
| 20260831210800 | 23 | 228 | 0.0 | 0.0 | 0.00 | 2.03 | 0.05 | 86 | 1016.0 |
| 20260831210718 | 23 | 228 | 0.0 | 0.0 | 0.00 | 2.03 | 0.05 | 86 | 1016.0 |
| 20260831210659 | 23 | 228 | 0.0 | 0.0 | 0.00 | 2.03 | 0.05 | 86 | 1016.1 |
| 20260831210557 | 23 | 228 | 0.0 | 0.0 | 0.00 | 2.03 | 0.05 | 86 | 1016.1 |
| 20260831210522 | 23 | 228 | 0.0 | 0.0 | 0.00 | 2.03 | 0.05 | 86 | 1016.1 |
| 20260831210458 | 23 | 228 | 0.0 | 0.0 | 0.00 | 2.03 | 0.05 | 86 | 1016.1 |
| 20260831210355 | 23 | 228 | 0.0 | 0.0 | 0.00 | 2.03 | 0.05 | 86 | 1016.1 |
| 20260831210255 | 23 | 228 | 0.0 | 0.0 | 0.00 | 2.03 | 0.05 | 86 | 1016.1 |
| 20260831210228 | 23 | 228 | 0.0 | 0.0 | 0.03 | 2.03 | 0.05 | 85 | 1016.1 |
| 20260831210224 | 23 | 228 | 0.0 | 0.0 | 0.03 | 2.03 | 0.05 | 85 | 1016.1 |
| 20260831210219 | 23 | 228 | 0.0 | 0.0 | 0.00 | 2.03 | 0.05 | 86 | 1016.1 |
| 20260831210213 | 23 | 228 | 0.0 | 0.0 | 0.00 | 2.03 | 0.05 | 86 | 1016.1 |
| 20260831210022 | 23 | 228 | 0.0 | 0.0 | 0.03 | 2.03 | 0.05 | 85 | 1016.1 |
| 20260831205906 | 23 | 228 | 0.0 | 0.0 | 0.03 | 2.03 | 0.05 | 85 | 1016.0 |
| 20260831205902 | 23 | 228 | 0.0 | 0.0 | 0.03 | 2.03 | 0.05 | 85 | 1016.1 |
| 20260831205714 | 23 | 228 | 0.0 | 0.0 | 0.03 | 2.03 | 0.05 | 85 | 1016.0 |
| 20260831205652 | 23 | 228 | 0.0 | 0.0 | 0.03 | 2.03 | 0.05 | 85 | 1016.1 |
| 20260831205550 | 23 | 228 | 0.0 | 0.0 | 0.03 | 2.03 | 0.05 | 85 | 1016.1 |
| 20260831205522 | 23 | 228 | 0.0 | 0.0 | 0.03 | 2.03 | 0.05 | 85 | 1016.1 |
| 20260831205516 | 24 | 228 | 0.0 | 0.0 | 0.03 | 2.03 | 0.05 | 86 | 1016.1 |
| 20260831205512 | 24 | 228 | 0.0 | 0.0 | 0.03 | 2.03 | 0.05 | 87 | 1016.1 |
| 20260831205507 | 23 | 228 | 0.0 | 0.0 | 0.03 | 2.03 | 0.05 | 85 | 1016.1 |
| 20260831205212 | 24 | 228 | 0.0 | 0.0 | 0.03 | 2.03 | 0.05 | 87 | 1016.1 |
| 20260831205148 | 24 | 228 | 0.0 | 0.0 | 0.03 | 2.03 | 0.05 | 87 | 1016.2 |
| 20260831205048 | 24 | 228 | 0.0 | 0.0 | 0.03 | 2.03 | 0.05 | 87 | 1016.2 |
| 20260831205022 | 24 | 228 | 0.0 | 0.0 | 0.03 | 2.03 | 0.05 | 87 | 1016.2 |
| 20260831204948 | 24 | 228 | 0.0 | 0.0 | 0.03 | 2.03 | 0.05 | 87 | 1016.2 |
| 20260831204847 | 24 | 228 | 0.0 | 0.0 | 0.03 | 2.03 | 0.05 | 87 | 1016.1 |
| 20260831204747 | 24 | 228 | 0.0 | 0.0 | 0.03 | 2.03 | 0.05 | 87 | 1016.1 |
| 20260831204712 | 24 | 228 | 0.0 | 0.0 | 0.03 | 2.03 | 0.05 | 86 | 1016.1 |
| 20260831204646 | 24 | 228 | 0.0 | 0.0 | 0.03 | 2.03 | 0.05 | 87 | 1016.1 |
| 20260831204613 | 24 | 228 | 0.0 | 0.0 | 0.03 | 2.03 | 0.05 | 87 | 1016.0 |
| 20260831204609 | 24 | 228 | 0.0 | 0.0 | 0.03 | 2.03 | 0.05 | 87 | 1016.0 |
| 20260831204603 | 24 | 228 | 0.0 | 0.0 | 0.03 | 2.03 | 0.05 | 87 | 1016.0 |
| 20260831204536 | 24 | 228 | 0.0 | 0.0 | 0.03 | 2.03 | 0.05 | 87 | 1016.0 |
| 20260831204245 | 24 | 228 | 0.0 | 0.0 | 0.03 | 2.03 | 0.05 | 86 | 1016.0 |
| 20260831204210 | 23 | 228 | 0.0 | 0.0 | 0.03 | 2.03 | 0.05 | 86 | 1016.0 |
| 20260831204144 | 24 | 228 | 0.0 | 0.0 | 0.03 | 2.03 | 0.05 | 86 | 1016.1 |
| 20260831204044 | 24 | 228 | 0.0 | 0.0 | 0.03 | 2.03 | 0.05 | 86 | 1016.1 |
| 20260831204022 | 24 | 228 | 0.0 | 0.0 | 0.03 | 2.03 | 0.05 | 86 | 1016.1 |
| 20260831204012 | 23 | 228 | 0.0 | 0.0 | 0.03 | 2.03 | 0.05 | 86 | 1016.1 |
| 20260831203943 | 24 | 228 | 0.0 | 0.0 | 0.03 | 2.03 | 0.05 | 87 | 1016.1 |
| 20260831203911 | 23 | 228 | 0.0 | 0.0 | 0.03 | 2.03 | 0.05 | 86 | 1016.1 |
| 20260831203906 | 24 | 228 | 0.0 | 0.0 | 0.03 | 2.03 | 0.05 | 87 | 1016.1 |
| 20260831203857 | 24 | 228 | 0.0 | 0.0 | 0.03 | 2.03 | 0.05 | 87 | 1016.1 |
| 20260831203542 | 23 | 228 | 0.0 | 0.0 | 0.03 | 2.03 | 0.05 | 85 | 1016.1 |
| 20260831203522 | 23 | 228 | 0.0 | 0.0 | 0.03 | 2.03 | 0.05 | 85 | 1016.1 |
| 20260831203441 | 23 | 228 | 0.0 | 0.0 | 0.03 | 2.03 | 0.05 | 85 | 1016.1 |
| 20260831203342 | 23 | 228 | 0.0 | 0.0 | 0.03 | 2.03 | 0.05 | 85 | 1016.1 |
| 20260831203242 | 23 | 228 | 0.0 | 0.0 | 0.03 | 2.03 | 0.05 | 84 | 1016.1 |
| 20260831203207 | 23 | 228 | 0.0 | 0.0 | 0.03 | 2.03 | 0.05 | 84 | 1016.1 |
| 20260831203141 | 23 | 228 | 0.0 | 0.0 | 0.03 | 2.03 | 0.05 | 84 | 1016.1 |
| 20260831203041 | 24 | 228 | 0.0 | 0.0 | 0.05 | 2.03 | 0.05 | 85 | 1016.2 |
| 20260831203022 | 24 | 228 | 0.0 | 0.0 | 0.05 | 2.03 | 0.05 | 84 | 1016.1 |
| 20260831202940 | 24 | 228 | 0.0 | 0.0 | 0.05 | 2.03 | 0.05 | 84 | 1016.1 |
| 20260831202840 | 24 | 228 | 0.0 | 0.0 | 0.05 | 2.03 | 0.05 | 85 | 1016.2 |
| 20260831202824 | 24 | 228 | 0.0 | 0.0 | 0.05 | 2.03 | 0.05 | 85 | 1016.1 |
| 20260831202820 | 24 | 228 | 0.0 | 0.0 | 0.05 | 2.03 | 0.05 | 85 | 1016.1 |
| 20260831202815 | 24 | 228 | 0.0 | 0.0 | 0.05 | 2.03 | 0.05 | 85 | 1016.2 |
| 20260831202807 | 24 | 228 | 0.0 | 0.0 | 0.05 | 2.03 | 0.05 | 85 | 1016.2 |
| 20260831202656 | 24 | 228 | 0.0 | 0.0 | 0.05 | 2.03 | 0.05 | 85 | 1016.2 |
| 20260831202523 | 24 | 228 | 0.0 | 0.0 | 0.05 | 2.03 | 0.05 | 85 | 1016.1 |
| 20260831202405 | 24 | 228 | 0.0 | 0.0 | 0.05 | 2.03 | 0.05 | 85 | 1016.2 |
| 20260831202400 | 24 | 228 | 0.0 | 0.0 | 0.05 | 2.03 | 0.05 | 85 | 1016.2 |
| 20260831202351 | 24 | 228 | 0.0 | 0.0 | 0.05 | 2.03 | 0.05 | 85 | 1016.2 |
| 20260831202036 | 24 | 228 | 0.0 | 0.0 | 0.05 | 2.03 | 0.05 | 85 | 1016.3 |
| 20260831202022 | 24 | 228 | 0.0 | 0.0 | 0.05 | 2.03 | 0.05 | 84 | 1016.2 |